GFSSW_925_thetae_000.txt.gz
Theta_e
309 309 309 309 309 308 308 308 309 309 309 309 310 312 313 313 315 314 316 317 317 315 314 318 317 317 319 322 320 321 321 323 324 323 322 316 317 314 313 314 315 314 314 310 310
310 310 310 309 309 309 309 308 308 308 308 308 309 312 313 313 314 318 317 315 314 314 316 317 319 319 320 322 321 321 326 325 321 319 319 319 316 316 314 313 314 314 311 309 309
310 310 310 310 310 310 310 309 308 308 307 307 307 311 312 313 321 319 318 316 314 314 315 316 317 320 321 322 322 321 322 321 320 319 317 317 316 316 316 315 314 313 312 307 307
310 310 310 310 309 310 309 309 309 308 307 307 307 310 312 317 320 317 315 313 313 314 315 316 318 320 320 323 321 320 320 320 320 317 317 316 317 316 314 314 316 316 314 307 307
312 311 310 310 310 309 309 309 308 308 307 307 307 310 314 319 318 315 313 312 313 313 315 317 318 320 322 321 321 319 319 319 318 317 316 316 315 315 314 314 313 313 312 309 307
314 313 312 310 310 310 310 309 308 307 307 307 307 311 316 315 314 314 313 312 314 314 315 315 317 317 319 319 318 318 318 317 317 317 317 316 315 316 315 314 314 314 310 309 308
314 313 313 312 311 310 310 310 309 307 307 306 308 312 318 315 314 313 313 312 313 313 315 315 315 318 319 320 316 316 315 316 316 316 316 317 315 315 314 315 313 313 312 310 309
314 313 312 311 309 309 309 310 309 308 306 306 311 315 316 315 313 312 312 311 311 311 313 313 313 316 317 316 317 316 317 317 318 317 315 314 315 316 314 314 314 311 311 311 310
314 312 311 311 309 308 307 308 308 306 306 310 313 318 317 313 314 313 312 313 311 312 311 311 315 317 316 316 316 316 318 318 319 317 315 314 316 315 316 315 313 311 310 311 311
315 314 311 311 310 310 307 306 306 307 314 314 316 316 314 315 314 312 311 312 313 313 314 314 315 316 316 316 317 318 318 317 316 317 315 314 314 314 313 313 312 313 312 311 311
315 314 312 312 311 311 307 306 315 320 315 316 316 316 315 313 312 311 310 311 313 314 315 316 315 315 315 316 316 316 316 316 316 316 315 315 315 314 313 313 313 313 313 312 310
316 314 313 312 311 310 312 313 313 311 311 311 312 313 313 314 315 314 310 312 313 314 314 316 316 315 315 314 315 315 314 315 315 315 314 314 315 314 313 313 314 313 313 312 310
316 315 313 312 311 314 313 311 309 311 313 310 311 311 311 312 312 313 309 312 313 315 315 315 315 315 315 315 316 315 314 314 314 314 312 312 313 313 313 313 312 312 312 309 309
317 316 314 313 314 313 312 309 308 309 312 312 312 312 311 311 309 306 309 311 313 314 314 314 314 315 314 314 313 314 314 315 315 315 316 314 316 313 313 312 311 311 311 308 307
318 317 314 312 311 313 311 308 308 310 317 315 308 309 310 310 308 307 303 307 311 311 313 313 313 313 314 314 314 315 312 313 315 315 315 315 314 313 312 312 311 310 312 310 309
319 318 315 313 313 313 311 308 311 312 313 313 311 311 312 311 309 306 306 305 307 310 310 311 309 311 313 310 311 310 312 312 312 311 314 312 313 313 312 312 312 310 310 309 307
321 320 317 314 315 311 308 312 313 311 313 316 313 312 312 314 312 308 308 307 309 310 311 312 310 310 309 312 309 310 314 315 316 315 317 312 312 314 315 311 310 310 309 308 307
322 322 319 316 313 312 309 314 315 319 314 312 311 313 313 312 313 311 312 311 308 310 312 313 313 311 308 311 314 310 313 317 316 314 314 310 314 314 313 312 310 309 308 308 306
320 318 316 316 313 311 311 314 321 324 321 320 317 313 313 312 313 313 311 312 312 309 312 312 312 308 308 310 311 312 312 314 315 308 314 314 312 312 313 312 310 308 307 307 306
317 316 315 316 313 309 310 315 318 322 322 318 318 314 314 313 312 312 312 312 312 311 311 312 313 310 306 306 307 309 309 313 314 312 311 312 312 314 314 314 310 310 308 307 305
316 318 315 315 311 311 312 313 317 318 320 321 323 319 314 312 313 313 312 312 312 313 311 311 312 311 305 306 309 306 309 309 310 316 313 313 314 312 312 313 311 309 310 310 307
316 318 310 310 313 311 314 314 314 317 318 316 313 315 315 315 314 315 314 314 310 311 312 312 314 315 311 309 306 308 309 310 312 311 310 313 314 312 310 308 307 308 309 308 307
315 316 308 312 319 316 313 315 315 316 317 318 320 317 317 318 319 315 314 311 311 311 311 311 312 316 312 311 306 307 308 309 310 310 312 313 312 311 311 310 307 307 307 307 306
311 315 310 309 312 316 317 315 316 314 316 316 317 317 317 317 315 317 316 314 313 312 313 313 314 315 315 313 312 310 308 307 309 311 311 311 310 310 310 310 310 310 309 305 305
308 312 311 312 311 313 315 314 316 316 315 316 317 317 318 318 317 317 314 314 312 312 312 314 315 312 313 313 312 312 312 311 311 310 310 310 310 310 310 310 310 309 307 307 306
305 309 307 311 312 313 312 313 314 315 315 316 317 316 315 317 317 318 315 316 317 312 313 313 316 312 313 311 311 312 311 311 311 311 311 311 310 309 308 308 309 308 308 308 308
300 301 302 303 307 309 311 311 312 312 312 313 315 315 316 316 314 314 314 315 315 316 313 311 312 314 316 313 313 315 313 313 313 313 312 312 312 311 310 310 310 310 310 310 309

GFSSW_925_thetae_003.txt.gz
Theta_e
309 309 309 309 309 309 309 309 308 308 307 307 307 310 312 313 312 314 314 315 317 316 315 317 317 317 317 318 318 318 315 316 318 320 319 315 315 314 312 313 314 313 313 311 311
309 309 309 309 310 310 309 309 309 308 308 307 307 308 311 313 313 316 315 315 316 314 316 316 315 315 315 318 317 317 318 319 318 317 317 316 314 312 314 312 312 313 307 309 309
310 310 309 309 309 309 309 309 309 308 307 307 307 307 311 313 320 318 318 316 314 314 316 316 316 316 317 318 317 316 316 317 317 317 315 315 315 313 312 312 310 310 309 305 303
312 311 310 310 309 309 309 309 309 308 307 307 307 307 311 315 309 317 315 315 313 314 315 315 315 318 317 318 318 319 317 317 318 317 316 315 314 315 311 314 312 309 309 304 302
314 313 312 311 310 310 310 310 310 309 308 307 306 307 312 317 315 316 314 313 313 314 315 314 315 317 318 318 317 318 317 316 315 314 314 315 314 313 312 310 309 309 309 305 304
312 313 312 311 311 311 310 310 310 310 309 307 306 307 313 313 313 314 314 312 313 313 314 314 315 315 315 316 316 316 316 314 313 314 314 315 314 314 312 311 310 310 309 305 305
315 314 315 313 308 307 309 310 311 310 309 308 306 310 317 311 313 313 313 312 313 313 313 314 315 315 315 317 315 315 315 312 314 313 314 314 313 313 314 311 311 310 309 307 305
315 315 315 314 311 309 307 306 307 309 308 307 308 314 310 313 313 313 312 312 312 312 313 314 314 314 316 315 313 315 314 314 313 313 314 313 314 313 311 310 310 310 307 307 306
316 315 315 314 312 311 309 307 306 306 306 308 312 317 312 313 313 313 313 312 311 312 312 312 315 314 315 312 312 312 312 313 315 314 313 313 314 312 310 309 310 308 307 308 309
316 316 315 314 312 311 308 308 307 308 313 314 317 315 312 313 314 312 312 312 312 312 312 313 312 311 312 310 312 311 313 313 314 314 313 312 313 313 310 310 308 308 307 306 309
316 316 315 314 313 311 311 310 308 311 317 309 311 311 313 312 313 311 311 311 312 313 312 312 311 312 312 312 311 312 311 311 313 313 314 315 314 314 312 310 309 309 310 311 309
317 316 316 314 313 313 312 312 310 310 309 308 307 311 313 313 313 312 310 311 311 312 312 314 314 312 311 312 312 312 312 311 312 310 311 312 313 312 310 312 312 311 311 311 308
317 317 316 316 313 313 312 309 309 310 311 309 307 307 308 312 311 310 309 309 311 311 312 313 313 313 313 313 313 312 312 312 312 312 310 310 311 311 310 310 311 311 310 310 307
319 317 316 316 314 312 310 310 308 309 306 309 309 311 309 309 307 304 308 310 311 312 311 312 312 312 312 312 312 313 311 312 312 313 314 311 314 311 310 310 309 310 311 307 304
319 318 316 315 313 312 312 310 308 309 310 311 308 309 308 307 306 306 303 307 310 310 310 312 312 311 312 313 311 313 312 312 313 312 312 313 312 313 309 309 310 311 311 309 303
322 319 317 314 312 313 309 307 310 305 308 311 309 309 310 310 308 305 305 304 305 308 307 308 308 311 311 310 310 310 311 311 310 308 313 310 311 311 309 310 310 310 310 309 304
322 321 319 316 314 310 312 312 312 309 309 313 310 310 310 311 310 306 306 305 306 308 307 308 308 308 309 311 308 310 310 311 311 311 315 309 309 313 311 309 309 310 310 309 305
321 321 319 318 314 313 311 313 320 319 312 313 311 310 311 310 311 308 308 307 305 307 309 310 310 308 307 310 310 308 311 312 310 312 313 306 312 313 310 310 308 308 309 307 304
319 318 316 317 314 313 312 317 322 318 322 323 324 325 313 310 309 310 307 308 308 307 310 309 311 309 307 308 310 310 311 311 312 299 310 313 311 310 311 310 308 308 305 306 304
317 316 315 317 314 310 312 322 317 316 321 319 325 323 324 319 316 312 311 309 310 308 309 311 311 309 307 307 308 309 308 312 311 312 312 313 310 313 312 313 311 308 305 305 304
315 317 315 315 311 311 317 316 317 316 316 320 322 324 322 323 321 321 317 314 309 310 309 308 311 311 306 307 309 308 309 309 310 312 314 313 314 312 311 311 310 307 305 303 304
313 317 312 311 313 313 318 315 315 316 315 318 317 319 321 321 322 322 321 317 314 312 316 310 312 314 309 305 305 307 309 309 312 311 309 313 314 311 307 308 305 308 307 306 306
313 312 309 311 317 317 314 316 316 316 316 317 319 317 318 319 320 318 318 315 316 315 315 313 314 316 314 310 305 307 306 307 309 309 313 314 313 312 311 309 304 305 303 303 305
308 312 309 308 312 316 316 316 317 314 315 315 316 316 317 318 317 319 318 317 315 315 314 315 314 315 318 315 311 312 309 307 310 311 313 312 312 311 311 310 310 309 309 309 305
302 305 308 311 311 313 313 313 315 315 314 314 315 315 316 317 316 318 317 317 315 313 312 314 317 315 315 314 313 313 313 313 312 312 313 313 312 310 310 310 309 309 309 306 303
300 303 302 307 309 311 311 311 312 312 312 312 313 312 314 316 316 318 315 316 316 312 313 313 317 317 318 315 314 315 315 314 315 314 313 312 311 311 311 311 311 311 310 309 307
298 299 301 301 301 304 306 308 308 309 310 310 307 306 309 311 306 306 306 308 311 314 315 314 315 317 319 317 316 318 316 316 314 313 312 313 312 310 310 310 311 311 310 310 308

GFSSW_925_thetae_009.txt.gz
Theta_e
309 309 309 309 309 309 309 309 308 308 308 307 307 306 307 310 311 311 312 314 314 314 314 313 316 316 315 315 315 309 310 312 313 315 317 313 314 312 310 312 311 309 310 309 309
309 309 309 309 309 309 309 309 309 309 308 308 307 306 306 309 312 313 311 314 315 314 316 315 314 314 313 316 315 314 309 310 310 314 315 314 312 312 313 311 310 310 308 307 308
310 310 310 310 310 310 310 310 309 309 309 309 308 307 306 309 313 310 317 313 315 315 315 315 314 313 315 315 316 314 314 313 314 313 314 314 312 311 311 311 308 310 309 304 304
312 310 310 310 310 310 310 310 310 310 310 310 310 308 306 312 309 314 315 316 315 314 315 315 312 315 315 316 314 316 313 313 314 315 315 314 312 311 309 314 310 307 308 304 303
314 314 313 312 311 310 309 308 308 309 310 310 310 309 307 311 310 312 314 315 314 313 314 311 312 313 315 313 315 315 315 314 312 313 312 312 311 311 310 310 307 306 306 304 303
315 315 315 315 315 314 312 310 309 307 307 308 310 308 310 307 311 311 314 314 313 313 313 311 311 312 314 314 314 313 313 312 311 312 312 314 314 312 312 310 309 307 306 304 303
316 316 316 316 315 315 315 312 311 309 308 306 306 308 314 307 312 312 313 313 312 313 311 311 312 313 312 313 312 313 313 309 309 310 311 310 311 310 312 311 309 307 306 305 303
316 316 316 316 316 316 314 313 311 310 310 308 305 311 305 310 311 312 312 311 311 312 312 312 313 312 313 311 309 311 311 311 310 309 311 311 311 312 309 309 309 308 306 305 305
317 317 317 317 317 316 312 310 311 310 308 307 309 312 308 311 311 311 312 311 311 310 311 312 312 311 312 310 309 308 309 309 309 309 311 310 311 311 311 308 308 307 306 306 306
318 317 317 318 318 314 313 311 311 312 312 314 316 309 306 310 312 311 310 311 310 309 310 311 308 309 308 308 311 310 308 308 308 310 310 311 310 310 311 308 308 308 308 309 309
319 319 318 318 318 315 310 312 307 307 312 307 310 306 309 311 313 310 310 311 310 309 309 310 309 310 310 309 310 308 307 308 308 309 310 310 311 311 311 310 311 307 309 310 309
322 321 320 319 318 315 310 309 308 308 306 307 307 308 310 311 312 310 310 310 310 311 308 311 310 310 309 308 309 309 310 310 311 310 307 309 310 309 308 309 310 311 310 310 309
325 322 321 319 317 315 310 308 307 309 308 306 306 306 306 309 310 310 308 308 310 309 309 311 310 310 309 309 310 309 310 311 311 309 307 307 311 310 307 307 308 309 309 309 309
325 324 321 319 316 314 311 310 308 309 307 306 307 307 308 308 308 304 305 308 309 310 308 309 309 310 310 309 309 311 308 309 310 310 312 308 312 310 309 309 308 308 308 307 307
323 323 322 319 317 315 314 307 308 305 324 312 308 308 308 305 305 304 303 307 308 309 309 307 310 310 310 311 308 311 309 308 308 308 308 309 309 311 308 309 308 307 307 307 307
321 322 320 318 317 317 314 310 308 314 325 312 307 308 309 308 307 304 305 304 304 307 306 307 305 307 308 308 307 308 310 308 305 307 311 309 310 311 308 309 309 308 307 306 305
318 320 318 318 316 317 317 314 324 325 316 315 309 308 307 307 308 305 306 307 307 308 306 305 306 306 307 309 307 309 308 309 309 309 312 307 308 313 310 310 306 309 305 305 303
315 316 319 318 318 315 317 320 324 323 318 315 315 309 314 308 311 307 305 306 304 305 304 307 315 306 305 307 307 307 308 311 309 312 315 304 309 314 309 307 306 306 305 303 302
312 316 316 318 318 314 318 322 322 321 318 320 320 322 318 311 312 309 306 306 307 304 310 307 309 306 305 306 307 307 308 308 311 300 307 311 309 310 307 309 308 305 303 304 305
308 315 315 316 318 313 318 321 319 318 318 319 322 321 321 311 319 312 312 309 308 305 305 309 310 308 305 306 306 307 307 310 308 312 313 311 311 312 310 311 309 307 306 305 304
308 312 314 315 313 313 317 318 317 316 316 319 321 321 319 320 319 321 321 315 309 309 305 310 313 313 310 308 313 306 308 307 308 312 315 316 315 313 311 307 306 306 306 305 304
308 312 311 313 314 314 316 315 314 315 314 318 317 319 319 319 320 321 321 319 316 313 317 315 315 318 316 308 307 306 309 309 311 313 311 313 315 313 313 311 308 309 310 306 303
305 306 310 311 315 315 314 315 315 315 315 316 318 317 316 318 318 316 316 315 315 317 317 314 317 320 317 311 310 313 313 313 313 311 313 314 314 312 312 311 311 308 305 304 304
302 304 308 309 310 313 313 313 314 313 314 315 315 314 315 315 315 316 315 312 311 313 313 313 316 319 320 317 313 315 311 311 312 316 314 313 311 311 311 311 311 310 307 306 302
299 301 303 303 308 309 310 310 310 312 313 313 313 314 314 315 314 314 312 310 307 308 308 312 315 314 314 314 315 316 315 315 316 313 312 312 314 313 312 310 307 306 303 301 299
298 298 299 299 301 304 307 307 309 308 310 310 310 310 309 312 313 311 306 306 308 306 304 306 308 308 310 308 308 311 313 312 311 309 309 310 311 306 298 296 298 296 295 295 295
294 296 298 297 298 300 301 304 304 302 306 306 304 305 307 306 300 299 298 300 301 302 301 303 305 305 306 304 303 305 305 305 306 309 307 308 298 296 295 294 296 294 293 293 294

GFSSW_925_thetae_012.txt.gz
Theta_e
309 309 309 309 309 309 309 309 309 309 308 308 307 307 306 306 309 311 311 312 314 314 315 313 315 315 315 314 312 308 310 310 312 312 314 312 313 311 309 311 309 308 309 308 309
310 310 310 310 310 310 309 309 309 309 309 309 309 308 306 306 310 313 312 311 314 313 314 314 313 313 311 315 314 313 308 310 308 310 314 313 312 313 313 311 309 309 307 307 308
311 310 310 310 310 310 310 310 310 310 310 310 310 309 308 307 310 309 316 312 314 314 315 314 314 313 315 314 314 312 314 310 312 310 312 313 312 310 310 311 308 310 309 305 305
313 312 312 311 310 310 309 309 309 309 310 310 310 310 308 311 308 311 315 314 315 314 315 313 312 314 314 315 313 316 313 312 313 313 314 314 310 311 309 315 311 307 308 305 303
315 315 314 315 314 313 313 312 310 309 308 308 309 310 308 308 308 311 312 315 314 314 314 311 312 312 314 312 313 314 314 313 312 312 312 311 312 311 309 310 308 306 305 304 303
316 315 315 315 315 315 315 314 313 311 310 308 306 307 310 307 311 310 312 314 314 313 312 310 310 310 312 312 313 312 312 311 310 311 311 313 313 313 310 308 308 307 306 304 302
316 316 316 316 316 317 316 314 312 312 311 310 308 306 311 307 311 311 313 313 313 312 310 311 311 312 311 311 310 312 312 308 308 309 310 309 311 309 310 309 308 306 305 304 303
316 317 317 317 317 318 315 314 312 311 311 310 308 309 304 309 310 310 311 311 311 311 311 312 311 311 312 310 309 310 309 310 309 308 309 309 309 310 307 306 307 306 306 305 305
318 318 318 318 318 318 316 311 310 309 308 308 309 309 305 308 310 310 311 310 310 310 311 312 311 310 310 309 309 307 309 308 308 307 309 308 309 309 307 308 307 306 306 306 308
320 320 320 319 319 317 313 311 312 314 313 316 314 308 306 307 311 310 310 310 309 308 309 310 306 309 306 307 310 309 307 306 307 309 307 309 309 309 309 307 306 308 309 309 309
322 322 322 320 319 316 315 310 305 305 310 308 311 305 305 310 312 309 309 310 308 308 309 309 308 309 310 307 309 307 306 306 306 307 308 309 309 308 307 307 309 309 308 308 308
325 323 322 321 319 317 314 307 307 306 308 306 306 307 308 310 311 309 309 310 310 310 307 309 309 309 308 308 308 308 309 309 309 308 307 307 309 309 309 309 309 309 309 309 308
325 325 324 322 320 316 311 308 307 308 307 307 305 306 306 309 308 309 307 308 310 309 308 310 310 309 308 309 309 307 308 309 309 307 306 305 308 307 307 306 308 308 308 306 307
324 323 323 322 318 315 312 310 307 308 312 311 306 306 307 307 308 303 305 308 308 309 307 308 308 309 308 309 308 310 307 308 308 308 310 307 311 307 307 307 306 306 305 304 304
322 322 322 321 318 316 315 309 308 305 325 314 307 307 306 305 305 304 304 307 308 309 308 308 309 309 309 309 307 309 308 307 307 307 307 308 308 310 307 308 307 306 305 304 303
319 320 321 319 318 318 315 312 308 319 326 316 306 308 308 307 306 304 305 304 304 306 305 306 305 307 307 307 306 307 309 307 304 306 310 308 308 310 307 308 309 307 305 305 303
316 317 319 318 316 316 315 313 323 326 317 318 310 307 306 306 308 305 306 307 306 310 307 305 305 305 306 308 306 308 307 308 308 309 312 306 307 311 310 308 308 307 305 305 303
311 313 315 318 319 314 316 321 323 320 319 315 313 309 313 308 310 306 305 306 303 305 304 308 319 307 304 307 308 306 307 310 312 312 317 303 311 315 307 307 305 303 304 303 302
307 310 314 315 317 313 318 324 322 316 316 319 319 320 318 311 312 308 305 306 306 304 312 308 311 305 304 305 306 306 308 307 311 306 308 313 309 310 308 306 306 305 304 303 302
305 311 312 312 316 313 318 322 320 316 318 319 322 320 320 315 312 310 309 308 308 304 305 310 315 310 308 305 305 306 306 310 308 314 314 311 311 312 311 310 309 308 306 303 305
305 309 310 314 315 314 318 317 317 315 316 319 321 321 321 320 318 320 321 315 308 308 304 312 312 313 312 309 311 311 308 307 307 312 318 319 316 312 311 310 307 304 305 306 308
305 307 309 312 313 313 315 315 313 314 313 315 317 317 318 318 318 318 318 319 314 311 314 314 317 318 316 311 308 307 313 311 313 313 309 313 314 311 310 310 310 306 304 299 299
303 304 308 310 311 312 312 314 313 314 314 315 316 315 315 316 318 317 316 314 312 314 317 315 317 319 317 311 309 314 314 314 314 315 318 318 315 311 310 310 300 302 299 297 296
301 301 306 308 308 310 310 310 311 310 313 312 313 313 314 314 313 314 314 312 308 310 310 311 312 316 317 314 312 315 314 313 314 317 316 316 316 313 311 309 299 297 294 293 293
296 298 299 305 304 306 308 309 308 308 309 310 311 312 312 314 314 315 313 311 308 307 307 310 314 313 314 314 310 309 308 307 309 310 312 311 310 306 298 296 296 293 293 292 292
295 296 297 298 298 302 302 305 306 305 306 307 307 306 307 310 309 310 308 306 307 305 304 304 307 305 304 303 302 305 306 306 305 305 305 307 306 295 293 293 293 294 292 291 291
293 295 296 295 297 298 297 300 301 299 302 301 300 302 304 304 299 298 298 298 299 300 301 302 304 303 303 301 300 301 301 302 302 301 301 302 295 292 292 292 291 292 294 290 291

GFSSW_925_thetae_015.txt.gz
Theta_e
309 309 309 309 309 309 309 309 309 309 309 309 309 309 308 307 307 309 310 311 313 314 314 313 315 315 314 313 310 307 312 312 313 311 312 311 312 309 308 310 309 309 309 310 309
310 310 310 310 310 310 310 309 309 309 309 309 309 309 309 309 310 312 311 311 313 314 314 313 312 312 311 313 313 313 311 311 308 308 312 313 311 312 312 312 309 309 308 308 308
312 312 311 311 311 311 311 310 309 309 309 309 310 310 310 309 308 308 315 311 312 313 314 313 313 312 314 313 314 312 315 310 310 307 310 313 311 310 311 313 311 311 311 306 306
314 314 314 314 314 313 313 312 312 310 308 308 309 309 310 310 308 310 315 312 313 313 314 313 311 313 314 314 312 315 312 311 312 312 313 313 310 311 309 316 313 308 309 307 306
315 315 315 315 315 315 315 315 314 312 311 309 308 307 309 307 307 311 311 314 314 313 314 310 312 311 314 311 312 314 313 313 311 311 311 311 313 312 310 310 308 307 305 306 305
315 315 315 316 316 317 317 315 314 313 312 311 310 307 309 307 311 310 311 314 314 314 312 311 310 309 311 311 312 311 311 310 309 310 310 312 312 311 310 308 308 306 307 305 304
316 316 317 317 317 318 318 316 314 313 312 312 311 308 308 306 310 311 312 313 314 313 309 311 311 311 310 311 309 311 311 308 307 308 309 308 311 309 310 308 308 308 305 304 304
318 319 319 319 319 319 318 314 314 311 310 310 310 308 303 306 309 309 311 311 312 312 312 311 311 310 311 309 308 310 308 310 309 307 308 310 311 310 307 305 307 307 307 306 307
320 320 320 320 320 320 317 316 312 311 309 308 310 306 305 307 309 309 310 310 309 310 310 310 310 308 309 309 308 307 310 308 308 307 308 308 310 308 306 306 307 308 309 309 308
322 322 322 322 321 320 318 314 311 315 313 313 311 308 308 308 310 309 309 309 308 308 309 309 305 308 305 308 310 309 307 306 307 309 306 308 309 309 308 308 309 309 308 308 308
323 323 323 322 322 321 318 310 309 307 309 310 310 306 305 309 310 308 309 309 307 307 309 308 308 309 309 307 308 308 306 305 305 306 306 309 309 308 307 307 308 309 309 308 308
325 325 324 324 322 320 316 307 307 307 308 308 305 306 307 309 310 308 309 309 309 309 306 307 309 308 307 306 307 307 308 308 308 307 305 307 309 309 309 309 309 309 309 307 307
324 323 322 324 323 317 313 310 307 307 307 309 306 306 306 308 308 308 307 307 309 307 307 309 309 307 307 308 308 306 307 309 308 306 305 305 308 307 308 306 306 307 306 305 305
323 321 321 321 319 317 312 311 307 307 313 314 307 306 306 306 307 303 305 307 308 309 307 307 307 308 308 308 307 310 306 307 307 308 309 307 310 308 308 308 307 305 304 304 303
320 319 320 320 320 317 315 311 308 305 326 314 306 306 306 305 304 304 303 306 308 308 307 308 308 308 309 309 306 309 308 307 307 307 307 307 307 308 306 308 308 307 307 306 304
318 318 319 319 319 319 314 313 308 322 327 317 306 307 308 306 305 303 305 303 303 306 305 305 304 306 306 306 306 307 308 305 303 306 310 308 308 310 307 308 308 308 307 305 303
315 316 317 319 317 317 315 315 320 326 319 319 311 307 306 306 307 305 307 306 306 309 308 305 305 305 306 307 306 308 307 310 311 309 314 305 307 310 308 307 308 308 306 303 301
309 310 314 316 317 317 316 321 325 319 319 316 314 310 314 309 310 306 305 306 303 304 305 310 319 305 304 307 309 307 308 315 319 315 319 303 314 315 306 307 305 303 303 302 303
305 307 312 309 315 314 318 319 322 318 316 319 318 319 318 312 313 309 305 306 307 304 311 309 311 306 302 304 307 306 308 308 311 309 310 313 311 313 308 307 305 304 302 301 299
303 309 311 309 313 313 318 316 318 315 316 318 321 319 319 317 313 312 311 308 307 304 304 309 318 310 307 305 305 306 306 310 308 315 318 314 312 314 310 308 304 302 300 299 297
304 307 307 311 314 314 314 314 314 314 316 318 320 320 319 319 318 319 319 317 310 309 304 311 313 314 313 308 308 306 307 307 308 315 319 319 316 310 309 304 303 301 299 296 295
305 303 307 313 312 312 313 313 312 312 312 314 315 316 317 316 317 316 317 315 312 309 311 312 316 318 316 311 307 309 311 310 318 319 315 317 318 312 304 303 300 296 295 293 292
303 302 307 310 312 311 311 312 312 312 313 314 313 313 313 314 315 314 313 312 312 314 316 315 317 318 315 311 310 314 312 313 314 313 317 317 316 312 307 300 298 294 293 292 292
298 299 302 308 306 308 308 308 309 308 310 311 311 311 311 312 311 313 313 311 309 310 310 310 313 316 316 314 314 315 312 312 314 316 315 315 313 309 303 297 295 294 292 292 291
294 297 298 298 302 305 305 305 306 307 307 306 308 310 310 312 310 309 310 309 308 307 306 309 312 311 312 312 305 306 306 305 306 306 308 307 306 305 299 294 294 294 293 292 291
294 294 294 297 298 300 303 303 303 303 304 303 303 303 303 306 307 308 306 304 306 305 304 304 308 303 303 304 304 303 301 301 302 302 304 304 305 294 293 292 292 291 293 292 289
292 294 294 293 295 296 296 300 298 298 300 297 297 298 298 302 299 299 298 298 299 301 301 302 302 303 304 301 299 299 299 299 299 299 299 300 295 291 290 292 291 290 292 291 288

GFSSW_925_thetae_018.txt.gz
Theta_e
310 310 309 309 309 309 309 309 309 309 309 309 309 309 310 310 309 310 311 311 312 315 314 313 315 315 316 318 316 315 320 320 319 318 317 317 317 314 314 316 315 316 317 318 312
311 311 310 310 310 310 310 309 309 309 309 309 309 309 310 310 310 314 311 310 313 313 314 315 316 316 318 319 319 320 320 319 317 316 316 317 316 317 316 318 318 316 316 314 311
312 312 312 312 312 311 311 311 310 309 309 309 309 309 309 310 313 311 315 312 312 314 314 313 315 316 318 318 320 320 320 319 316 315 314 316 316 315 317 318 318 318 318 317 313
314 314 314 314 314 314 313 314 313 312 311 310 309 308 307 310 313 309 315 311 312 314 313 314 316 317 319 319 318 319 319 318 318 315 316 317 316 317 317 318 317 317 317 316 315
315 315 315 316 316 316 316 315 314 313 313 313 312 310 307 311 313 310 312 313 313 313 314 316 316 317 318 317 316 318 318 318 317 316 316 316 317 317 317 317 317 316 315 314 315
315 316 316 317 317 318 318 317 315 314 313 313 312 310 309 309 310 310 311 314 314 313 314 314 316 316 316 316 316 316 316 316 315 315 315 315 316 314 315 315 315 314 314 315 313
317 318 319 319 320 320 319 317 316 317 313 311 311 310 310 311 309 310 312 314 314 313 313 312 312 315 315 315 313 314 315 315 315 314 314 313 315 315 315 314 314 314 315 314 314
319 320 321 321 321 321 320 317 317 312 310 309 310 309 312 307 307 308 312 312 313 312 311 311 311 314 314 313 313 314 313 315 315 312 312 314 315 315 315 312 313 314 314 314 314
320 321 322 322 323 322 320 318 312 312 310 309 311 308 312 307 309 309 310 310 310 310 310 309 312 313 313 314 315 314 315 315 314 313 312 314 314 314 313 313 313 313 313 314 314
321 322 323 323 323 323 319 316 310 313 313 311 309 310 310 310 309 309 309 309 310 311 312 313 313 314 313 314 316 316 315 314 313 314 313 313 313 312 312 312 312 312 313 313 314
323 324 324 323 323 323 319 311 318 316 312 318 318 312 310 308 309 308 308 309 310 312 314 313 314 315 315 314 315 313 313 314 314 313 312 313 313 313 312 312 313 312 313 313 313
325 323 323 323 324 321 317 313 310 309 317 312 310 309 307 309 311 309 308 312 312 314 311 312 314 315 314 311 312 313 314 314 314 313 310 313 313 312 313 313 313 314 313 313 312
325 323 322 322 321 318 313 311 308 307 314 315 309 309 309 309 312 310 309 310 312 312 312 315 315 312 311 313 313 314 313 314 314 313 311 311 314 313 314 314 313 311 312 310 310
324 323 322 320 319 319 313 312 308 307 321 319 311 308 307 308 309 304 305 309 311 313 312 313 311 310 311 312 313 314 314 312 312 312 315 311 317 317 316 315 314 313 312 311 311
321 320 320 319 320 319 316 312 309 307 328 316 308 307 307 308 307 306 303 308 312 312 311 314 311 310 312 313 311 314 309 310 310 312 312 314 314 319 312 313 314 312 311 309 308
318 319 319 319 319 318 317 313 310 324 328 320 308 310 309 307 307 306 307 306 306 309 309 311 306 309 311 308 309 308 310 310 310 311 317 317 316 318 316 313 313 311 307 307 305
315 316 317 318 318 316 315 316 324 326 319 321 313 308 308 308 308 307 309 310 312 314 316 311 310 308 307 309 308 309 311 321 325 324 325 311 314 314 314 310 309 307 306 304 303
310 311 315 316 318 317 317 322 325 321 322 317 316 312 320 313 312 309 309 315 309 308 313 318 321 310 308 312 317 312 314 323 327 327 326 317 319 318 315 309 307 306 305 303 302
306 306 308 309 315 316 320 318 317 319 318 319 319 320 319 316 315 313 313 316 313 310 317 320 319 308 306 307 310 312 313 313 318 320 320 317 316 316 313 309 308 307 305 302 300
303 309 310 309 314 314 317 315 314 316 317 319 320 320 319 319 318 315 317 311 311 307 307 313 319 315 311 306 307 309 312 317 313 318 321 317 317 318 313 310 308 306 303 299 298
302 307 306 311 313 314 315 314 313 314 316 318 318 319 318 319 319 319 318 316 315 313 308 314 317 317 314 313 314 312 310 309 310 314 322 322 318 313 311 309 307 302 298 297 296
306 305 308 313 314 314 314 312 310 312 313 315 315 316 317 316 315 315 315 315 313 313 315 314 316 318 315 314 311 310 314 314 317 318 315 317 318 310 307 305 301 297 296 295 294
306 305 308 311 311 313 312 311 311 312 312 312 313 314 313 313 314 312 312 312 312 314 315 315 316 319 318 315 312 315 315 313 315 316 318 320 319 307 302 300 297 296 295 294 293
302 303 304 309 309 309 310 309 310 308 310 311 312 312 312 311 310 311 310 311 310 311 310 310 313 315 314 313 313 316 315 314 313 317 316 316 316 312 311 307 299 296 294 293 291
299 300 301 308 308 309 308 306 306 307 307 307 308 310 308 308 308 309 308 308 308 307 307 309 312 310 310 310 310 312 310 309 309 308 309 307 307 306 304 302 296 293 294 293 290
298 299 298 300 301 304 305 305 304 303 304 304 305 304 303 304 305 307 305 305 304 304 305 306 308 307 308 307 307 308 306 306 305 305 304 303 304 302 295 293 292 291 291 293 291
292 294 297 296 298 301 301 303 301 301 300 299 299 300 300 301 299 298 298 298 300 301 301 302 303 304 304 303 303 304 302 302 302 302 301 301 301 294 292 292 292 292 291 292 291

GFSSW_925_thetae_021.txt.gz
Theta_e
309 310 310 310 309 309 309 309 309 309 309 309 309 309 309 310 310 316 315 314 312 313 315 316 316 317 318 321 320 320 321 321 320 319 318 319 318 318 318 318 318 318 318 319 317
311 311 310 310 310 310 309 309 309 309 309 309 309 309 309 310 313 316 315 311 311 314 316 317 318 318 320 321 321 321 322 320 320 318 318 317 317 318 318 318 318 319 319 319 318
314 313 313 313 313 312 312 311 311 311 311 310 310 309 308 309 318 314 314 311 312 314 316 317 317 318 319 320 321 321 321 319 320 319 318 317 317 317 318 318 318 318 318 318 318
315 315 315 315 316 316 315 314 313 313 313 313 312 311 308 313 316 311 315 312 312 315 315 316 317 318 319 320 319 321 319 320 320 319 318 318 317 317 318 318 318 318 318 318 318
315 315 316 316 317 317 318 317 316 315 313 313 313 312 310 314 314 312 312 312 313 314 315 316 317 318 318 317 318 320 319 318 318 318 319 318 317 317 317 317 318 318 317 317 317
316 316 317 319 319 319 320 318 317 316 316 314 312 311 315 314 311 311 312 313 315 314 315 316 317 317 317 317 317 317 317 317 317 317 317 317 317 316 316 317 317 316 316 316 316
317 318 319 321 321 321 322 320 318 318 315 313 311 311 313 317 312 314 313 316 315 315 316 316 315 316 317 317 317 316 316 316 316 316 316 315 316 316 317 317 316 315 315 316 316
318 320 322 322 323 322 322 320 319 313 310 309 309 315 315 309 311 309 313 313 313 313 314 313 314 315 316 316 316 315 316 317 317 315 315 315 316 316 316 315 315 315 315 316 315
319 321 322 322 323 323 322 319 314 312 311 309 315 316 315 308 311 310 311 312 313 312 312 311 314 315 316 316 316 317 318 318 318 316 315 315 315 316 315 315 315 315 315 315 315
321 322 323 323 323 323 321 318 311 312 314 311 312 313 311 313 311 309 309 311 312 313 313 314 314 315 315 316 318 320 320 318 318 317 317 317 317 316 316 315 315 315 315 316 315
323 323 323 323 323 323 320 316 321 320 316 320 322 318 321 311 309 310 309 311 313 314 315 315 316 317 318 318 317 317 317 317 317 318 317 317 316 315 315 315 315 316 317 316 315
323 323 323 323 323 321 318 319 313 311 319 319 318 316 312 310 314 311 309 313 313 315 315 315 316 316 317 316 315 316 316 317 317 317 316 316 315 314 315 316 316 316 315 315 313
324 324 323 323 321 320 317 314 311 309 318 320 315 315 313 312 317 317 311 313 314 316 315 317 318 316 315 315 316 316 316 317 317 316 314 314 316 319 316 319 317 315 313 312 311
324 324 323 322 320 320 318 315 311 309 322 322 315 311 309 310 314 307 309 313 315 318 319 317 316 314 314 314 315 316 316 314 314 314 318 315 319 318 319 319 315 314 312 311 308
324 323 321 319 322 322 315 315 312 311 328 318 311 308 309 310 309 308 306 310 314 315 314 316 314 313 315 315 314 315 312 312 312 314 317 318 318 319 319 318 314 311 310 308 307
320 319 319 319 319 317 318 316 314 325 328 322 311 312 311 309 309 308 310 309 308 312 313 314 310 311 313 312 312 311 311 313 314 316 321 320 319 320 317 314 312 310 309 308 306
317 317 318 319 319 318 316 319 325 328 321 322 316 311 312 312 311 310 312 312 315 317 319 317 314 311 310 312 311 311 313 320 321 325 328 319 320 320 317 313 312 310 308 306 305
313 315 316 317 316 316 319 322 326 322 322 319 318 317 321 319 317 313 316 318 316 313 317 318 318 314 311 313 316 317 317 321 322 324 325 322 324 321 316 310 309 308 306 305 303
307 308 311 313 316 317 321 323 321 319 318 319 319 320 320 319 317 318 318 318 317 316 317 317 317 316 312 311 311 316 316 315 318 319 322 320 319 319 316 311 310 308 306 303 302
304 309 311 308 314 317 318 319 316 314 316 317 319 317 318 318 318 317 317 314 315 310 311 317 320 317 313 311 311 311 310 318 317 322 322 318 318 318 316 314 310 307 303 301 300
305 309 308 309 314 315 317 315 312 312 316 317 317 317 316 315 316 319 319 318 316 315 311 315 318 316 314 314 314 313 313 313 314 318 322 321 317 313 314 312 308 303 300 299 297
307 308 308 313 313 313 314 311 310 313 313 314 314 315 317 314 315 316 315 314 314 314 315 313 314 317 313 312 312 313 314 314 317 318 316 317 319 313 310 306 303 300 299 297 296
306 307 309 312 313 314 311 311 311 312 312 313 314 314 313 313 314 312 312 311 312 312 314 314 314 315 314 310 313 316 315 315 316 316 319 321 317 309 306 303 301 300 298 296 295
305 305 308 309 311 310 311 310 311 310 311 311 311 311 312 312 311 311 309 309 311 310 310 311 313 314 312 310 311 313 312 313 314 315 314 315 314 310 311 307 303 301 298 296 294
303 303 305 308 310 310 308 307 307 309 308 308 308 309 309 308 307 308 307 308 308 308 307 308 310 309 309 308 308 309 308 308 309 311 312 311 311 308 306 305 300 298 296 295 293
301 302 301 305 306 308 308 307 308 306 305 305 306 305 307 307 307 306 306 306 305 303 303 303 305 305 305 304 303 305 306 306 307 307 307 307 306 304 300 296 296 295 294 293 292
295 296 300 301 303 305 308 308 305 305 303 303 303 303 303 303 302 301 300 301 302 302 302 302 303 303 302 301 300 302 301 301 302 302 302 302 302 295 296 294 293 293 292 292 291

GFSSW_925_thetae_024.txt.gz
Theta_e
310 310 310 310 310 309 309 309 309 309 309 309 309 309 309 309 310 317 319 315 315 313 316 317 316 317 318 321 320 320 320 320 320 320 319 317 317 317 317 316 315 317 316 317 318
311 311 311 311 311 311 311 310 310 310 310 310 309 309 309 308 311 317 316 315 311 312 317 317 318 318 319 321 321 320 322 322 319 317 317 316 315 315 315 315 315 314 316 318 318
313 313 314 314 315 314 315 313 313 313 313 312 312 311 309 308 320 316 314 311 311 313 317 317 317 318 319 320 321 321 321 319 317 318 317 317 316 315 314 315 315 314 314 314 316
315 315 315 316 316 317 317 316 316 315 314 313 313 312 310 312 317 314 315 312 312 314 316 316 317 318 319 320 320 319 319 318 319 318 318 317 316 315 314 314 315 314 314 314 313
315 315 316 317 318 319 319 319 318 317 316 315 313 312 311 317 316 314 312 311 312 315 315 316 317 318 318 317 317 318 318 318 317 317 316 316 316 316 315 314 313 314 314 314 313
316 316 318 319 320 321 321 322 320 318 318 317 315 311 316 316 313 317 316 312 314 315 315 316 317 316 317 316 316 316 316 315 315 315 315 315 315 315 314 313 313 313 313 312 312
316 318 319 321 322 322 322 322 320 320 317 312 311 311 316 316 314 316 313 315 315 315 316 316 316 316 316 317 314 315 315 314 314 315 315 315 314 314 313 313 312 312 311 311 312
318 319 321 322 322 323 323 321 320 317 312 310 309 316 316 312 313 311 314 314 314 315 315 314 315 315 316 316 316 315 314 316 316 316 314 313 314 314 313 312 312 313 312 312 311
318 320 322 322 323 323 323 321 319 312 312 310 317 318 316 308 311 311 312 313 314 313 312 312 314 315 315 315 315 314 315 316 317 317 314 314 314 314 313 312 313 313 312 311 311
319 321 322 323 323 323 322 320 315 313 317 315 315 314 311 313 311 310 310 312 313 313 313 314 314 314 313 313 315 317 317 317 316 316 315 315 314 314 313 313 313 311 311 311 309
321 322 323 322 323 322 320 319 320 320 315 320 322 318 321 311 310 311 310 311 313 314 315 314 314 315 316 315 316 315 316 316 315 315 315 315 314 314 313 312 312 311 312 309 308
322 322 323 322 323 321 320 319 314 313 319 320 320 320 315 311 314 311 310 312 314 315 315 315 316 316 316 316 316 315 315 314 315 315 315 314 313 312 312 312 312 313 310 308 306
322 323 324 323 322 321 319 315 314 311 318 321 317 316 314 312 318 314 311 313 314 315 315 316 318 317 316 315 315 315 315 315 315 314 312 313 314 314 315 314 311 310 308 306 305
322 323 324 323 320 321 319 317 314 311 322 322 316 311 310 311 314 307 310 312 316 317 317 317 315 315 316 315 315 315 314 315 314 313 314 314 318 317 315 315 311 309 306 305 304
324 324 323 322 322 322 317 317 314 312 329 318 311 309 309 311 309 309 307 310 314 316 314 317 313 313 314 315 314 316 311 312 312 312 313 315 315 318 316 313 310 308 306 304 302
324 323 321 320 320 319 319 316 315 324 331 318 312 313 311 310 309 309 310 308 309 312 313 313 309 311 313 312 313 310 311 311 310 311 317 317 318 317 314 311 309 308 306 304 302
321 320 319 320 319 318 316 318 327 328 321 321 315 312 313 313 311 310 312 311 313 316 316 315 313 311 310 312 311 311 312 317 319 317 319 317 317 317 313 310 309 308 305 302 301
318 317 318 317 316 316 316 324 327 324 324 319 316 316 320 319 316 312 315 315 314 314 315 318 318 313 309 312 314 314 316 318 318 316 316 316 318 317 312 308 307 305 303 301 300
313 314 313 317 316 316 322 325 324 322 319 320 321 321 320 319 319 317 317 317 316 315 318 315 314 311 311 311 312 314 315 314 315 309 313 316 315 314 310 308 306 304 301 300 300
308 308 310 310 315 317 319 322 319 317 315 317 321 318 318 316 318 317 316 314 314 310 312 317 319 316 311 310 309 311 310 316 316 322 316 315 314 313 313 310 307 303 300 299 297
307 309 309 308 313 314 316 317 316 313 316 316 315 316 316 315 315 316 317 316 315 311 313 314 318 315 313 314 313 310 312 312 313 314 315 315 312 311 310 308 303 300 299 297 296
307 309 309 312 313 314 316 314 311 313 313 314 314 315 316 316 315 315 316 315 313 313 315 313 314 312 313 310 309 310 312 313 315 313 313 315 315 309 306 303 301 300 299 297 296
307 309 308 312 313 313 312 312 311 312 312 313 314 313 312 313 314 313 312 311 311 312 314 313 312 309 306 306 313 315 313 312 312 314 317 317 314 307 304 301 300 302 300 299 296
306 307 309 309 311 311 312 311 311 311 311 311 312 311 312 312 312 311 310 311 310 311 310 310 310 307 306 305 307 307 307 307 310 312 308 308 308 307 308 308 305 302 300 297 295
303 304 307 309 310 310 310 309 310 311 310 309 311 311 311 311 310 310 310 308 309 309 308 308 307 308 308 307 306 305 305 305 306 306 307 305 304 305 305 303 298 295 295 295 295
302 302 301 305 306 310 309 308 308 307 308 308 309 306 307 309 308 306 306 306 306 304 306 304 299 302 298 302 302 302 301 301 301 301 302 303 303 302 296 294 295 295 293 293 291
297 297 300 303 305 307 308 307 307 306 306 304 304 305 304 304 300 300 299 300 302 302 301 300 298 293 295 299 297 293 297 297 297 298 298 299 298 293 294 293 291 290 291 291 291

GFSSW_925_thetae_027.txt.gz
Theta_e
309 309 310 310 309 309 309 309 309 309 309 309 309 309 309 309 309 312 319 317 315 314 315 315 315 316 317 318 318 315 313 314 317 316 315 315 315 314 314 315 314 315 314 314 318
310 310 310 310 310 311 311 310 311 311 312 311 311 311 310 308 310 316 316 314 313 312 316 315 315 316 314 318 317 314 314 317 316 315 316 314 314 313 313 311 311 312 312 314 317
312 312 312 312 313 313 314 313 314 315 314 313 313 312 311 308 318 316 314 312 310 312 317 316 317 316 317 317 318 318 316 316 317 317 316 316 314 313 313 312 311 311 312 311 315
314 314 314 315 316 317 315 317 318 316 316 315 314 312 312 310 312 314 314 311 311 314 316 316 315 316 316 317 317 318 316 317 316 315 315 316 316 314 314 314 311 310 310 311 310
315 315 315 317 318 319 319 320 320 319 318 317 316 313 312 316 314 315 312 311 312 314 315 315 314 315 316 315 313 315 316 316 314 313 312 313 314 314 313 312 311 310 310 309 309
315 315 316 319 320 321 322 322 321 320 320 318 314 312 314 314 314 315 314 311 313 314 314 314 314 314 314 315 314 313 313 313 312 313 312 313 312 314 312 310 310 309 309 308 308
315 316 318 320 322 322 322 322 321 320 319 313 310 311 317 312 314 316 314 314 315 314 314 315 315 315 313 314 314 313 314 311 311 312 312 311 314 313 311 309 310 310 308 308 306
316 317 319 321 322 322 323 323 321 319 313 310 309 315 311 312 313 313 314 313 314 315 314 314 314 313 314 313 313 313 312 313 313 313 313 312 312 312 310 310 310 310 307 307 305
317 318 320 322 322 322 322 321 320 315 312 311 316 317 314 308 310 312 312 313 313 312 313 313 313 313 313 312 312 312 311 312 314 313 312 312 311 311 310 310 310 308 307 306 304
318 319 321 322 322 322 322 320 318 314 318 315 314 313 310 312 310 310 311 312 312 312 311 312 310 310 309 310 312 313 313 314 314 314 313 313 310 310 310 310 311 308 304 304 303
318 320 322 322 322 322 320 319 318 318 315 317 316 312 316 310 310 310 310 311 312 312 312 311 310 311 310 310 310 313 314 314 312 312 312 312 312 311 310 309 309 306 305 304 303
319 321 322 323 322 321 319 316 315 315 318 316 317 318 313 312 313 310 310 310 311 312 312 312 312 312 311 313 313 313 314 313 312 313 313 311 311 310 310 310 309 306 304 303 302
321 321 322 323 322 321 318 316 315 312 316 318 315 316 312 313 315 311 309 310 311 312 312 313 313 313 314 314 314 313 314 313 313 312 310 310 311 311 311 307 306 305 304 303 302
321 321 322 323 321 321 318 317 315 313 319 320 315 309 309 310 313 307 309 311 313 313 313 313 312 314 314 315 313 315 312 313 313 311 311 311 313 314 312 309 306 304 302 301 300
322 322 323 323 321 320 318 317 315 312 324 315 310 309 308 311 309 308 307 309 313 314 312 316 312 312 313 313 312 313 310 311 311 310 311 311 312 312 309 309 307 304 302 300 299
323 324 324 322 321 319 318 317 315 321 327 315 309 311 309 308 308 307 308 307 308 310 311 311 308 310 311 311 311 309 310 310 309 308 313 313 314 314 311 309 307 304 301 299 298
324 324 322 320 320 319 318 316 324 327 321 316 313 310 311 310 309 309 309 308 310 313 312 312 311 310 310 310 309 309 310 314 313 312 314 313 313 313 311 308 307 303 300 298 296
323 321 319 319 317 317 316 323 326 324 323 316 312 311 318 311 312 309 311 312 309 312 312 315 316 310 309 311 312 310 313 313 312 314 311 312 314 313 306 304 302 301 299 298 297
317 316 317 316 315 315 321 325 325 321 319 320 318 320 319 318 316 313 312 313 312 311 314 314 313 309 310 310 311 313 314 312 314 302 308 313 313 309 306 303 301 300 299 298 298
315 311 312 315 317 317 320 322 320 317 314 316 321 317 317 317 317 315 315 312 311 310 312 316 316 314 309 310 309 311 310 314 311 310 311 314 312 311 309 304 301 300 298 297 295
310 312 310 311 312 313 316 319 317 314 314 315 316 316 314 314 316 315 315 315 312 310 312 314 315 314 312 313 313 310 311 311 312 313 312 310 310 310 309 303 300 298 297 295 294
307 312 308 311 312 312 314 315 312 312 313 314 313 314 315 314 315 313 314 313 311 310 312 312 313 310 313 309 308 309 310 311 312 311 309 313 313 308 304 301 300 299 298 296 294
308 308 308 312 312 313 312 314 312 311 312 313 313 312 312 313 315 313 312 309 310 311 312 312 309 303 305 306 311 313 311 309 309 312 313 314 310 305 302 301 300 299 297 296 293
306 309 308 311 310 311 313 312 312 310 310 311 312 312 312 313 311 311 310 310 309 310 310 309 310 304 305 302 307 307 306 305 308 307 302 304 304 304 302 303 302 300 300 297 293
304 305 306 310 311 311 310 311 311 311 310 309 310 310 311 311 311 311 310 309 309 310 308 307 305 307 307 306 304 305 304 304 304 304 305 304 303 302 301 298 298 295 296 296 293
302 302 300 304 308 310 309 309 309 309 310 309 309 310 309 310 307 305 305 305 306 306 306 304 299 301 296 302 302 301 301 301 301 300 300 300 300 299 295 294 293 292 292 291 290
297 297 300 302 303 309 309 309 307 306 305 305 307 307 305 302 300 299 298 299 301 301 301 300 298 291 293 298 295 293 296 297 297 297 296 296 295 290 294 293 290 289 290 290 290

GFSSW_925_thetae_030.txt.gz
Theta_e
309 309 309 309 309 309 309 309 309 310 310 310 310 310 310 309 309 310 315 316 314 313 314 314 315 316 317 316 316 311 311 313 316 315 314 312 313 312 311 313 312 314 313 312 315
309 310 310 310 310 310 310 311 312 313 313 312 312 312 312 311 309 316 315 314 313 312 315 315 315 315 313 317 316 311 310 313 314 314 316 314 314 313 313 310 311 310 311 313 315
311 311 311 311 312 312 312 314 316 316 315 314 314 313 313 311 314 315 315 313 311 313 315 316 316 315 316 316 317 315 313 314 316 315 314 315 313 313 314 313 310 311 310 311 314
312 312 312 313 315 316 315 317 319 319 318 317 316 315 312 311 313 313 313 310 311 314 316 315 314 315 315 315 315 317 315 315 316 315 314 315 314 314 313 313 312 310 309 309 308
313 313 314 315 317 318 318 319 321 321 320 319 317 315 312 314 312 316 312 311 312 314 314 314 314 314 315 314 313 315 314 314 314 311 311 312 312 312 312 310 308 307 308 306 305
314 314 315 317 319 320 321 322 322 321 320 319 315 313 314 313 315 315 313 311 312 314 313 314 313 312 314 314 313 312 313 312 311 311 311 312 311 312 311 310 309 308 306 304 304
315 315 316 318 320 321 322 322 322 321 319 315 311 311 317 311 314 316 314 312 314 313 313 314 314 314 313 313 312 313 313 310 310 311 311 310 313 312 310 308 308 307 304 303 302
316 315 317 319 321 322 322 322 322 320 315 311 309 314 309 312 314 314 315 314 315 314 314 314 314 312 313 312 311 312 311 311 312 312 312 311 313 311 309 309 309 305 302 302 301
316 316 318 320 322 322 322 322 320 318 313 312 316 315 312 309 310 312 313 312 313 312 312 313 313 312 311 310 309 310 310 311 312 312 313 311 311 310 309 309 307 304 302 302 301
316 317 318 321 322 322 322 320 318 315 316 314 315 314 310 309 310 310 311 312 311 310 310 311 307 309 307 308 310 311 312 311 313 313 312 312 310 309 309 309 307 302 301 301 300
317 317 319 321 322 322 321 319 317 318 317 316 313 311 311 310 310 310 311 311 311 311 309 311 309 308 308 309 308 310 312 312 311 311 311 311 311 310 309 308 304 302 302 301 300
317 318 320 322 322 322 320 316 316 315 318 315 315 316 312 311 312 310 310 310 311 311 310 311 310 309 309 309 310 311 312 312 311 310 312 310 310 309 307 307 304 302 302 301 299
318 319 320 321 323 322 319 317 316 313 317 317 315 317 313 313 315 312 308 308 310 310 311 312 313 311 312 312 313 312 312 312 313 311 309 310 311 311 306 305 304 302 301 299 298
318 320 320 321 322 321 317 317 316 315 318 319 316 310 309 311 314 307 308 309 310 311 310 311 310 313 313 314 313 315 311 312 312 311 313 309 311 310 309 306 304 301 299 298 296
320 320 320 321 321 319 318 317 316 313 324 316 311 308 307 313 308 307 307 309 313 313 312 315 312 312 313 313 311 314 310 310 310 310 309 309 309 308 307 307 304 300 299 297 296
321 321 321 322 322 319 317 317 316 322 327 314 308 309 308 307 307 306 308 307 308 310 310 311 308 309 310 310 310 309 309 309 306 307 311 309 310 312 310 309 304 300 298 297 295
322 322 322 322 321 319 317 317 322 327 319 314 311 309 309 308 307 307 308 307 308 310 311 311 310 309 309 310 309 308 310 314 311 310 314 311 311 312 306 306 304 300 297 295 294
322 323 323 322 321 321 317 322 325 321 321 313 310 309 311 309 309 307 308 309 307 310 311 314 317 309 308 309 311 308 311 312 309 313 312 309 312 310 303 301 300 298 297 296 294
322 320 317 319 316 316 321 324 326 322 320 315 315 316 318 313 312 309 308 309 311 307 314 313 314 308 308 309 310 312 313 310 312 297 307 312 310 307 303 301 299 299 298 297 295
316 314 314 315 315 317 322 323 323 318 316 318 319 318 318 318 317 311 312 311 312 309 311 313 316 313 310 310 308 310 308 312 309 309 311 311 311 311 305 302 300 299 298 297 295
314 315 312 314 315 316 322 320 319 315 313 316 318 318 316 315 316 313 314 313 309 310 312 313 312 312 311 312 312 309 310 310 310 308 307 306 308 307 306 302 300 299 297 295 294
310 316 310 313 315 314 317 316 314 312 313 314 313 313 312 312 313 312 313 313 308 310 313 311 313 308 312 308 307 309 308 309 309 308 307 310 309 307 305 302 300 298 297 295 293
311 308 309 311 318 314 313 315 313 313 313 314 314 313 312 314 315 312 311 309 308 310 311 310 307 301 305 305 309 309 309 307 308 307 304 310 309 304 301 300 298 299 296 295 293
307 309 308 310 310 312 314 315 316 312 312 311 312 312 311 312 311 310 311 309 309 310 310 309 307 306 308 302 307 307 306 305 307 305 304 308 306 304 302 301 299 298 297 295 292
305 308 307 310 312 312 313 313 315 313 311 311 311 312 312 312 312 311 308 309 308 310 308 309 311 307 306 306 305 306 306 304 305 304 303 302 300 301 299 298 295 296 297 297 293
303 303 302 307 310 311 312 312 312 312 311 310 311 310 310 311 309 309 309 308 308 308 307 303 302 302 299 302 303 303 303 301 302 302 302 302 301 299 296 294 294 293 294 295 292
297 297 301 303 307 311 309 309 310 308 306 307 309 307 308 308 303 300 300 300 303 304 303 303 299 295 298 296 294 293 295 297 296 297 296 296 296 290 294 294 292 291 289 289 289

GFSSW_925_thetae_033.txt.gz
Theta_e
309 309 309 309 309 309 309 309 310 311 312 311 311 311 311 311 311 310 311 315 314 312 314 314 315 316 316 315 314 308 309 310 314 314 314 312 313 312 309 312 311 312 312 311 314
309 309 309 310 310 310 310 311 313 314 314 313 314 313 313 313 312 314 315 314 313 313 314 314 314 315 311 316 314 309 307 310 311 313 315 314 313 312 312 311 311 311 309 312 313
309 309 310 310 310 311 312 313 316 317 317 316 316 315 314 312 313 313 315 314 313 313 315 315 315 314 315 315 316 313 311 311 315 313 314 314 313 312 313 312 310 310 309 308 311
308 309 310 311 312 314 315 316 318 320 320 319 318 316 314 312 317 313 313 310 310 313 315 315 313 314 313 315 314 317 315 314 315 314 313 314 313 313 313 312 311 308 306 306 302
311 311 312 313 314 317 318 319 321 321 320 319 319 315 312 313 312 315 312 310 311 314 314 313 313 313 314 313 312 315 314 313 313 311 310 311 312 312 310 309 307 306 304 303 302
314 314 314 314 316 318 320 321 321 322 321 319 317 312 313 312 315 315 313 311 312 314 313 313 311 311 313 313 312 311 312 311 310 310 310 311 310 310 311 309 306 304 303 301 300
315 315 314 315 317 320 321 322 322 322 320 317 312 311 315 311 314 316 315 312 312 313 313 313 313 313 312 312 311 312 312 309 309 310 310 308 312 311 310 307 305 303 301 300 299
316 315 315 316 318 321 322 322 322 321 319 313 309 314 310 311 314 315 315 314 314 314 314 313 313 312 313 311 309 311 310 310 310 311 311 311 313 312 309 306 306 301 299 300 299
316 316 315 317 319 321 322 321 321 319 315 313 315 314 312 309 312 313 313 312 312 312 312 313 312 310 310 308 307 308 309 310 311 311 311 311 312 310 308 308 303 300 300 299 298
317 316 316 317 319 322 322 321 318 316 314 314 315 313 311 309 310 310 311 312 310 309 310 310 306 308 306 306 311 309 310 309 310 312 311 312 310 309 308 308 302 300 299 298 298
317 317 316 318 320 322 322 319 316 317 317 315 312 312 310 309 309 309 311 311 310 308 308 309 307 307 308 308 308 309 309 311 310 310 312 311 310 309 307 302 301 300 299 298 298
317 316 317 318 321 322 321 317 316 315 318 315 314 311 311 310 311 309 310 310 310 310 309 309 308 307 307 307 309 309 311 311 310 309 310 310 310 308 304 303 301 300 299 298 297
317 316 317 320 321 322 321 318 317 315 317 317 314 316 313 311 314 312 308 308 310 309 309 310 312 310 310 310 311 311 311 311 312 310 309 309 310 310 304 302 301 299 298 297 295
317 317 318 319 322 322 318 321 317 315 318 318 316 312 309 312 315 307 308 309 309 310 309 310 310 312 311 312 311 315 310 311 312 311 314 308 312 307 306 304 301 299 296 295 294
317 317 319 319 320 317 319 318 317 313 325 316 312 308 307 314 308 307 306 309 311 311 310 314 312 311 312 312 311 314 309 310 310 309 308 308 309 306 305 306 302 298 297 295 294
318 318 319 320 321 320 317 317 315 321 325 314 308 308 309 306 307 306 307 307 308 311 309 311 308 309 311 308 309 308 308 308 306 306 311 309 310 310 309 307 302 299 296 295 294
319 319 320 321 321 321 316 315 323 327 318 315 310 307 308 307 307 307 308 308 310 314 313 311 310 309 308 309 308 308 310 313 312 311 315 309 310 309 305 303 303 299 296 294 293
320 320 320 321 322 322 314 321 325 323 320 311 309 308 309 307 307 307 307 309 305 308 309 312 316 309 307 309 309 307 310 313 310 311 311 309 313 310 302 299 299 297 295 294 293
320 320 321 321 321 319 320 326 324 322 318 312 312 311 311 310 309 307 306 307 307 306 315 312 314 308 307 308 309 309 311 308 310 294 306 311 309 305 301 300 298 297 295 294 293
319 320 320 320 321 315 323 326 323 320 318 312 315 314 314 316 312 308 307 308 312 306 309 311 315 310 309 308 307 309 307 312 308 308 310 310 310 309 304 301 299 298 297 296 294
314 317 314 318 317 319 325 325 321 318 314 316 316 318 316 317 314 309 312 312 309 309 310 311 312 312 311 311 310 309 310 309 309 307 305 304 306 304 305 302 300 299 297 296 295
312 319 312 314 319 318 324 320 317 314 313 314 313 315 315 313 316 313 313 312 307 310 313 312 311 310 311 307 305 307 308 309 312 309 306 307 310 304 303 301 299 299 298 295 294
312 310 309 311 321 316 314 316 314 313 315 316 316 313 312 312 315 311 310 308 307 310 311 310 309 304 308 306 308 308 307 306 306 303 301 308 308 303 301 300 299 299 297 295 293
308 312 309 310 311 314 316 316 317 313 314 314 315 312 312 313 312 310 310 309 308 310 310 310 307 309 315 307 307 307 306 305 304 307 305 308 308 305 303 301 299 298 297 296 294
308 310 309 310 311 313 315 315 316 315 313 313 313 315 315 313 312 311 309 309 307 309 308 308 306 306 305 304 305 305 305 304 304 305 308 307 307 304 302 301 298 295 293 295 293
304 306 303 309 311 312 313 315 316 316 313 313 315 314 313 314 312 311 309 308 308 306 306 303 305 302 300 305 306 307 305 304 305 304 303 303 303 300 297 294 293 292 293 295 295
297 298 301 307 311 313 313 314 314 314 311 310 312 311 313 312 306 302 303 303 306 305 304 303 302 303 309 297 297 300 298 302 302 300 301 301 301 290 293 293 292 291 290 291 292

GFSSW_925_thetae_039.txt.gz
Theta_e
308 308 308 309 309 309 309 310 312 314 314 314 315 315 315 315 314 314 310 313 313 312 312 313 314 314 315 312 309 304 307 308 311 311 312 311 313 311 308 310 309 309 308 304 306
308 308 309 309 310 310 310 311 313 315 316 317 317 317 316 315 314 312 313 314 312 312 313 313 313 312 311 314 311 307 306 307 308 309 313 312 312 312 311 311 311 309 305 304 305
308 308 309 309 310 312 313 313 316 316 318 319 318 318 316 314 313 311 314 313 312 313 313 314 313 312 312 313 313 309 308 307 312 311 312 312 312 310 312 312 310 310 304 302 302
309 308 308 309 311 313 315 316 317 318 319 319 319 318 316 313 317 313 312 311 312 313 315 313 311 311 310 312 313 314 312 311 313 312 312 313 311 312 311 310 304 302 301 300 300
309 309 309 309 311 313 315 318 319 320 320 320 319 317 314 312 313 315 312 310 311 314 313 311 312 311 311 311 311 315 313 311 311 310 310 309 311 311 308 302 301 301 300 299 298
309 310 310 311 312 313 316 318 320 320 320 320 319 315 312 315 314 315 312 310 311 313 312 312 310 310 310 311 311 310 310 310 309 310 309 310 309 309 305 301 301 300 299 298 297
312 312 313 313 313 314 316 319 320 320 320 319 316 312 311 313 314 315 314 311 311 312 311 312 311 311 310 310 309 309 311 308 308 308 309 307 310 309 305 302 301 299 298 297 296
313 313 314 314 314 314 316 319 321 321 320 318 311 312 312 312 312 316 313 312 312 312 312 312 312 309 310 307 306 309 307 312 309 309 309 309 314 307 303 304 302 299 298 297 296
314 315 315 315 315 315 317 320 321 320 317 316 315 312 314 309 313 314 313 312 312 311 311 311 310 308 308 308 309 306 313 309 309 309 310 310 313 306 304 303 301 299 298 297 296
315 316 316 316 315 315 318 321 321 318 315 314 315 313 311 310 309 312 312 312 309 309 310 308 304 307 305 308 315 312 309 307 309 310 310 310 310 306 301 302 300 298 297 296 295
316 317 317 316 316 316 319 321 316 315 316 314 314 314 310 308 309 309 310 310 307 306 310 307 309 311 309 307 309 308 308 310 309 309 311 310 309 309 301 300 299 298 297 296 295
317 317 317 317 316 317 319 317 316 314 317 314 314 310 310 309 308 307 310 309 308 308 307 307 308 308 306 307 308 307 308 308 307 308 309 309 309 307 303 301 300 298 297 296 294
317 318 318 317 316 318 320 320 317 314 317 316 313 314 312 309 310 308 307 307 307 307 306 308 311 305 307 306 308 306 308 307 310 309 308 308 310 306 302 300 299 298 296 294 294
318 318 318 317 317 318 319 319 320 315 318 317 316 315 309 309 314 307 308 308 308 309 306 308 308 309 307 308 306 308 306 307 309 311 314 307 314 309 304 302 300 298 295 294 293
318 318 318 316 318 318 318 319 321 314 319 314 314 308 309 315 309 307 306 308 308 309 310 315 309 310 311 311 307 311 307 308 309 310 309 308 310 308 304 305 301 298 295 294 293
319 318 318 317 318 319 319 320 315 319 323 317 308 308 312 308 306 305 307 306 306 309 309 311 307 308 310 308 308 305 306 306 304 306 311 310 311 310 307 306 302 298 296 294 293
320 319 319 317 318 319 314 314 322 325 316 313 311 308 313 307 307 308 308 308 311 314 313 310 309 307 306 307 306 307 309 313 314 313 316 306 308 310 306 304 303 300 297 294 293
322 320 319 317 318 319 313 321 325 320 318 308 308 308 314 307 307 307 308 310 308 310 312 315 317 308 305 309 309 307 310 315 316 313 310 307 311 310 303 299 298 298 296 294 292
321 319 318 317 318 318 318 325 322 319 317 310 308 309 309 307 307 306 307 309 310 307 317 314 315 307 305 305 307 308 310 307 307 294 308 310 308 306 301 299 297 297 295 295 293
318 319 319 317 318 317 320 323 320 317 312 310 318 311 311 308 307 306 306 306 309 307 308 311 315 308 306 306 306 308 307 312 309 312 312 311 310 310 306 303 297 296 297 295 293
318 320 319 318 318 320 321 320 319 317 313 312 317 316 310 310 309 306 307 307 306 307 308 309 312 311 308 308 309 309 310 308 309 309 311 309 309 303 305 302 299 297 296 295 294
318 322 315 318 320 322 322 318 317 319 315 315 314 315 310 312 310 307 307 307 305 306 310 309 311 311 310 306 304 307 308 308 313 310 304 307 311 303 302 301 299 298 297 295 294
316 314 312 318 323 322 321 320 317 318 320 319 317 314 312 315 315 309 306 307 306 308 310 310 312 310 312 309 306 308 306 306 306 306 305 311 310 302 300 299 297 298 296 295 294
312 316 311 311 312 320 320 321 322 316 318 317 317 313 313 315 314 315 310 309 306 308 310 311 310 314 321 314 309 310 307 306 309 306 310 311 308 305 303 301 298 297 296 295 295
312 314 311 314 317 317 318 318 320 319 315 316 316 317 317 320 318 317 310 309 309 310 309 311 317 308 307 305 308 309 308 306 308 310 312 312 309 305 306 304 300 299 295 295 294
308 309 307 309 313 316 317 317 316 318 315 316 319 317 318 321 321 321 315 310 312 307 309 307 315 308 309 305 305 306 306 306 307 308 309 307 307 303 302 298 298 297 296 295 294
298 299 307 310 312 315 316 315 315 314 314 314 314 314 315 316 311 308 306 307 309 310 309 309 307 311 316 303 305 312 306 304 304 301 307 307 307 296 299 299 298 297 296 297 293

GFSSW_925_thetae_042.txt.gz
Theta_e
308 308 308 309 309 309 309 310 312 313 314 316 316 316 316 315 315 314 313 313 313 313 312 313 314 315 317 318 314 312 316 318 318 318 318 316 316 314 313 315 314 313 312 308 307
308 308 308 309 309 309 310 311 313 314 316 317 318 317 317 316 314 314 313 314 312 312 313 314 316 315 317 318 317 316 316 315 316 316 317 316 316 316 316 316 314 313 309 307 307
309 308 308 308 309 310 311 311 313 315 317 318 318 318 317 314 316 313 314 314 312 312 313 314 314 315 316 317 317 315 315 312 314 315 316 317 316 315 316 316 315 315 311 307 307
309 309 308 309 309 311 312 312 314 316 318 319 319 318 317 314 320 312 312 313 312 313 314 314 315 315 316 315 317 316 315 314 316 315 315 316 316 316 315 314 309 309 307 306 306
310 310 309 309 310 311 313 315 317 318 319 319 319 317 315 317 318 315 312 310 312 313 315 315 314 315 315 315 316 318 316 315 315 314 315 313 315 315 313 308 306 305 305 306 305
311 311 310 309 310 312 313 316 318 319 319 319 319 316 314 320 314 315 312 310 311 313 313 313 314 314 314 315 315 314 314 314 314 313 313 314 314 312 308 307 307 306 305 304 303
312 312 311 312 312 312 313 316 318 319 320 319 316 314 314 319 315 315 312 311 311 313 313 312 312 315 314 315 312 313 315 315 314 312 313 312 313 313 309 308 307 305 304 303 301
313 313 312 312 313 313 314 316 319 320 319 318 314 312 318 312 313 316 313 311 312 312 311 311 312 313 314 311 312 314 314 319 314 312 311 313 320 312 308 309 308 306 304 303 301
313 313 313 314 314 314 315 317 320 320 318 317 315 313 319 310 314 315 313 313 311 311 311 311 312 314 313 316 316 314 321 317 316 312 313 314 318 311 308 309 309 307 304 303 302
313 314 315 315 315 315 315 318 320 319 316 315 315 317 313 312 310 313 312 311 312 312 313 314 313 315 313 316 322 321 318 315 317 314 313 315 316 311 308 309 309 306 304 302 302
315 315 315 316 316 315 316 320 319 319 316 319 318 317 311 308 309 310 310 310 311 313 316 312 316 317 318 317 316 316 316 318 314 312 314 317 317 315 309 308 308 306 304 302 301
315 316 316 317 316 316 318 321 317 315 320 317 316 313 309 308 310 309 309 313 313 315 311 313 316 317 313 312 313 313 316 317 314 311 313 315 315 315 309 309 308 306 304 302 300
316 315 316 317 317 316 318 320 317 315 321 319 317 318 313 309 313 311 310 310 312 311 313 317 316 312 312 311 313 314 315 316 316 312 311 313 316 316 309 306 304 304 303 301 301
317 316 317 318 317 317 318 317 316 315 321 320 318 318 310 312 314 308 309 311 310 313 311 313 311 310 311 312 313 316 312 312 312 314 320 312 323 317 312 308 305 303 302 301 300
318 318 317 318 317 317 317 317 319 315 326 318 316 309 309 317 313 309 307 310 313 312 312 316 311 313 314 314 311 317 311 312 313 315 315 315 318 319 309 310 307 304 302 301 300
319 318 318 318 317 318 317 319 318 322 325 319 311 313 315 311 309 307 309 308 310 312 311 315 309 312 314 310 311 309 310 310 311 314 320 319 318 321 314 312 310 305 302 301 299
321 319 318 318 317 318 318 315 324 327 317 316 316 313 317 312 310 310 311 312 317 319 320 315 313 309 308 313 308 311 316 322 322 320 323 310 315 319 314 308 309 306 303 300 298
322 320 319 318 317 317 313 321 325 322 320 311 310 314 319 312 311 310 312 316 314 316 318 322 323 312 309 316 315 312 317 323 327 322 320 309 316 316 308 305 304 305 303 300 298
317 318 318 318 317 317 318 324 323 321 320 314 310 316 318 311 313 311 314 316 316 313 321 320 320 309 307 308 313 312 314 313 312 305 319 316 313 311 305 304 303 303 301 299 298
314 318 318 318 317 314 321 322 321 319 315 315 320 318 319 314 314 314 313 313 314 313 313 317 321 309 307 308 308 311 312 315 315 324 326 318 316 319 310 308 304 302 301 300 299
313 319 318 318 316 318 321 320 320 318 316 317 319 319 317 314 316 314 316 311 313 312 313 312 315 313 309 311 314 311 312 312 314 317 327 324 318 312 313 310 306 304 303 301 299
312 318 318 317 320 320 320 319 317 319 315 317 317 319 315 313 314 314 315 315 309 311 313 314 315 318 313 308 306 311 313 313 319 316 312 315 320 306 307 307 307 305 303 302 299
314 316 314 318 323 321 319 318 318 319 320 320 319 317 315 314 316 313 313 309 308 311 315 313 317 324 318 311 307 310 310 311 313 314 321 323 320 306 305 305 304 305 302 301 299
312 312 312 311 318 320 318 320 319 317 318 319 320 316 315 318 315 319 314 310 308 310 312 313 317 321 325 320 314 313 312 311 313 319 319 318 319 309 308 307 304 303 302 301 300
312 313 313 317 317 320 318 318 320 321 317 318 319 320 320 321 320 320 318 311 309 309 311 313 319 318 317 314 313 314 314 311 313 314 319 318 315 311 309 307 307 305 303 301 300
312 312 307 313 314 318 318 319 319 320 318 319 321 319 320 321 321 323 320 316 317 310 311 310 319 316 317 313 310 313 313 312 312 313 314 315 314 311 309 307 305 304 302 301 301
299 300 308 311 313 316 316 317 315 316 315 316 317 319 318 319 314 309 309 311 312 313 312 313 316 316 321 317 310 312 313 312 312 312 313 314 314 307 306 306 306 305 302 302 301

GFSSW_925_thetae_045.txt.gz
Theta_e
308 308 308 309 309 309 309 310 311 312 314 316 317 317 317 316 315 317 317 316 316 313 312 315 316 317 318 319 318 317 317 318 319 319 320 318 318 317 317 318 317 315 315 312 311
308 308 308 309 309 309 310 310 312 313 315 317 318 318 317 316 317 317 314 314 312 312 315 315 316 316 318 319 319 319 318 317 317 318 319 318 318 318 317 317 316 315 313 311 312
310 309 308 308 308 309 310 310 312 314 316 318 319 318 317 315 320 317 314 314 312 312 314 315 316 316 317 318 318 318 317 315 316 317 319 318 318 317 317 318 317 317 314 312 312
311 310 309 308 308 309 310 310 312 314 317 318 319 318 317 317 321 316 311 313 312 313 315 316 316 316 317 317 318 318 316 315 317 317 318 318 318 317 317 317 313 313 311 311 311
311 310 310 309 309 309 310 311 313 315 317 319 319 318 317 320 321 314 312 311 312 314 316 316 315 316 317 316 317 318 317 317 317 317 317 317 317 317 316 313 311 309 310 310 309
312 311 310 310 310 311 311 312 314 317 318 319 319 317 317 321 315 315 312 310 314 315 315 315 315 316 316 316 317 317 317 317 317 317 316 316 316 315 315 312 311 310 310 309 307
313 312 312 311 312 312 313 314 316 318 319 319 317 314 318 321 317 315 312 312 313 314 315 315 315 315 316 317 315 316 316 317 317 316 316 315 316 315 314 311 311 310 309 307 306
315 313 313 313 313 313 313 314 316 319 319 318 317 315 320 315 318 316 314 313 312 313 314 313 314 316 317 315 315 317 317 321 319 315 315 315 321 317 312 312 312 311 310 307 305
316 314 313 313 313 314 314 314 317 319 319 317 318 317 320 311 316 317 315 315 313 313 312 312 315 316 315 317 319 319 322 323 320 316 316 316 321 315 312 312 314 312 310 308 306
316 316 313 314 315 315 314 315 318 319 318 316 315 318 316 315 313 314 313 313 314 314 314 315 316 316 317 319 322 323 322 321 321 317 315 317 318 315 312 312 314 313 310 308 306
315 316 314 315 315 315 315 320 319 321 319 320 321 320 315 309 311 313 312 313 314 315 317 316 317 319 320 319 320 320 321 321 321 316 316 318 318 319 314 312 314 313 311 308 306
316 315 315 315 316 316 317 319 319 316 321 320 320 318 312 311 312 313 311 315 315 318 317 316 318 319 319 319 319 318 320 320 321 315 315 318 319 319 318 314 314 313 311 308 304
318 315 316 315 317 316 317 319 318 315 321 319 320 319 316 311 316 314 312 315 315 317 317 319 319 316 316 317 317 318 319 320 320 316 314 316 319 319 318 315 312 311 310 307 305
320 317 315 315 317 317 317 318 317 315 321 318 320 321 314 314 316 313 312 313 312 317 317 317 318 315 316 317 317 320 318 317 317 317 322 317 323 322 321 315 311 309 308 306 305
321 318 316 316 317 317 317 317 318 318 323 319 319 313 315 318 315 310 310 311 316 315 315 318 314 314 316 317 316 318 315 316 317 318 320 321 320 321 319 317 314 310 307 305 304
322 319 317 316 318 318 317 318 320 322 322 321 315 317 316 317 313 309 309 310 313 315 313 316 313 314 316 313 314 314 315 315 315 318 324 321 322 323 321 317 315 309 306 305 303
320 320 317 317 318 317 317 320 323 323 318 318 318 317 319 318 313 312 312 312 316 317 319 317 316 315 313 315 312 315 318 326 326 323 326 317 323 322 321 313 315 310 306 305 303
318 319 318 318 318 317 318 322 325 319 319 316 316 317 320 315 315 313 313 315 314 317 321 323 325 318 313 319 321 316 320 326 332 329 326 311 320 320 315 311 308 309 307 304 302
315 315 318 318 318 317 319 322 322 319 319 319 317 320 321 316 316 314 315 318 318 317 321 324 325 316 314 315 319 317 319 319 320 313 318 319 316 316 309 307 307 309 306 304 302
313 314 316 318 317 316 321 321 321 319 318 320 321 319 323 320 317 317 319 319 320 317 318 322 325 314 311 310 311 315 315 318 318 327 329 324 321 320 312 310 307 308 306 303 302
313 315 317 318 315 318 321 319 320 319 319 320 321 320 319 322 318 318 322 319 318 317 316 319 320 316 310 313 316 313 315 316 317 321 331 328 322 317 318 312 308 307 305 303 302
313 316 316 318 318 320 320 319 316 320 319 320 319 320 321 320 319 319 320 320 315 315 316 318 320 326 317 313 312 315 316 316 320 322 318 320 323 308 313 314 310 307 305 304 302
314 313 311 318 322 321 318 318 318 319 320 321 320 320 320 320 319 320 319 318 314 315 318 316 321 327 324 313 310 312 313 315 316 317 323 325 323 309 309 310 309 309 307 305 303
313 313 313 313 316 320 318 318 319 317 319 319 320 319 320 322 319 321 321 312 313 314 315 316 319 324 329 324 318 315 313 313 315 319 320 322 321 310 310 309 308 308 307 305 303
311 309 312 316 314 316 319 318 320 320 317 318 320 320 321 322 322 321 319 312 310 310 313 317 321 321 321 321 320 317 316 314 314 315 319 320 319 318 311 310 309 307 306 305 303
308 311 310 313 314 316 317 318 319 319 319 319 320 320 320 322 322 324 322 319 316 310 311 313 319 319 321 320 320 320 318 316 314 314 315 316 318 317 315 310 309 308 306 305 304
303 301 306 312 313 315 312 314 318 317 318 318 318 319 320 319 320 317 314 317 318 316 312 312 314 317 322 319 319 315 317 316 316 314 315 316 316 311 311 309 308 307 306 305 304

GFSSW_925_thetae_048.txt.gz
Theta_e
308 308 308 309 309 309 310 310 311 312 314 316 317 317 317 317 316 319 320 317 314 312 313 315 316 317 318 319 318 317 318 318 319 319 319 317 317 317 316 316 314 313 313 312 312
309 309 309 309 309 310 310 310 311 313 314 316 317 318 318 317 317 320 316 313 313 312 315 316 317 316 317 319 319 318 320 318 316 317 318 317 317 316 316 316 314 312 311 312 313
309 309 309 309 309 309 310 311 311 313 315 316 318 318 318 316 322 318 313 313 312 312 314 315 316 316 317 317 318 318 318 315 315 318 317 317 317 317 317 317 314 315 311 312 312
310 310 309 309 308 309 310 311 313 314 315 317 318 318 317 318 322 317 311 313 312 312 315 316 316 316 316 318 318 317 316 315 318 317 318 318 318 317 316 313 312 310 311 311 310
310 310 310 310 309 309 309 311 313 315 316 317 318 318 318 320 321 314 311 312 312 314 316 317 315 316 317 317 317 317 317 316 317 317 316 317 317 316 315 310 309 310 311 309 308
313 311 311 311 311 310 310 311 312 314 316 317 318 316 320 321 317 316 313 311 315 315 316 316 315 315 316 316 316 317 317 316 317 317 316 316 316 314 314 309 309 310 309 307 307
316 313 312 312 312 312 312 312 312 314 316 317 318 316 319 320 319 315 312 313 313 315 316 315 315 315 316 317 315 316 316 316 315 315 316 315 315 314 313 310 310 309 307 307 306
317 316 313 313 313 313 313 313 313 315 316 318 318 318 319 316 319 316 314 313 313 313 315 314 315 316 317 315 316 316 317 319 319 315 314 315 318 317 310 310 310 308 306 306 305
315 316 316 313 313 313 313 314 314 315 317 318 318 319 320 313 316 317 315 314 313 313 313 313 316 316 315 315 317 318 319 320 318 315 314 313 319 313 310 310 310 309 308 306 304
317 315 315 314 313 314 314 314 314 316 318 317 317 318 316 316 315 316 315 314 314 314 314 315 315 315 315 315 319 320 320 320 320 315 315 314 314 313 310 310 310 309 308 306 305
319 317 315 316 314 315 314 319 321 320 319 320 319 319 316 310 313 314 313 314 315 315 316 316 315 317 316 316 317 318 319 319 320 315 316 315 315 315 311 310 309 310 308 306 305
322 318 316 315 315 316 316 319 319 315 320 319 319 319 314 311 312 314 313 314 315 317 316 316 317 317 318 318 318 318 318 318 318 314 314 315 315 316 313 311 310 311 309 306 302
324 320 316 315 315 316 317 317 319 315 321 316 320 320 317 311 315 314 312 314 315 317 317 318 318 317 317 318 318 318 318 318 319 315 314 313 314 315 315 314 311 311 309 306 302
323 322 317 316 315 316 316 314 318 315 319 314 320 321 316 314 316 313 312 314 315 317 317 317 317 316 317 317 317 318 317 317 318 317 318 314 319 319 317 316 312 310 308 304 302
321 321 319 314 317 316 316 316 316 317 319 317 318 316 314 317 314 311 311 312 315 314 317 318 315 315 317 317 316 317 315 316 317 316 317 317 319 319 318 318 314 310 307 304 302
319 321 321 316 316 317 317 316 319 322 318 320 315 317 316 317 312 309 310 310 312 315 314 315 313 314 316 312 314 314 315 315 316 317 320 319 320 320 320 317 316 310 307 304 302
316 317 318 317 316 317 317 319 319 322 315 317 318 317 318 318 314 312 312 311 315 317 317 315 314 314 313 314 312 315 317 322 322 320 322 317 319 320 318 315 314 311 308 304 301
313 316 317 317 316 317 318 321 319 319 318 318 318 318 320 319 316 313 312 313 312 315 318 318 320 316 312 316 317 314 317 322 324 325 322 311 317 317 311 308 310 309 306 303 301
311 313 315 317 317 317 319 320 320 320 318 317 318 320 320 317 316 314 313 315 314 313 317 320 321 314 313 314 316 316 317 318 319 307 314 318 315 314 309 308 308 306 305 303 301
310 313 314 316 318 316 321 319 317 317 318 317 319 320 322 319 317 315 316 316 317 314 314 321 325 315 309 311 312 315 314 317 316 318 322 321 320 319 312 309 306 306 305 303 301
309 315 313 314 317 318 322 319 317 317 317 318 318 318 319 321 317 315 319 318 316 315 314 318 321 313 310 312 315 313 314 315 317 318 321 322 321 316 315 311 307 307 305 303 301
310 315 312 316 321 319 321 319 316 318 318 319 319 318 318 318 319 318 318 319 316 316 316 317 320 316 313 312 311 314 315 315 319 319 317 317 322 309 311 310 307 307 305 303 301
309 313 312 317 321 322 318 319 319 318 318 319 321 320 319 320 319 319 319 316 315 316 317 317 318 321 322 313 310 311 312 315 316 314 320 319 320 308 307 309 306 306 304 302 300
307 312 313 313 313 317 319 318 319 318 318 318 320 319 319 320 319 321 319 315 315 315 316 316 319 321 325 322 315 312 312 313 315 317 317 319 318 311 309 308 307 305 304 302 301
306 310 311 314 313 314 314 316 317 319 317 318 319 320 321 322 321 322 320 312 310 313 315 317 321 319 320 320 318 314 313 312 314 315 318 318 317 316 313 307 307 306 304 303 301
306 308 309 311 312 314 314 315 313 316 318 318 320 320 320 322 321 321 321 319 316 310 312 314 320 319 320 317 319 321 318 312 312 313 314 315 316 314 313 308 305 305 305 303 302
304 302 305 308 311 313 314 314 314 314 315 317 317 319 320 320 319 318 316 317 316 312 312 314 316 316 322 317 319 321 320 319 318 312 313 314 314 311 311 306 305 304 304 303 302

GFSSW_925_thetae_051.txt.gz
Theta_e
308 308 308 308 309 309 310 310 311 312 314 315 317 317 317 317 317 319 318 315 314 312 312 314 316 316 317 316 316 313 310 311 315 316 316 313 315 315 314 313 311 310 310 311 312
308 308 308 308 308 309 310 310 311 312 313 315 316 317 318 317 318 320 316 313 313 311 315 315 314 315 312 316 315 313 311 314 314 314 315 314 314 313 314 313 311 310 310 312 313
309 309 308 308 308 308 309 310 311 312 313 315 316 317 317 316 321 317 313 313 312 312 314 315 315 314 315 315 315 315 313 313 314 317 314 315 315 315 314 313 312 311 309 310 310
309 309 309 309 308 308 308 309 310 311 312 314 316 317 317 318 320 316 311 312 312 312 315 315 314 313 314 315 316 313 314 314 316 315 316 316 315 315 314 312 309 307 309 308 307
310 309 310 309 309 309 308 308 309 311 312 313 316 317 317 318 319 314 311 312 311 315 316 315 313 314 315 315 316 315 315 315 315 315 315 315 316 315 312 307 307 308 307 305 306
314 311 310 311 311 309 309 308 309 310 312 314 316 317 319 319 317 316 313 311 314 315 315 315 313 313 314 314 314 315 314 315 315 315 315 315 315 314 311 305 307 307 305 304 305
317 314 313 311 312 312 310 308 308 309 312 315 317 316 317 317 319 316 312 312 314 315 314 314 314 313 314 315 314 314 314 313 313 314 314 313 313 312 309 306 307 306 304 304 304
314 316 315 313 313 313 312 310 309 309 312 315 317 317 315 316 318 317 313 312 312 313 315 314 314 314 315 314 314 314 314 316 316 312 313 312 314 314 307 307 307 305 303 303 303
317 316 314 315 313 313 313 312 310 310 312 316 318 318 317 313 317 317 314 313 313 313 313 313 315 313 313 312 312 314 315 315 317 312 312 312 314 311 308 308 307 305 303 303 301
319 318 316 314 315 313 313 313 312 312 317 316 317 314 313 314 316 316 315 313 313 312 312 313 311 311 312 310 315 316 316 316 317 314 312 312 311 312 308 307 307 305 303 303 301
323 320 318 316 315 313 314 318 318 317 317 311 314 314 312 312 314 314 314 313 313 313 313 313 312 313 312 311 313 315 316 317 315 314 313 312 312 311 308 307 306 305 304 304 302
323 324 319 317 315 314 315 317 317 315 317 317 316 315 312 312 311 313 313 313 313 314 313 314 314 313 313 313 314 314 315 315 314 313 312 312 312 311 309 309 308 308 306 305 300
322 323 322 317 315 315 315 316 318 315 317 317 318 318 312 311 313 313 311 311 313 313 313 315 316 315 315 316 316 315 316 315 316 314 312 312 313 312 311 309 308 308 307 305 301
319 321 321 316 315 315 315 311 318 317 311 312 314 318 311 311 313 313 312 312 313 314 314 314 314 316 315 316 315 316 314 315 316 316 316 312 318 314 313 312 310 309 306 304 300
316 317 321 315 316 315 316 315 314 317 307 309 316 314 311 315 312 311 310 311 313 313 314 315 315 315 316 315 314 315 314 315 315 314 315 315 314 315 314 316 315 311 308 304 300
313 318 319 316 317 317 316 315 317 320 314 315 315 315 315 315 310 309 310 310 311 313 312 313 312 313 314 311 313 312 314 313 313 314 317 316 316 318 317 317 316 311 305 301 300
312 315 317 317 316 317 317 317 315 318 315 316 317 316 316 316 311 311 310 311 314 315 315 313 313 313 312 313 312 313 314 318 320 317 321 315 316 319 316 313 313 310 305 301 300
309 312 315 317 317 317 317 313 318 316 318 316 317 316 317 316 313 311 311 312 310 312 315 317 317 313 312 314 314 313 315 318 320 321 319 311 317 317 313 310 307 308 306 302 300
306 311 313 315 317 316 320 314 320 317 315 316 317 318 318 317 313 312 310 312 312 311 316 316 317 312 310 314 314 313 316 316 319 301 311 316 314 313 310 308 308 306 304 301 299
304 311 312 314 316 317 321 317 316 316 316 316 320 317 319 317 315 313 312 312 314 312 312 317 322 312 309 312 312 313 312 316 314 316 317 318 317 320 313 311 306 305 303 301 299
305 310 312 313 316 318 322 321 317 315 315 319 319 319 318 317 314 313 315 314 313 312 312 315 321 313 310 312 314 313 314 314 315 314 317 317 320 312 315 312 307 306 304 301 299
307 311 311 314 317 319 321 320 318 316 315 317 318 319 318 317 317 313 314 315 312 312 313 314 319 313 313 309 309 313 314 313 318 316 314 315 322 308 311 310 306 305 304 302 300
307 306 311 314 317 316 318 318 319 318 317 317 320 320 318 318 320 316 314 313 313 313 314 316 318 319 317 313 310 312 313 315 315 311 319 317 321 306 308 309 305 304 303 302 300
305 308 307 310 311 316 317 319 319 318 318 317 319 318 319 321 319 321 317 314 312 314 314 316 317 320 323 321 314 312 311 313 316 318 318 319 319 312 309 309 306 303 302 300 300
304 305 306 312 310 313 313 313 315 318 318 318 319 318 320 321 322 321 319 313 312 314 315 317 320 316 318 317 314 313 312 313 315 316 319 319 318 316 312 307 306 303 301 300 300
303 302 304 305 309 311 311 312 313 312 316 319 320 319 319 321 321 321 319 318 315 310 315 314 318 317 319 316 316 318 314 312 313 314 315 316 317 313 312 311 305 304 303 302 301
302 302 304 305 306 307 309 312 311 312 312 312 313 316 319 319 318 319 317 317 316 312 312 315 316 318 323 316 317 321 319 319 318 313 313 315 315 311 311 310 305 303 303 303 302

GFSSW_925_thetae_054.txt.gz
Theta_e
308 308 308 308 308 309 309 310 310 312 313 314 315 316 317 317 317 319 317 315 313 311 312 314 315 315 316 315 313 308 307 310 314 313 315 313 314 313 311 311 309 308 309 310 317
308 308 308 308 308 308 309 309 310 311 312 313 315 316 317 317 318 319 317 314 312 311 314 314 314 313 311 315 313 311 308 313 313 313 313 312 313 312 313 311 310 310 309 311 314
309 309 308 308 308 308 308 309 309 310 311 312 314 315 316 317 319 316 312 313 311 312 314 314 314 313 314 313 314 311 311 312 314 315 313 313 314 312 310 312 309 309 308 309 310
309 309 309 309 309 308 308 308 308 309 310 311 313 315 316 318 319 316 311 312 311 312 314 314 312 312 312 314 314 311 313 312 314 314 315 314 313 314 312 312 310 307 307 307 306
313 311 309 309 309 309 309 308 308 309 310 311 314 316 317 316 317 315 311 311 312 315 315 314 312 313 313 314 314 314 314 313 314 314 314 314 314 314 312 308 306 307 307 305 305
314 314 312 310 309 309 309 309 308 308 309 312 314 316 318 315 317 316 312 311 313 314 314 313 312 312 313 313 312 313 314 314 313 314 314 314 314 313 310 305 306 306 305 303 304
310 313 315 313 311 309 309 309 309 308 309 312 315 316 315 313 318 316 312 312 314 314 313 313 314 313 313 314 313 313 313 311 312 313 314 312 313 312 308 305 306 305 304 303 303
317 317 312 315 313 312 310 309 309 308 309 313 316 317 313 315 317 316 313 313 313 314 314 313 314 313 314 313 312 313 312 314 314 311 313 311 313 312 306 306 306 304 302 302 302
319 319 317 315 314 313 312 310 310 309 310 312 317 317 313 313 317 318 314 312 312 313 312 314 314 312 311 310 311 311 314 313 314 310 311 311 313 312 305 306 306 303 302 302 301
321 321 320 317 315 314 312 312 311 311 316 316 316 312 311 313 315 316 314 312 312 311 311 312 308 310 309 310 314 314 314 313 315 313 311 311 311 310 307 306 306 304 302 302 301
323 322 321 319 317 314 313 314 314 313 316 307 311 307 311 312 315 314 313 313 312 311 312 311 311 312 312 309 312 313 314 315 314 314 312 311 311 310 307 305 305 304 303 303 302
319 320 322 319 317 314 314 315 315 314 314 314 315 314 312 312 312 312 313 312 312 313 311 312 312 312 311 311 311 312 314 313 312 313 311 312 311 310 308 307 307 307 305 304 301
321 320 320 320 317 315 315 314 316 315 315 313 315 316 314 311 313 312 310 310 312 313 312 314 315 313 313 313 313 313 313 313 315 313 312 311 311 311 310 308 307 308 307 306 303
316 319 321 321 315 315 315 318 318 316 306 306 315 315 310 311 314 312 312 311 311 313 312 313 313 314 314 314 314 315 313 314 315 315 316 312 317 313 312 310 309 309 306 306 303
314 315 318 318 316 315 318 317 317 315 312 309 313 313 310 313 311 311 310 310 312 313 313 314 314 314 315 315 313 315 313 313 314 314 314 314 314 314 312 313 312 312 308 305 302
312 313 316 317 316 316 316 314 316 318 313 313 315 314 314 314 310 308 310 310 310 312 312 312 311 313 314 312 313 311 313 312 311 312 316 315 314 315 314 315 314 313 310 305 301
308 312 315 317 317 316 315 313 313 319 314 314 317 314 315 315 311 311 311 311 313 315 315 313 313 312 311 313 312 312 314 316 318 316 319 313 314 317 315 313 312 314 309 302 300
306 308 312 316 317 316 313 313 316 314 316 315 315 315 317 315 313 311 311 314 311 313 313 316 316 313 310 313 315 313 314 316 317 318 316 312 317 316 311 311 309 306 305 300 299
304 306 309 312 316 317 317 318 320 316 313 316 316 318 317 316 314 311 311 312 312 311 314 315 315 311 310 312 313 312 315 314 317 298 311 316 314 313 310 309 308 307 304 299 298
305 305 309 310 313 316 320 321 317 315 314 316 320 317 318 317 315 312 311 310 312 311 311 314 316 310 310 311 311 312 311 316 313 315 316 317 316 319 314 311 310 308 304 299 297
305 307 307 309 314 317 321 321 317 313 315 317 320 322 318 317 315 313 314 312 311 310 311 313 316 313 310 312 314 312 313 314 313 313 315 314 318 311 314 311 311 308 304 300 297
305 309 307 312 316 317 320 319 316 314 314 317 318 319 318 317 317 315 314 313 310 310 313 312 317 313 312 310 308 312 314 312 315 314 313 314 321 309 311 311 309 308 304 300 299
304 306 306 312 313 313 315 318 318 318 316 316 318 318 316 317 319 315 313 311 311 312 312 314 315 314 315 312 309 311 312 314 313 311 316 318 321 306 307 310 308 307 303 300 298
303 306 304 307 310 312 312 314 316 316 318 316 317 318 319 319 318 319 318 315 312 312 313 314 316 316 320 318 312 312 312 312 316 319 318 319 319 314 311 311 308 305 302 299 298
301 304 303 308 306 308 311 313 314 315 316 317 318 319 319 321 321 320 319 315 311 312 314 316 319 316 317 316 313 313 312 314 315 317 320 320 318 318 313 309 308 306 301 299 298
299 301 302 303 306 307 308 310 311 313 313 315 320 318 317 320 320 321 320 319 319 312 313 314 320 318 319 316 313 315 311 312 314 315 316 317 318 314 312 309 306 305 302 301 300
298 301 301 301 302 305 308 309 308 309 310 311 312 315 315 317 316 317 316 316 317 318 316 316 318 317 323 318 315 319 318 313 312 313 314 317 316 313 313 310 308 305 303 303 301

GFSSW_925_thetae_057.txt.gz
Theta_e
308 308 308 308 308 308 309 309 310 311 311 312 313 314 316 316 316 318 316 315 313 311 311 314 315 314 315 312 311 305 306 308 310 310 314 311 313 311 308 309 309 308 309 310 323
309 308 308 308 308 308 308 309 309 310 310 311 313 314 315 316 318 318 317 314 312 311 313 313 312 312 310 313 310 307 305 310 310 310 312 311 312 310 312 310 310 310 309 311 320
309 309 309 308 308 308 308 308 308 309 310 310 312 314 315 316 318 316 312 312 311 312 313 314 313 311 313 312 312 308 309 309 313 313 312 311 312 310 309 311 308 309 308 308 313
311 310 309 309 309 308 308 308 308 308 309 310 311 313 316 318 315 316 311 311 311 311 313 313 311 311 312 313 313 310 311 310 313 313 312 312 311 312 309 311 309 306 307 307 308
314 310 310 310 309 309 309 308 308 308 308 310 311 313 316 313 315 315 311 311 311 314 314 312 311 311 312 313 313 312 312 312 313 313 313 313 313 312 311 309 306 305 306 306 306
311 314 312 309 310 309 309 309 308 308 308 310 312 314 317 312 317 315 312 311 313 314 313 312 311 311 311 312 312 313 313 313 312 313 313 314 313 312 311 305 306 306 305 304 305
315 312 312 313 310 309 309 309 309 308 308 310 313 315 314 311 316 316 312 312 313 314 312 313 313 313 312 313 312 312 313 310 310 312 313 311 312 311 309 305 306 306 304 303 303
318 317 316 313 313 311 309 309 309 309 308 310 313 316 309 314 316 316 313 312 313 314 313 313 314 312 313 311 309 312 310 313 312 311 312 311 312 310 305 305 306 304 302 302 302
319 319 318 317 316 313 312 309 309 309 309 310 314 316 310 313 316 317 314 312 312 312 312 314 312 310 309 310 311 309 313 312 312 310 311 310 312 311 305 305 306 303 302 302 301
323 321 320 319 317 315 312 311 310 310 314 314 316 309 310 312 314 316 313 312 311 310 310 310 306 310 306 310 313 313 313 312 313 312 310 311 309 309 307 304 306 303 302 301 302
322 323 322 320 318 316 313 312 310 310 315 306 309 305 311 312 314 313 313 312 311 309 311 310 310 312 311 308 311 311 312 313 313 313 312 310 310 311 307 305 304 304 303 303 303
318 321 320 318 318 316 315 313 312 313 313 312 313 312 312 312 313 312 312 312 312 312 310 311 311 310 310 310 310 312 313 312 311 310 311 311 310 309 308 306 307 307 306 304 303
319 321 319 318 320 317 316 314 315 314 312 310 313 314 312 310 312 312 310 310 311 311 311 312 313 311 311 311 312 311 311 312 313 312 309 310 311 310 309 307 306 306 307 306 305
315 317 320 320 317 316 316 319 316 315 306 306 311 314 310 310 313 311 311 310 311 313 311 312 312 313 312 313 312 313 311 312 313 315 315 311 316 313 311 310 308 308 307 307 305
313 314 315 318 316 315 317 317 316 313 323 311 311 312 309 312 310 311 309 310 311 312 312 313 312 313 314 313 312 314 312 312 313 313 314 313 314 314 311 311 311 311 309 308 306
308 312 313 317 316 316 316 316 313 315 318 312 314 313 313 312 309 308 310 309 309 312 312 310 310 312 313 312 312 310 312 311 310 311 315 315 314 315 313 313 312 311 310 307 303
306 308 312 316 317 316 315 312 316 319 314 314 316 313 314 313 310 310 311 311 312 314 313 312 312 311 310 313 311 312 314 316 315 314 318 310 312 316 312 311 311 312 310 307 302
305 305 306 312 317 316 312 315 317 317 314 314 314 314 316 314 312 310 311 313 310 312 311 313 312 312 310 314 314 313 313 315 314 315 313 311 316 315 310 310 308 307 307 305 300
305 305 306 306 313 316 315 319 320 315 313 315 316 318 317 315 314 311 310 311 311 310 313 313 313 311 310 311 313 312 314 313 315 298 310 313 312 311 310 309 308 307 306 302 300
306 304 305 306 309 315 318 320 318 314 313 316 321 318 319 316 315 311 310 310 311 310 310 312 314 310 310 311 310 311 310 315 311 313 312 314 314 316 315 312 310 309 307 302 298
306 306 305 306 310 313 317 318 317 313 314 316 318 319 317 316 315 312 313 312 309 310 311 312 313 311 310 311 312 312 313 312 312 311 313 312 316 310 314 312 312 309 307 303 299
304 307 305 309 311 312 315 315 314 316 315 316 317 317 318 316 316 314 313 312 309 310 312 311 314 312 311 309 308 311 312 312 314 312 311 312 317 310 310 310 309 309 307 302 299
302 303 304 308 311 311 310 313 315 317 317 316 318 318 317 319 320 316 313 310 310 311 312 312 314 311 314 312 308 310 311 312 312 309 313 315 318 306 307 307 306 307 307 301 298
298 301 301 304 306 310 309 311 313 316 317 316 317 316 317 319 318 317 315 312 311 311 313 314 316 314 319 316 312 311 311 311 314 317 316 317 318 315 312 309 308 307 304 301 297
300 301 300 305 303 304 309 310 310 311 315 316 317 318 318 320 320 318 315 314 311 312 313 315 316 316 316 313 312 311 311 312 314 315 317 317 316 317 314 309 310 307 304 300 298
298 296 299 300 301 304 304 308 310 312 312 314 315 312 315 318 319 320 318 318 318 312 313 315 318 315 317 315 314 315 311 312 313 315 315 316 316 314 313 309 309 307 305 302 300
296 298 298 300 300 301 305 305 304 307 309 311 312 313 314 313 312 314 315 315 317 318 313 315 317 319 322 318 317 319 316 316 313 314 315 316 316 313 314 311 310 309 304 303 302

GFSSW_925_thetae_060.txt.gz
Theta_e
309 308 308 308 308 309 309 309 309 310 310 311 312 313 314 315 316 317 316 314 313 311 311 313 313 313 313 310 308 303 306 308 310 310 312 309 312 308 307 308 309 309 309 310 322
313 309 308 308 308 308 308 308 309 309 309 310 311 312 313 315 317 317 316 315 312 311 313 313 312 311 309 311 308 304 304 307 308 307 312 310 311 309 311 310 310 309 308 310 324
313 313 310 308 308 308 308 308 308 308 309 309 310 311 313 316 317 315 312 312 311 311 313 313 312 310 311 311 311 307 306 308 312 312 311 310 311 308 308 311 308 309 308 311 317
312 313 313 311 309 308 308 308 308 308 308 309 310 311 314 317 311 315 311 311 311 311 313 312 310 310 311 312 311 310 310 308 312 312 310 311 309 310 307 310 308 305 307 309 311
312 312 312 312 310 309 309 308 308 308 308 308 310 312 316 312 314 315 310 311 311 314 313 311 310 310 311 312 312 311 311 311 312 312 312 312 312 310 309 307 306 305 307 307 309
313 312 311 312 311 311 309 309 309 308 308 308 310 311 315 310 316 315 311 311 313 313 312 311 310 310 310 311 311 312 312 312 311 312 312 313 312 312 311 306 307 305 305 305 306
316 314 311 312 312 311 310 309 309 309 308 308 310 313 312 308 315 316 312 312 312 313 311 312 311 312 310 312 311 311 313 310 310 311 312 311 311 311 309 306 307 305 304 304 304
319 317 316 316 313 310 310 309 309 309 308 308 310 314 307 312 315 314 312 312 312 313 313 312 312 310 311 309 308 311 309 312 311 311 311 311 311 309 306 306 307 305 303 303 303
320 320 318 318 318 316 309 309 309 309 309 309 311 314 307 312 315 316 313 312 312 312 312 312 310 308 309 309 310 308 312 312 311 309 311 310 311 311 305 305 306 304 303 302 302
322 319 321 320 320 320 318 309 309 309 313 313 314 307 308 311 314 316 313 311 310 309 309 309 306 308 305 309 311 312 312 311 312 312 310 311 309 307 307 305 305 304 302 302 302
318 321 320 320 320 322 321 310 305 306 313 305 307 304 310 312 313 313 312 311 310 308 310 308 309 311 310 308 310 308 311 312 311 311 311 310 309 309 308 304 305 304 303 303 303
321 319 321 320 319 318 320 311 312 313 313 310 311 310 312 312 314 312 311 312 311 311 309 309 310 309 309 308 310 311 313 312 310 310 310 310 310 309 307 306 306 307 306 304 304
317 319 318 319 319 318 318 316 315 314 311 308 311 312 310 310 311 312 309 309 310 310 310 311 312 309 310 310 311 310 310 310 312 311 308 309 310 308 308 307 306 305 306 305 306
314 315 318 320 318 317 317 318 315 315 312 310 309 312 310 309 312 310 310 310 310 312 309 310 310 312 311 312 311 312 309 310 312 313 313 310 314 311 310 309 307 308 305 306 305
309 313 314 317 317 316 317 318 316 312 328 312 310 310 309 309 309 311 308 310 310 311 311 311 311 312 313 312 310 312 309 310 312 311 312 310 314 313 310 311 311 310 308 306 305
306 308 313 315 316 316 316 315 314 318 322 313 313 313 312 311 309 308 310 308 308 311 311 310 309 310 312 311 310 309 311 310 309 310 315 311 312 312 310 312 311 311 308 306 304
306 305 308 315 317 316 315 313 318 321 315 316 315 312 313 312 310 311 311 310 312 314 313 312 311 310 310 312 310 311 313 314 312 312 316 310 312 314 310 309 309 310 309 307 305
307 306 305 306 314 316 314 316 320 318 314 313 314 313 314 312 311 310 311 312 310 310 309 312 311 311 309 312 313 311 313 314 310 311 310 310 315 313 309 308 307 306 306 306 303
305 306 305 306 307 314 315 318 320 316 313 315 315 317 315 314 312 311 310 311 310 308 311 310 310 310 309 310 311 311 314 311 312 296 308 310 308 309 308 309 308 307 306 305 302
305 305 304 305 306 310 316 317 318 313 312 315 318 316 316 315 314 310 310 309 310 310 309 310 312 310 310 310 309 310 309 313 310 312 310 312 312 313 312 312 309 309 307 304 302
305 305 305 305 308 310 312 316 315 313 313 316 317 319 318 316 315 311 313 310 308 309 310 310 311 311 310 310 311 311 312 311 311 310 310 310 314 308 310 310 311 310 308 306 303
303 304 304 306 308 309 310 310 311 314 314 315 315 317 319 315 315 313 313 312 308 309 311 309 312 311 311 308 307 310 311 311 313 311 308 310 316 309 309 309 308 309 308 306 303
302 301 303 306 307 307 307 308 309 312 316 316 317 316 315 316 319 315 312 310 309 311 311 311 314 309 314 312 308 310 310 311 310 308 311 314 316 306 307 309 308 307 307 303 301
297 297 297 300 301 308 307 307 308 310 311 312 315 316 317 318 317 317 315 311 310 311 314 314 316 317 319 315 311 311 310 310 313 315 315 314 315 313 312 310 308 306 304 303 300
299 297 297 299 299 301 304 308 308 308 311 313 315 315 316 319 320 320 316 314 311 311 314 316 316 316 315 314 311 311 311 311 313 314 315 315 314 314 312 310 310 308 306 304 301
299 299 298 297 301 299 300 303 306 307 309 309 313 314 316 318 318 319 318 316 317 310 313 315 317 315 317 315 315 315 311 311 312 313 313 314 314 313 310 309 308 308 309 306 302
298 296 299 299 298 299 302 303 301 302 304 306 309 311 313 313 313 312 311 312 312 315 313 315 316 316 321 315 314 317 315 315 312 312 313 315 314 313 312 310 312 309 306 305 304

GFSSW_925_thetae_063.txt.gz
Theta_e
313 314 313 309 308 308 308 309 309 309 310 310 311 311 312 313 315 317 315 314 313 311 311 313 312 312 312 309 306 303 310 311 311 310 313 307 310 306 307 309 309 308 310 311 322
312 312 312 311 308 308 308 308 308 308 309 309 310 311 312 314 317 316 316 315 313 311 312 312 311 311 308 310 307 305 308 309 308 307 311 309 310 308 310 310 311 309 307 309 323
312 312 311 311 311 309 308 307 307 307 308 308 309 311 312 316 315 314 312 312 312 311 313 313 311 310 310 310 309 306 306 306 309 310 310 310 310 307 309 311 310 311 309 311 319
311 310 309 309 308 309 308 308 308 308 307 308 309 310 313 316 309 314 311 311 310 311 312 311 308 310 309 311 310 310 309 307 311 311 309 309 307 309 307 310 308 306 307 312 317
311 310 310 309 309 308 308 308 308 308 308 308 309 310 314 310 312 315 310 310 311 313 312 309 310 309 309 311 311 310 310 310 311 311 311 309 310 309 308 306 307 305 307 311 317
314 311 311 311 310 309 309 308 308 308 308 308 309 310 313 309 315 314 311 311 313 313 311 310 309 308 309 310 309 310 311 311 310 311 311 312 311 311 310 306 307 306 306 308 312
316 315 313 311 310 310 309 309 309 308 308 308 309 311 310 307 314 315 311 312 312 313 311 311 310 311 309 311 309 309 312 310 310 311 312 310 311 310 309 307 308 307 305 305 307
318 317 317 316 315 311 309 309 309 308 308 308 309 312 305 311 314 314 312 312 312 313 312 312 312 308 310 308 308 310 308 312 310 310 310 311 311 309 306 307 309 307 305 304 304
319 319 318 318 319 319 316 308 308 308 308 309 310 311 306 311 314 315 312 312 312 311 312 311 309 307 308 309 310 308 310 311 311 308 310 310 311 309 306 305 306 305 305 304 303
321 320 320 319 319 319 319 313 308 309 311 311 313 305 306 310 314 315 312 311 309 308 309 308 305 307 305 309 310 311 312 310 311 311 309 310 310 308 306 306 307 306 304 304 304
319 321 320 321 320 320 319 310 304 303 311 305 306 303 309 311 313 312 311 310 308 307 310 307 309 311 310 308 308 308 310 311 309 309 311 310 309 310 308 306 306 306 306 305 305
320 319 321 321 320 318 319 310 311 313 312 310 310 309 310 311 313 311 310 311 310 310 308 308 310 309 308 307 310 310 311 311 309 309 310 310 311 310 308 310 310 310 309 307 307
316 319 318 318 319 319 318 314 315 313 312 310 310 311 309 311 311 312 308 308 309 309 308 309 310 307 309 309 309 309 310 310 312 310 308 308 310 309 308 308 308 307 308 307 307
312 315 317 319 318 318 318 318 316 314 318 315 309 311 309 309 311 310 309 309 309 311 307 309 309 310 310 310 310 311 308 309 311 312 312 309 312 310 308 309 307 308 307 307 307
307 311 314 317 317 316 316 317 317 314 324 314 310 310 308 307 308 310 308 310 310 310 310 310 310 311 311 310 309 311 307 309 310 311 311 311 313 311 309 310 310 310 309 307 306
306 306 311 314 316 316 316 316 314 319 321 317 311 313 311 310 309 308 310 307 307 310 311 309 308 309 310 309 309 307 309 309 307 309 314 311 312 311 309 311 310 309 308 307 305
307 306 306 313 316 316 315 314 319 321 314 316 314 311 311 311 310 311 311 310 310 313 312 311 311 310 309 310 309 310 312 312 311 313 316 308 311 312 309 308 308 310 310 306 305
304 306 306 305 312 315 313 317 317 318 315 312 313 311 312 310 309 310 310 312 310 308 308 311 311 310 309 310 312 310 311 312 309 309 308 309 313 312 308 307 306 305 305 305 305
300 304 305 306 306 313 316 319 315 314 314 314 315 316 314 313 310 310 309 310 310 307 310 309 309 309 308 310 310 311 313 310 310 295 308 308 307 307 306 307 306 308 306 304 304
302 304 304 305 306 310 315 317 316 312 311 314 318 315 315 314 312 310 309 308 310 308 307 309 310 309 309 309 309 309 309 313 309 311 309 310 309 311 312 311 309 308 307 305 303
303 301 303 304 307 308 310 312 313 312 312 316 317 318 315 314 312 310 311 309 307 308 309 309 310 309 309 310 310 311 312 310 309 309 310 309 312 306 309 309 308 307 307 306 304
302 300 302 306 306 308 307 308 308 311 312 314 315 316 316 314 315 312 311 311 307 308 311 309 311 310 310 308 306 308 310 310 311 310 308 309 315 307 308 310 308 307 308 307 305
298 300 302 306 304 305 305 306 307 309 312 315 316 314 314 316 318 314 312 308 308 310 311 310 313 307 313 311 308 308 308 310 308 308 310 314 316 306 307 308 307 307 306 304 303
298 296 296 300 302 303 303 304 305 306 307 307 311 314 315 314 316 316 314 311 308 309 312 312 313 314 319 313 310 310 308 308 312 312 314 312 314 312 311 311 308 307 305 304 303
299 296 296 297 299 301 304 305 306 305 306 308 309 309 310 312 312 312 312 313 311 309 313 315 319 316 315 314 311 311 311 311 313 313 314 314 313 313 311 309 310 309 305 305 304
299 299 297 296 298 297 299 302 303 304 306 309 307 307 308 313 312 312 315 315 316 311 312 314 319 317 318 316 317 316 311 310 311 313 313 313 313 313 312 308 307 307 309 309 306
297 296 299 298 297 298 298 298 298 299 300 303 306 305 306 308 309 309 309 311 311 311 308 312 317 316 320 316 317 317 317 316 314 311 313 314 313 312 312 310 310 308 306 307 306

GFSSW_925_thetae_066.txt.gz
Theta_e
313 312 309 309 308 308 308 309 309 309 309 309 310 311 311 313 315 316 316 313 313 311 311 312 312 313 313 315 312 311 320 320 320 318 318 314 316 311 312 315 316 317 315 317 326
309 310 309 308 308 308 308 308 308 308 308 309 309 310 311 314 316 316 315 314 313 311 311 313 314 313 315 315 314 317 320 319 316 316 317 315 315 315 315 315 316 315 313 313 325
309 309 308 308 308 307 307 307 307 307 307 308 309 310 311 315 316 315 313 312 312 311 312 312 312 314 315 314 314 313 318 311 313 313 314 315 314 314 315 316 317 318 317 314 326
311 309 308 308 308 308 308 308 308 308 307 308 308 309 312 316 312 314 311 311 311 311 312 311 313 315 315 315 313 314 312 312 314 314 314 314 314 314 315 318 314 316 315 315 324
312 312 310 309 309 308 308 308 308 308 308 308 308 309 314 313 314 313 310 310 311 312 312 313 313 314 314 315 313 313 313 311 313 313 313 312 314 315 314 315 312 311 311 315 319
313 312 313 311 309 309 309 309 308 308 308 308 308 309 312 310 314 313 310 311 312 312 311 311 313 313 314 314 314 314 314 314 313 314 313 315 315 314 316 314 312 312 314 314 317
316 315 313 311 310 310 310 309 309 308 308 308 308 310 310 310 315 314 311 311 312 312 313 311 311 314 314 315 312 313 315 315 314 314 315 313 315 315 315 312 314 313 314 313 314
318 318 317 316 315 315 312 308 308 308 308 308 308 310 310 310 314 313 311 312 312 312 312 311 311 313 314 312 314 315 316 317 314 313 314 314 317 316 312 312 314 316 315 314 313
320 319 319 319 320 320 319 317 308 308 308 308 309 311 309 311 314 313 311 312 311 311 311 310 311 313 314 317 317 316 316 317 316 313 314 315 318 316 312 312 315 315 315 314 314
320 321 320 319 320 321 320 318 309 309 310 311 311 308 308 310 313 314 311 311 311 311 313 314 314 316 315 317 315 316 317 315 316 314 313 316 316 316 316 312 315 316 316 315 314
318 320 321 321 320 320 319 312 308 308 311 308 308 306 309 311 313 313 310 310 311 313 316 312 316 317 316 316 313 314 315 315 315 313 315 316 317 316 316 316 316 316 316 316 316
319 319 320 320 321 319 318 313 313 313 316 311 311 310 309 312 314 313 310 314 314 315 312 314 315 316 313 312 313 314 316 316 315 312 313 316 316 316 316 316 316 317 317 317 317
315 317 319 319 320 319 318 316 316 313 319 316 311 312 311 311 313 315 311 312 314 314 314 314 314 312 313 312 314 315 316 315 315 313 313 314 316 317 316 315 315 315 316 316 316
310 314 317 318 317 318 318 318 316 310 322 321 313 313 310 312 311 310 311 313 312 314 313 314 312 312 313 313 314 315 313 314 314 315 316 313 314 315 315 315 314 315 316 316 316
306 310 315 318 318 317 317 318 317 314 327 317 312 310 309 311 311 312 308 311 315 313 313 314 313 313 314 314 313 315 312 313 314 316 316 315 315 314 312 314 315 316 316 317 316
307 306 312 316 316 316 317 317 314 321 325 318 312 314 312 311 311 310 311 310 310 312 312 312 309 312 314 310 312 311 314 314 314 316 317 314 315 314 315 315 315 315 315 315 315
305 307 306 313 315 316 317 315 321 324 316 318 315 313 313 312 312 313 313 313 314 314 314 313 313 311 311 313 311 314 316 316 318 320 319 313 315 315 315 313 313 315 315 314 312
302 305 306 306 314 315 313 317 321 320 319 313 314 312 314 312 311 312 314 315 313 311 312 313 313 313 312 314 315 315 316 316 324 317 314 311 315 315 315 313 313 312 313 313 310
297 302 304 306 306 314 316 318 320 317 316 316 315 315 315 314 312 312 313 313 314 312 312 312 313 310 310 311 313 314 315 314 315 308 314 313 315 315 313 312 311 312 313 314 313
300 304 303 305 305 312 315 316 316 315 313 316 321 317 318 316 314 312 313 312 312 312 312 312 313 311 310 310 310 312 313 315 314 322 319 314 314 315 316 316 314 314 314 313 312
302 303 301 301 306 311 313 312 312 312 314 315 317 318 318 317 315 313 314 311 310 311 312 313 312 312 311 313 314 313 314 313 313 316 320 317 314 314 315 315 314 314 312 313 312
302 302 302 305 308 308 310 309 309 313 313 315 315 317 317 317 318 316 315 313 309 310 312 312 314 316 313 310 309 311 314 314 316 317 315 315 317 311 313 314 313 314 311 311 309
302 302 303 305 306 307 306 307 308 309 312 314 315 315 314 315 318 317 317 312 310 312 313 312 316 320 319 313 309 312 312 312 314 313 321 321 318 311 311 312 311 313 313 311 309
301 300 301 302 306 304 304 305 306 307 309 309 311 313 315 315 315 316 316 313 312 311 311 313 316 319 323 319 315 314 313 313 314 317 317 317 316 315 314 314 313 313 313 311 311
299 300 300 302 303 304 304 303 304 305 307 308 307 308 310 311 311 312 311 310 309 309 311 314 316 317 318 318 316 316 316 314 314 315 317 316 316 316 315 314 314 314 314 313 313
299 302 297 299 300 302 303 304 305 304 305 305 306 305 308 310 309 310 312 313 313 312 313 313 316 317 318 318 318 317 315 314 314 314 314 315 315 315 314 314 314 313 314 314 314
298 297 299 299 301 301 303 303 302 303 303 304 305 308 307 307 305 307 307 306 307 309 309 309 312 316 319 317 318 319 318 318 316 316 316 318 317 317 316 315 314 314 313 313 313

GFSSW_925_thetae_072.txt.gz
Theta_e
312 309 308 308 308 308 308 308 308 308 309 309 309 310 310 311 313 316 319 315 315 311 313 314 315 316 317 320 319 318 320 320 322 321 320 317 318 317 316 317 318 319 319 323 325
310 311 308 308 308 308 308 308 307 307 307 308 308 309 310 312 318 319 317 313 312 310 314 314 315 316 316 319 319 318 320 320 317 316 317 317 317 315 317 317 317 318 316 324 329
312 308 309 308 307 307 307 307 307 307 307 307 308 309 310 314 321 318 316 314 313 311 313 314 314 316 316 318 319 320 321 316 316 316 315 318 317 317 316 316 316 316 315 322 329
312 310 308 308 308 308 308 308 308 308 308 308 308 308 311 318 318 316 313 312 312 311 314 314 314 315 316 316 317 316 317 315 317 317 316 317 317 317 315 317 316 315 315 321 326
312 312 310 308 308 308 308 308 308 308 308 308 308 308 314 317 318 311 310 310 311 312 314 314 314 315 316 315 315 314 315 313 315 315 315 315 315 316 315 314 315 315 315 316 322
313 313 311 311 309 309 309 309 309 308 308 308 308 309 316 314 315 313 310 311 313 313 313 314 314 314 314 315 315 315 315 314 314 315 315 315 315 315 315 313 314 313 313 313 316
312 313 311 311 311 310 309 309 309 309 308 308 308 310 312 314 316 313 311 313 313 314 314 314 314 314 315 315 315 316 315 314 314 315 315 315 315 314 312 314 315 315 312 312 313
317 316 314 314 313 314 313 312 310 308 308 308 308 313 313 310 314 313 312 312 312 313 314 313 314 316 317 315 315 315 315 315 316 315 315 316 313 315 315 313 312 313 312 312 312
319 318 318 318 318 319 319 318 317 309 308 308 313 314 313 310 315 313 312 313 313 313 312 313 316 317 316 316 315 316 313 314 316 315 316 315 317 317 315 315 314 313 312 312 312
320 320 319 320 320 320 320 317 312 308 308 309 311 311 309 312 315 313 312 313 314 314 314 315 315 316 315 314 314 315 316 315 317 315 315 315 314 315 314 314 313 313 312 313 313
319 319 320 321 321 319 318 317 313 315 312 312 310 309 310 313 314 314 312 312 314 315 314 315 313 313 314 313 314 315 315 314 314 315 316 315 314 313 312 312 312 311 311 312 312
317 318 318 319 320 321 320 318 316 315 320 312 311 311 311 313 315 315 312 314 315 316 316 315 314 314 314 316 316 316 315 314 313 314 315 314 313 312 312 312 312 312 312 311 312
315 317 319 319 319 319 321 318 315 314 321 320 314 311 312 313 313 316 312 314 315 316 316 317 315 315 316 316 316 315 314 313 314 315 313 313 314 314 314 313 312 312 312 312 312
310 314 317 318 319 319 320 319 316 315 323 323 318 316 312 311 311 315 313 314 314 314 315 315 315 314 315 315 314 314 314 313 315 314 313 315 313 313 311 311 313 313 312 311 312
307 307 314 318 318 320 318 319 317 318 328 320 316 312 312 311 312 313 311 313 314 313 314 314 314 314 315 315 313 314 314 315 315 315 315 315 314 312 310 312 312 312 312 312 312
305 306 312 316 317 317 317 317 315 322 327 320 315 315 313 312 312 312 312 312 312 314 315 314 312 314 315 313 314 314 315 316 316 314 313 312 313 311 311 313 314 314 315 315 315
301 305 308 311 315 316 317 315 320 323 319 319 318 316 316 314 313 313 313 313 313 314 315 314 313 313 313 314 314 315 315 313 317 316 316 313 312 311 313 312 313 313 311 312 314
299 301 306 308 314 316 316 317 320 321 320 317 316 316 318 316 315 313 314 313 312 311 312 312 313 314 312 313 314 314 313 315 314 318 314 311 312 312 313 314 313 313 311 310 312
300 303 305 309 311 315 317 315 321 320 319 318 316 317 317 316 315 313 313 315 313 311 312 313 313 312 312 312 313 315 314 313 314 306 312 313 312 311 312 312 312 311 310 309 310
302 303 305 308 307 313 316 316 317 316 316 318 319 318 319 316 315 314 315 314 314 313 311 314 315 313 311 312 312 313 312 315 313 314 313 313 312 312 312 312 311 312 313 312 311
302 302 304 307 309 313 315 315 315 314 315 317 319 321 321 317 315 315 316 313 312 313 314 313 314 313 312 312 312 312 312 313 313 313 314 313 312 313 313 315 315 314 314 312 312
302 303 303 307 311 310 311 312 311 312 314 315 315 317 319 319 319 318 316 314 311 312 314 314 315 313 313 312 310 312 311 312 313 313 311 312 314 313 312 313 314 313 313 313 311
303 302 304 306 308 308 309 310 310 310 311 314 315 315 315 318 320 319 318 315 313 313 314 314 315 312 315 314 311 312 312 313 312 311 314 315 314 310 312 313 314 314 314 311 312
302 302 304 304 305 306 307 307 308 308 309 310 312 313 314 314 314 315 316 315 313 311 310 314 316 315 316 318 317 317 316 313 313 316 314 314 313 313 312 311 311 310 310 310 309
300 301 302 303 301 304 306 305 305 306 307 307 310 311 312 314 313 314 314 314 313 313 311 311 316 315 315 315 315 316 318 319 321 318 315 314 313 313 312 311 312 312 310 310 310
300 301 301 302 302 301 304 304 305 304 306 307 307 308 309 310 311 312 313 313 312 310 311 311 312 313 310 311 312 313 313 315 316 318 319 318 316 313 313 312 312 312 312 312 312
298 298 300 301 301 303 302 303 303 303 304 304 305 306 306 307 307 306 307 308 308 308 308 309 312 313 310 310 310 313 312 313 313 313 315 317 315 314 314 313 313 312 312 313 313

GFSSW_925_thetae_075.txt.gz
Theta_e
316 314 309 309 309 309 308 308 308 308 308 308 309 309 310 310 313 314 319 315 315 312 314 314 315 316 316 317 317 314 314 315 317 318 316 315 316 315 314 315 316 317 318 321 331
316 315 309 309 308 308 308 308 307 307 307 307 308 308 309 311 316 320 317 314 313 311 313 313 314 315 312 316 315 313 312 315 314 314 315 314 315 314 315 315 316 316 317 324 329
315 315 312 308 308 308 307 307 307 307 307 307 307 308 309 313 321 317 316 313 312 310 314 314 313 313 314 315 316 315 315 315 314 315 313 315 315 312 313 314 312 314 316 326 329
314 313 312 309 307 308 308 308 308 308 308 308 308 308 310 317 314 315 313 313 313 311 313 313 312 313 313 314 314 315 315 314 315 315 315 315 313 315 312 314 314 312 315 324 325
313 312 311 310 308 308 308 308 308 308 308 308 308 308 313 317 316 311 311 311 311 312 313 313 312 312 313 313 313 313 313 312 313 314 314 314 314 314 313 311 310 313 315 324 324
312 312 311 311 309 308 308 308 308 308 308 308 308 309 314 313 315 312 310 310 312 313 313 313 312 312 313 312 312 314 313 312 313 313 313 313 312 313 312 310 311 311 312 318 322
313 313 312 311 310 309 309 309 309 309 308 308 308 310 311 311 316 313 311 313 312 313 312 313 313 313 313 313 313 314 313 312 312 312 314 313 309 312 309 313 312 310 308 311 315
314 314 313 310 311 311 312 311 310 309 308 308 308 313 311 311 314 312 311 312 312 313 314 313 313 314 315 313 314 313 312 311 312 311 313 311 307 310 311 309 310 309 307 308 308
317 316 316 316 315 316 317 317 315 311 308 308 313 313 311 311 313 312 312 313 312 312 312 314 315 313 314 311 311 312 309 311 313 312 313 313 310 313 311 312 311 308 307 307 307
318 318 318 319 319 320 319 317 313 308 307 308 311 308 308 311 314 313 312 313 313 312 312 313 311 311 310 308 309 312 313 313 312 314 313 313 311 310 310 311 310 309 308 308 307
319 319 320 320 320 319 317 316 310 311 312 308 308 307 311 312 313 313 311 312 312 313 311 313 310 310 310 309 310 313 313 313 312 313 313 312 311 310 310 308 306 306 307 307 308
317 319 318 319 320 320 320 317 315 314 318 309 309 309 312 313 314 313 311 312 313 311 313 311 310 310 310 311 312 313 314 313 311 313 313 312 311 309 309 310 310 309 306 306 307
315 317 317 318 318 318 320 317 315 314 318 319 311 310 309 312 312 314 310 311 313 313 313 313 313 311 313 314 314 314 313 313 312 312 311 311 309 310 310 310 309 308 307 308 308
309 314 317 317 318 318 320 318 316 314 320 321 317 313 310 309 308 313 311 312 313 313 312 313 313 313 313 313 313 314 312 312 312 312 311 310 310 310 311 310 309 309 308 308 307
306 308 315 318 317 319 318 319 317 317 318 317 316 311 310 308 310 313 311 312 312 312 311 313 312 311 313 313 311 312 313 313 314 313 313 312 311 309 308 309 308 308 307 307 306
303 306 314 316 317 317 318 319 315 321 320 317 313 313 311 311 311 311 311 311 311 313 311 311 311 313 312 311 311 311 313 313 311 310 310 310 310 308 309 310 310 312 311 311 312
300 304 309 312 316 316 317 316 321 323 319 318 316 313 313 312 312 312 311 312 310 313 313 313 312 312 312 311 312 312 309 310 312 312 310 309 309 309 308 309 311 312 310 309 311
300 300 306 309 314 316 316 315 320 319 320 315 316 314 315 312 312 312 312 312 310 310 310 312 312 312 311 311 312 312 310 310 310 315 312 309 311 311 309 311 310 311 308 306 306
301 302 304 309 313 316 315 315 319 319 319 316 315 316 316 314 312 312 311 311 310 309 310 309 310 311 310 311 310 312 313 310 311 300 309 310 309 309 309 309 308 307 308 309 308
301 302 304 308 310 314 316 315 316 316 316 316 318 315 316 314 313 312 312 311 313 310 309 311 313 311 310 311 310 311 310 313 310 309 310 310 309 311 310 310 313 312 311 309 309
301 299 305 306 311 312 315 315 315 315 315 318 319 320 319 314 312 313 313 311 311 312 309 310 312 312 310 311 311 311 312 312 311 311 310 310 309 306 309 311 313 313 311 312 311
301 300 303 308 309 309 312 312 310 314 314 315 315 317 320 318 315 313 315 313 311 311 312 312 312 310 311 309 309 310 310 311 312 311 309 311 313 309 309 311 309 311 312 312 311
299 300 303 305 306 306 307 309 309 309 313 314 315 315 315 319 320 318 316 313 311 310 313 313 311 305 311 311 310 311 311 311 311 308 312 310 313 309 308 307 307 309 308 308 307
299 298 301 303 302 304 306 307 310 308 309 310 313 313 314 314 316 315 317 315 311 310 313 314 314 310 311 316 315 316 315 316 315 309 312 312 312 312 310 309 308 307 309 309 307
300 298 299 301 300 303 304 305 306 307 307 307 308 311 313 314 313 313 314 314 312 311 309 314 316 314 314 314 314 317 316 316 317 317 320 314 313 312 311 310 309 308 308 308 308
299 298 297 298 298 299 301 303 304 305 306 306 307 308 309 311 311 311 313 312 313 310 311 310 307 312 311 311 312 311 310 311 314 315 315 315 316 314 313 312 310 310 309 310 311
297 297 298 298 300 299 299 302 302 303 303 304 305 305 305 306 306 306 305 307 307 307 310 310 310 309 301 308 309 305 308 310 310 311 313 315 313 311 311 311 309 309 308 307 306

GFSSW_925_thetae_078.txt.gz
Theta_e
317 317 316 314 310 309 309 309 308 308 308 308 308 309 309 310 312 314 318 314 315 312 314 313 314 315 315 315 315 310 313 314 316 315 316 313 315 313 313 314 315 315 317 319 329
316 316 316 314 311 309 308 308 308 307 307 307 308 308 309 311 315 319 317 314 313 311 314 313 313 313 311 315 313 311 312 313 313 313 314 314 314 313 314 314 315 315 319 324 334
316 316 316 314 311 308 308 307 307 307 307 307 307 308 308 313 319 317 316 313 312 310 313 313 313 313 313 314 315 313 312 312 313 313 313 314 313 312 310 313 312 314 318 324 331
315 315 314 312 311 308 307 307 308 308 308 308 308 308 309 317 309 315 315 313 312 310 313 313 311 311 312 314 314 315 313 313 313 313 313 314 312 313 310 312 312 309 318 325 328
314 312 312 311 310 308 308 308 308 308 308 308 308 308 314 314 315 311 311 312 312 311 313 311 311 311 310 312 312 313 312 312 313 312 312 313 313 313 311 309 309 309 320 324 327
312 312 311 311 310 309 308 308 308 308 308 308 308 310 315 311 315 311 310 310 311 312 312 312 310 310 311 311 311 311 311 311 312 312 312 312 311 312 310 308 309 310 317 322 323
312 312 311 312 310 308 308 309 308 309 308 308 308 311 310 310 315 311 311 312 312 313 311 312 312 311 311 313 312 312 312 311 311 311 313 311 308 310 308 308 310 308 310 315 320
313 313 312 311 311 309 309 310 310 309 308 308 308 312 309 312 314 311 311 312 312 313 313 312 313 313 312 311 311 311 309 308 310 310 312 309 307 307 308 307 308 308 305 306 310
314 314 314 314 314 314 315 315 314 312 308 308 313 311 310 311 312 312 312 312 312 312 312 313 314 311 311 309 309 309 307 310 310 309 312 311 309 309 311 310 310 306 305 304 305
317 317 316 317 318 319 318 317 314 308 307 308 311 307 308 309 314 312 312 312 311 310 311 312 308 310 307 305 306 310 311 311 310 312 312 312 310 309 308 309 308 307 306 305 305
319 318 319 319 319 319 318 310 308 308 312 306 306 307 310 312 313 312 311 312 311 310 309 311 310 310 310 307 307 309 311 312 311 312 313 311 310 309 308 307 306 305 304 305 305
318 319 319 320 320 319 319 314 312 312 311 309 307 308 311 312 313 312 311 311 310 309 310 309 309 309 309 309 310 311 312 311 310 312 312 311 310 308 308 308 307 306 305 304 304
315 317 319 318 319 319 319 316 315 314 316 316 309 308 308 312 311 312 309 310 311 311 311 309 309 309 310 312 312 311 311 311 311 310 310 310 307 307 308 308 308 306 305 305 304
311 315 317 317 318 318 319 316 316 314 319 319 317 312 310 309 309 312 310 311 312 311 311 312 312 310 312 312 311 312 311 311 311 310 309 308 307 308 308 308 307 306 303 303 304
307 312 316 317 316 318 317 318 317 315 314 315 315 310 308 307 310 313 310 311 311 311 311 312 312 312 312 311 310 311 311 312 312 310 312 310 309 307 307 308 307 305 305 308 307
302 305 313 316 316 316 317 318 316 316 316 317 313 312 310 310 311 310 311 310 309 310 310 311 310 310 310 311 310 310 311 309 308 306 308 308 306 305 307 308 310 308 308 305 306
300 303 310 314 316 317 317 317 321 319 316 317 315 311 311 311 312 311 311 311 311 312 312 312 311 311 310 311 311 310 307 308 309 309 308 307 308 306 307 307 309 308 305 304 303
300 301 305 310 314 316 315 318 319 319 320 314 314 312 313 311 311 311 311 312 310 307 310 312 313 311 310 310 311 309 307 308 307 311 309 308 310 309 308 307 305 306 306 306 306
299 301 304 309 313 315 315 315 318 318 319 315 314 315 315 312 311 311 310 310 309 307 308 310 310 310 310 309 310 311 311 307 308 296 308 308 308 308 307 308 309 308 307 307 307
300 301 304 308 310 314 315 315 317 317 317 315 318 315 316 313 312 311 310 310 310 308 307 308 311 310 310 310 309 309 308 312 309 307 307 308 308 309 310 309 310 309 309 308 307
301 298 303 307 311 312 316 315 315 315 317 317 319 317 314 314 311 312 312 310 310 310 307 309 310 311 310 310 310 311 311 310 309 308 307 307 308 305 308 310 309 310 310 308 307
299 298 304 308 312 310 312 313 313 316 316 316 315 318 319 312 312 313 313 313 311 310 309 309 310 310 311 308 308 309 310 310 311 310 307 310 311 306 308 306 307 308 308 307 306
298 298 302 305 308 308 307 309 310 313 315 315 316 316 316 319 319 317 315 313 309 311 313 311 313 311 313 311 310 311 311 310 309 307 308 310 311 305 305 306 305 307 307 305 305
298 298 299 303 302 304 306 308 310 308 310 312 314 314 314 314 315 317 317 314 311 312 313 312 312 310 313 314 313 315 313 315 312 308 309 311 311 309 309 309 309 307 306 305 305
299 298 298 297 303 304 303 306 309 308 308 307 309 312 314 314 315 314 315 313 312 311 310 312 310 313 313 313 314 315 315 314 315 315 314 314 315 314 312 311 309 308 307 307 306
298 298 296 297 297 302 303 303 305 306 307 307 308 309 310 312 312 313 313 312 313 310 311 308 310 312 310 311 312 313 312 313 313 313 313 312 313 310 309 308 308 308 307 306 305
296 297 297 297 298 299 301 302 302 303 303 305 305 306 307 308 306 305 306 307 309 309 309 307 309 308 305 305 308 306 308 309 309 311 311 312 311 308 308 307 306 306 305 304 304

GFSSW_925_thetae_081.txt.gz
Theta_e
317 318 318 316 314 310 310 310 309 309 309 310 308 309 309 309 312 313 315 312 314 313 313 313 314 314 315 314 312 309 312 314 315 313 315 311 314 311 311 313 314 314 318 318 336
316 317 316 317 314 313 309 309 308 308 308 308 308 308 308 310 315 318 316 314 313 312 313 313 312 312 311 315 312 310 311 313 312 312 313 312 313 312 314 314 315 314 318 322 335
316 316 317 316 313 311 309 308 308 307 307 307 307 307 308 312 317 314 316 313 312 311 313 313 312 312 314 313 314 311 312 311 312 312 312 313 313 311 311 313 311 313 317 324 331
315 315 317 315 313 310 309 308 307 307 307 307 307 307 309 317 308 315 316 313 311 311 313 312 310 310 312 314 313 314 313 310 312 312 312 312 312 312 309 311 310 309 315 324 328
315 315 314 312 311 311 309 308 308 308 308 308 308 308 313 314 314 311 313 313 311 310 312 310 311 310 312 311 312 312 310 311 312 312 312 312 312 311 310 308 308 307 319 324 328
314 314 313 311 309 309 308 308 308 308 308 308 308 309 315 308 315 310 310 311 311 311 312 310 309 309 309 310 312 309 309 310 311 311 311 311 310 311 309 307 308 310 317 321 324
313 312 311 311 309 308 308 308 308 308 308 308 308 312 310 309 314 310 310 311 311 312 310 311 311 310 310 311 310 310 311 310 310 311 311 311 308 309 308 306 309 307 308 317 320
312 312 311 311 310 309 309 309 309 309 309 308 308 312 307 312 314 310 311 312 312 313 312 312 313 311 310 309 308 309 307 307 307 310 311 308 306 307 308 308 308 306 304 305 312
313 312 312 312 310 310 313 314 314 313 309 308 311 309 309 311 312 311 311 311 312 311 312 313 312 310 308 308 307 307 305 309 309 308 312 310 309 308 309 307 308 307 304 303 303
313 314 313 313 314 316 318 317 314 309 307 309 310 307 308 309 313 311 311 311 310 310 311 310 307 308 305 303 306 310 309 309 309 310 311 311 310 308 307 308 307 305 304 304 303
316 316 316 317 318 318 317 310 306 306 310 305 306 308 308 313 312 311 311 311 310 307 309 309 309 308 308 306 305 306 310 310 310 311 312 310 309 308 307 306 305 305 304 303 304
318 318 318 319 319 319 318 312 308 309 307 308 306 309 311 312 312 311 311 310 310 308 309 309 309 308 307 308 309 310 310 311 309 311 311 310 309 307 306 307 307 306 304 303 302
317 318 319 319 319 318 319 316 315 315 313 314 308 308 309 311 309 311 309 309 308 310 308 308 308 307 308 308 309 309 309 309 309 309 308 308 305 304 305 305 306 305 304 303 303
313 315 317 317 317 318 318 315 316 314 316 317 313 309 309 309 309 311 309 310 310 309 308 309 309 308 309 310 309 311 308 309 310 308 307 307 305 306 306 305 305 304 302 302 303
308 313 315 317 316 317 317 316 316 314 310 312 315 309 307 307 309 312 309 309 310 310 310 309 311 310 310 310 309 310 309 310 309 308 310 309 308 306 305 307 307 304 305 304 303
302 308 313 316 316 316 317 318 315 317 313 318 313 311 309 309 310 309 310 309 308 310 309 309 309 309 310 309 309 308 308 306 306 304 307 306 305 303 304 307 308 305 303 303 303
301 302 305 313 316 315 315 316 320 318 313 316 315 310 309 310 312 311 311 310 310 310 311 311 311 310 309 310 310 308 306 307 307 308 307 305 306 305 306 306 306 306 305 305 304
299 300 304 310 314 316 315 318 320 315 317 313 313 309 310 310 311 311 310 311 309 306 309 311 313 311 309 310 310 307 307 308 306 308 307 307 309 307 307 306 306 306 306 305 304
297 301 303 307 313 315 317 317 318 319 315 315 313 313 314 311 310 311 310 309 309 306 308 310 310 309 309 308 310 310 308 305 306 295 307 306 307 307 305 309 307 307 306 306 305
298 301 302 307 309 313 314 315 316 316 317 314 317 315 315 312 311 309 310 309 310 307 306 308 310 309 310 309 309 309 307 311 307 305 305 306 307 306 307 309 308 307 307 306 305
300 299 302 307 311 313 312 313 314 316 317 317 318 314 314 313 311 310 310 310 309 308 307 306 309 310 309 309 309 309 310 308 308 307 306 305 307 303 306 308 308 307 306 306 305
298 298 303 307 314 312 313 314 314 317 316 316 316 318 313 311 311 312 312 311 311 308 308 308 308 310 310 308 306 309 308 308 309 309 306 308 308 305 306 306 306 308 308 307 304
298 297 301 305 312 310 307 311 313 315 315 315 317 316 315 318 317 315 313 312 309 310 310 310 311 309 313 311 309 309 310 308 307 307 307 310 309 306 305 305 305 307 306 303 303
297 298 298 303 303 306 307 309 310 308 314 313 314 312 313 313 313 317 316 313 311 313 312 311 311 312 312 314 311 314 314 313 310 311 310 309 309 307 306 310 308 306 305 305 304
297 297 297 300 304 302 304 307 309 309 308 310 312 312 313 315 312 313 312 313 311 310 311 311 314 313 313 314 314 313 313 314 314 311 310 313 312 310 311 309 308 306 305 304 304
298 296 296 296 298 303 303 304 307 307 308 308 309 310 312 312 311 313 312 313 314 309 312 308 313 312 312 310 312 314 312 312 312 313 313 313 313 310 308 306 306 305 304 304 304
295 297 296 298 297 301 302 302 303 304 304 305 307 308 310 310 307 306 309 309 310 310 310 307 307 306 312 306 310 310 307 309 309 309 309 310 310 307 307 306 305 305 304 304 303

GFSSW_925_thetae_084.txt.gz
Theta_e
315 317 317 317 318 316 314 310 310 310 310 311 309 309 309 309 310 314 315 311 314 314 313 312 314 314 315 312 310 309 312 314 314 312 314 309 313 310 310 312 312 312 316 318 333
315 316 317 317 317 315 313 310 310 309 309 309 308 308 308 309 313 316 313 314 314 312 312 312 311 312 311 313 310 311 311 313 310 309 312 309 312 311 313 313 314 314 315 321 333
315 316 317 317 316 314 312 310 309 308 308 307 307 307 308 310 316 312 314 314 312 311 312 312 312 311 313 313 312 310 311 311 312 311 310 311 312 310 311 313 311 312 314 324 331
314 315 316 316 316 314 311 309 308 307 307 307 307 307 308 316 307 315 315 313 311 311 312 311 310 310 312 312 312 313 311 309 311 311 311 311 309 311 309 311 309 307 314 323 328
314 315 315 315 313 312 310 308 308 307 308 307 307 308 313 315 313 312 314 312 311 311 312 309 310 309 312 310 311 312 310 310 311 311 310 311 312 311 309 307 307 307 317 322 329
314 315 315 313 312 311 309 308 308 308 308 308 308 309 314 308 314 310 312 312 311 310 311 309 309 308 308 310 311 309 308 310 310 310 310 310 309 310 308 306 307 310 313 320 324
314 314 314 312 310 310 308 308 308 308 308 308 308 312 310 309 314 310 310 311 311 311 309 311 309 309 308 309 309 307 310 309 309 310 310 310 307 308 307 305 308 306 306 313 319
314 313 311 311 311 310 309 308 308 309 309 308 308 312 305 312 314 310 311 311 311 312 311 311 312 309 309 308 307 308 305 307 306 309 310 307 305 306 306 307 307 305 303 304 307
314 311 311 311 311 309 310 310 311 312 312 308 311 308 307 312 312 310 311 311 311 311 312 312 310 308 308 306 306 305 305 307 307 308 310 308 307 307 308 306 308 306 304 302 302
312 312 312 311 311 311 314 316 314 310 308 310 310 307 308 310 312 311 311 311 309 309 311 309 305 307 304 305 306 307 307 307 306 309 310 310 309 307 306 307 306 304 303 302 302
313 313 313 313 314 317 317 312 306 307 308 306 306 307 308 312 311 310 311 310 308 306 309 308 307 307 309 305 304 305 307 308 308 309 311 309 308 307 306 306 305 304 303 303 302
315 315 315 316 318 318 314 307 306 307 307 307 306 309 310 312 311 310 310 309 309 307 308 308 308 306 306 305 307 308 309 309 309 310 310 308 308 306 305 306 306 306 304 302 301
313 316 317 318 319 318 318 315 314 314 308 312 307 308 309 310 309 310 309 308 307 308 307 308 307 306 307 307 307 308 308 308 309 307 306 305 305 303 304 304 303 304 303 301 301
308 315 318 319 318 318 318 316 315 314 312 314 309 308 310 309 309 310 309 309 309 308 306 307 307 306 308 307 306 308 306 308 308 308 308 305 304 305 305 304 303 301 301 302 301
306 310 316 317 316 317 317 315 316 312 310 311 313 308 307 307 309 311 309 309 309 309 307 308 309 307 309 309 307 309 307 308 307 306 308 308 306 305 302 307 306 303 301 301 302
304 307 313 315 316 317 317 317 314 315 311 317 312 309 308 309 310 309 310 307 307 309 308 308 308 309 308 307 308 306 305 304 304 302 306 305 304 303 304 306 307 303 304 304 303
302 302 309 309 316 316 315 315 318 315 311 315 315 309 308 310 311 310 310 310 309 310 310 311 310 309 309 309 308 306 306 307 307 306 306 304 305 303 305 306 305 306 305 303 302
298 304 306 307 314 315 315 317 320 314 313 312 312 308 309 310 310 310 310 310 308 306 308 310 311 310 309 309 310 306 306 307 305 306 306 306 307 305 305 305 304 305 306 304 303
297 301 303 306 311 313 317 315 314 315 314 314 312 311 310 309 310 311 309 309 308 305 308 309 309 308 308 308 309 309 307 304 305 293 304 305 305 305 305 306 306 306 305 305 304
299 301 302 305 308 311 316 314 315 316 315 313 317 312 312 310 311 310 310 308 309 306 306 308 309 309 309 308 307 307 305 309 305 304 305 305 306 304 309 308 307 306 306 306 304
300 301 302 306 308 310 312 312 314 315 317 315 315 314 313 311 310 310 310 309 308 307 306 305 308 310 309 309 308 308 308 306 306 306 305 304 305 302 307 306 306 306 306 304 303
298 301 302 307 312 307 309 312 314 317 316 316 316 316 312 310 310 310 310 309 310 305 307 306 308 310 310 307 306 307 307 307 308 307 304 306 306 304 306 305 305 306 305 303 302
298 298 301 306 310 309 308 313 314 315 315 316 317 316 314 314 314 312 310 312 309 308 308 307 308 306 312 310 308 308 307 307 305 306 306 308 308 304 303 305 305 306 305 303 304
297 299 298 303 303 307 309 311 312 313 313 312 312 313 313 315 313 316 315 312 311 312 312 310 310 309 310 311 309 311 312 308 308 309 309 308 308 306 305 308 306 306 305 304 303
296 298 296 301 305 304 305 307 310 310 311 312 313 312 313 314 313 314 313 312 311 309 311 311 314 313 312 312 312 312 312 311 309 309 310 309 307 308 306 308 306 305 304 303 303
298 296 296 297 297 303 304 305 307 308 308 311 311 312 312 312 312 313 310 311 313 311 312 309 315 312 312 313 311 314 312 311 312 313 313 313 313 310 308 306 305 304 302 302 302
294 296 296 297 298 302 303 303 303 305 305 305 308 310 311 310 309 308 308 309 309 311 312 312 311 313 315 308 312 315 311 310 310 310 311 314 310 307 308 308 306 305 303 302 301

GFSSW_925_thetae_087.txt.gz
Theta_e
315 316 316 318 318 318 316 315 314 311 311 311 310 309 309 309 309 312 313 311 312 313 313 312 313 313 314 311 309 308 314 315 315 311 313 308 313 308 309 311 311 316 315 318 331
315 315 316 317 317 318 314 314 312 311 310 310 311 308 308 308 310 315 311 311 311 312 312 312 311 312 311 312 310 312 313 314 311 310 311 309 312 311 312 312 313 313 313 322 332
314 315 316 317 317 317 313 312 311 310 309 308 308 307 307 309 315 313 311 313 314 312 312 312 312 311 313 312 311 310 313 310 310 310 309 310 311 309 311 313 311 313 313 325 330
314 315 315 316 317 315 313 311 310 309 308 307 307 307 307 314 307 314 314 314 312 311 311 311 309 311 312 312 311 313 310 309 311 310 310 310 308 310 309 312 308 308 313 326 329
314 314 315 315 316 314 313 309 309 308 308 307 307 308 312 316 315 313 314 312 310 312 311 308 310 310 311 310 311 311 310 310 309 308 308 309 311 311 309 307 305 307 317 326 330
314 314 315 315 315 313 312 308 308 308 308 307 307 308 314 310 312 310 313 311 310 311 310 309 308 308 308 309 310 309 308 309 309 309 309 310 308 309 308 305 306 309 311 319 327
314 314 314 314 312 312 310 308 308 308 308 308 308 311 310 309 313 310 311 311 310 310 309 310 308 309 307 309 307 306 309 309 309 309 309 309 308 309 306 304 306 306 306 311 319
314 314 314 313 311 310 308 308 308 308 309 308 308 312 307 311 313 310 310 310 311 310 311 311 310 307 308 306 305 306 305 309 306 308 309 307 308 305 305 307 307 305 304 304 306
314 313 314 312 310 309 308 309 309 310 311 308 309 308 306 312 312 310 311 311 310 310 311 311 309 307 307 306 307 304 307 307 306 307 309 307 307 306 307 306 307 305 304 303 302
314 314 312 311 311 309 310 314 313 311 309 309 309 308 307 310 311 310 310 311 309 309 310 308 305 307 303 305 309 308 305 306 305 308 309 309 309 306 306 306 306 305 304 303 303
314 312 312 311 311 312 316 312 307 307 308 306 306 307 307 311 310 309 310 309 307 306 309 307 307 308 307 305 304 304 304 306 307 309 310 309 308 307 306 306 305 305 304 303 303
313 312 312 312 313 316 316 306 305 307 307 306 305 309 310 311 310 309 309 308 308 307 307 308 307 306 305 303 305 306 307 308 308 308 309 308 309 307 306 306 305 304 303 302 301
314 314 314 315 316 317 313 313 311 312 306 308 306 309 310 310 309 309 308 306 306 308 307 307 307 304 306 306 307 307 306 307 308 306 304 303 305 303 304 303 302 300 301 302 302
309 315 316 317 317 317 317 314 314 314 310 312 308 308 310 309 309 309 308 308 307 307 305 306 305 305 305 306 305 307 305 306 307 307 306 304 304 305 303 305 303 301 301 302 303
305 315 316 317 317 317 317 316 315 309 308 309 309 306 307 307 308 310 308 308 307 307 306 307 307 306 307 307 305 306 304 306 306 306 307 307 306 305 301 307 304 303 304 304 303
305 310 316 316 317 317 315 316 313 311 308 315 309 308 308 308 309 308 310 305 306 309 306 308 307 307 306 306 307 304 304 303 302 302 306 305 304 303 303 306 305 306 305 304 303
305 305 312 314 315 316 316 314 316 312 310 315 313 308 307 309 310 309 310 308 308 309 309 309 310 308 307 308 307 305 305 307 309 307 307 303 305 304 304 304 305 307 306 304 302
298 306 305 310 314 315 314 316 310 310 310 312 310 307 308 309 310 309 309 310 308 306 308 309 310 309 308 308 309 305 306 309 307 307 306 305 308 305 304 303 304 305 305 303 302
298 303 305 306 310 313 316 319 312 313 312 312 309 309 309 309 310 310 309 310 308 305 307 307 307 308 307 307 308 308 307 303 305 292 304 306 305 304 305 306 305 306 304 303 302
299 301 303 305 308 310 317 316 315 314 312 312 316 311 310 309 310 309 309 308 308 305 305 308 309 308 308 307 307 306 304 308 304 303 304 304 305 306 308 307 306 306 305 303 302
300 302 302 305 307 308 312 312 314 314 315 314 315 313 310 310 309 310 309 308 307 306 305 305 309 310 308 308 308 307 307 305 305 305 304 303 305 300 309 307 306 305 304 303 301
298 302 302 306 307 303 308 312 313 317 315 315 314 312 311 309 310 310 309 308 306 305 306 306 308 311 310 307 305 307 306 306 307 306 302 305 305 303 306 305 305 305 303 302 302
298 299 300 306 309 308 306 312 315 317 317 316 317 315 313 310 311 309 308 310 309 306 307 306 307 304 310 309 307 307 306 305 304 306 305 308 306 303 304 303 304 304 303 303 301
296 299 299 304 304 307 308 308 312 312 313 312 314 313 313 313 313 314 314 312 310 310 311 308 307 307 309 308 308 310 307 306 307 309 307 308 307 306 304 305 303 304 304 303 302
295 297 297 303 305 305 308 307 310 312 312 311 310 312 314 315 314 314 314 311 309 309 310 309 308 311 311 311 309 309 309 306 307 308 308 308 307 308 305 306 305 305 303 303 302
295 295 296 297 298 304 306 307 309 308 312 313 312 311 310 312 313 312 312 313 314 311 311 309 311 311 311 311 310 313 310 308 309 307 310 305 307 306 305 304 305 305 303 302 302
294 296 296 298 299 303 304 304 304 306 307 307 310 311 311 310 309 308 308 308 308 309 310 311 311 310 313 310 310 315 312 310 309 309 309 312 309 306 307 307 306 304 302 301 300

GFSSW_925_thetae_090.txt.gz
Theta_e
315 315 316 317 317 319 319 317 314 314 315 313 311 310 310 310 309 310 313 312 311 312 313 312 313 313 314 315 314 314 322 322 321 318 318 316 318 314 314 317 319 323 320 326 335
315 315 316 316 317 318 318 316 313 313 313 313 311 309 309 309 309 313 311 311 311 312 313 312 314 314 317 316 316 320 321 322 319 318 318 316 318 317 317 317 317 319 318 329 335
315 315 316 316 317 318 317 314 313 313 311 310 311 308 308 308 314 312 310 311 311 312 312 312 313 315 317 317 315 317 320 317 315 314 315 317 316 315 317 318 318 318 319 329 335
315 315 316 316 317 317 317 314 312 310 309 309 308 307 307 312 309 313 313 311 313 312 311 311 313 315 317 317 314 317 313 314 313 313 313 316 314 315 316 317 314 315 317 329 335
315 314 316 315 316 316 315 313 310 309 308 308 307 307 310 315 314 313 314 313 311 311 311 313 314 314 316 315 314 315 313 313 312 311 313 312 314 315 315 314 311 311 317 326 332
315 314 315 315 316 316 314 312 309 308 308 308 308 310 314 310 311 312 313 312 310 311 310 311 314 313 313 315 315 312 313 313 312 312 312 314 312 312 312 310 310 312 316 322 329
315 314 314 315 315 314 313 310 309 308 308 308 308 309 312 310 312 310 312 311 310 311 311 310 309 312 312 313 310 311 313 312 312 312 313 312 313 313 311 308 310 312 314 316 324
315 314 314 314 315 313 312 309 309 308 308 308 308 312 309 311 312 310 310 310 310 310 310 309 309 311 312 310 310 311 313 315 310 312 311 311 316 309 310 310 311 311 312 312 314
314 313 314 314 313 312 310 308 309 309 309 308 309 310 309 312 310 310 310 311 310 310 310 310 310 311 310 314 314 312 313 312 309 310 312 311 314 309 310 312 312 313 312 311 311
314 314 314 314 311 311 310 310 313 312 309 310 309 310 309 312 310 310 310 310 311 311 312 312 312 313 313 314 313 314 311 311 311 311 312 313 313 312 311 310 314 314 313 313 312
314 313 313 313 311 311 314 313 311 310 310 309 310 308 308 311 309 309 309 309 309 312 313 310 313 314 313 312 310 312 310 311 309 311 312 313 313 313 313 312 314 314 313 311 311
314 313 313 311 311 312 315 311 309 309 309 307 305 309 311 310 311 310 309 312 312 311 311 312 312 312 309 308 309 309 311 311 311 310 312 312 314 314 312 310 309 309 309 309 310
313 313 311 312 312 315 314 310 308 307 309 308 307 310 311 310 311 311 310 309 311 311 311 312 310 308 308 308 310 310 310 311 312 309 308 309 312 310 308 307 308 307 307 308 309
313 312 312 312 314 315 315 311 312 313 310 311 308 308 311 310 310 309 308 309 308 311 309 310 306 309 310 309 310 311 309 310 311 312 311 309 310 312 308 310 309 311 311 311 311
313 314 314 314 316 316 314 313 314 309 313 311 308 306 309 309 311 311 308 309 309 309 310 310 308 308 310 310 309 310 309 310 310 312 312 312 311 312 307 311 312 312 311 311 310
308 314 314 315 316 316 315 314 313 314 314 314 309 309 310 309 310 310 311 308 308 310 309 310 307 308 309 306 308 307 309 309 309 311 313 311 312 311 309 311 312 311 310 310 309
306 308 313 314 317 315 315 316 319 318 311 316 310 309 310 311 312 311 312 311 311 311 310 311 310 309 308 309 308 309 312 313 313 314 312 306 309 312 307 308 313 312 311 309 309
305 305 309 311 314 314 315 318 318 312 312 313 311 310 310 310 311 311 312 312 309 309 311 311 311 311 309 311 311 311 311 314 318 313 312 306 311 311 307 307 311 310 309 308 309
304 305 306 307 310 314 317 318 314 312 314 312 309 310 310 310 311 312 313 312 311 309 311 311 310 308 308 307 311 310 310 308 309 303 313 311 310 308 308 309 310 309 309 309 309
301 304 304 306 309 312 318 315 313 315 313 312 313 310 310 311 312 312 312 311 311 308 307 309 311 309 308 308 308 309 308 311 310 318 316 309 310 312 311 312 311 310 310 309 308
300 305 303 306 307 309 316 314 314 315 313 314 315 312 310 310 310 311 312 309 310 308 307 308 312 311 309 311 312 308 309 308 310 311 321 313 310 310 312 313 312 311 310 309 309
299 304 301 303 305 301 308 313 313 316 316 316 314 313 310 310 311 312 311 309 307 307 309 308 312 314 312 308 306 308 310 310 312 312 308 311 313 306 311 312 312 310 308 308 308
300 301 300 304 309 308 303 311 314 317 317 316 317 315 311 310 311 311 310 310 307 308 309 309 313 316 312 310 308 309 308 310 309 311 315 316 312 306 310 310 310 310 308 308 306
299 302 301 305 305 305 307 309 314 313 316 314 316 314 313 313 314 312 312 312 310 308 310 308 311 312 312 311 312 312 310 308 310 314 312 312 311 309 310 311 310 309 309 308 307
298 299 298 306 305 305 305 306 308 311 311 311 312 315 315 315 316 315 314 313 311 310 311 310 314 310 310 311 310 312 312 309 310 311 311 311 309 310 311 311 310 309 309 307 306
299 299 298 299 300 304 306 308 307 307 308 309 311 313 313 315 315 315 314 314 315 312 312 311 315 312 313 312 313 313 312 311 311 311 311 310 309 309 311 310 309 309 308 308 307
294 296 298 299 300 305 306 305 306 305 306 307 309 309 309 309 310 310 310 310 310 313 313 313 313 315 315 311 315 315 314 312 311 311 310 311 310 308 309 309 310 310 308 308 306

GFSSW_925_thetae_093.txt.gz
Theta_e
315 315 316 317 318 318 319 319 319 318 317 316 316 314 312 312 311 313 314 312 312 312 312 312 313 315 316 318 319 319 324 325 323 321 320 320 320 318 317 319 321 323 322 328 334
315 315 316 317 317 318 319 319 318 315 314 313 313 313 312 311 315 314 312 310 310 311 313 313 315 315 317 318 319 320 323 323 322 320 319 320 319 318 317 318 319 322 324 332 334
315 315 316 316 317 317 318 318 318 315 314 314 314 312 310 309 313 311 310 309 310 311 313 314 315 315 318 318 319 320 323 322 320 318 319 320 319 318 318 318 319 319 322 333 334
315 315 315 316 317 317 318 318 317 314 313 312 312 310 308 314 310 314 310 310 311 311 313 313 315 316 317 318 318 319 316 318 316 315 317 319 318 318 318 318 317 319 321 330 333
315 315 315 316 317 317 317 317 315 313 311 310 310 308 311 313 313 313 312 311 313 313 313 315 315 316 317 317 317 319 316 316 315 314 316 316 317 317 317 317 315 315 320 327 330
316 315 315 316 316 317 317 316 314 312 309 308 308 308 316 311 311 313 314 313 313 312 314 314 314 315 315 316 317 317 316 316 315 315 314 316 316 315 316 315 315 314 318 323 327
316 315 314 316 316 316 316 314 312 310 309 308 308 313 313 311 311 312 312 312 311 313 314 313 313 314 315 316 313 316 316 316 315 315 315 314 315 315 314 312 313 314 316 319 324
316 314 314 315 315 316 315 313 311 309 308 308 308 314 310 310 311 310 311 310 310 311 312 312 311 313 315 313 313 315 316 317 314 314 314 314 318 317 313 313 313 314 315 316 319
316 314 314 314 315 315 314 312 310 310 309 309 311 314 309 311 310 310 311 311 310 311 311 311 313 314 313 314 314 315 316 316 313 313 314 314 316 313 312 314 313 313 313 314 314
315 314 314 314 314 314 312 312 311 311 313 313 310 312 310 313 312 310 310 311 312 312 312 313 314 314 314 315 317 316 316 314 315 312 313 314 315 314 313 313 315 315 315 315 314
315 314 314 314 314 312 313 315 313 313 311 309 310 309 310 310 310 311 310 311 312 313 313 314 314 314 314 314 315 316 314 314 313 312 313 314 314 314 314 314 314 315 316 315 314
315 314 314 313 312 311 314 311 310 310 311 309 308 310 312 311 311 311 310 312 312 313 314 313 313 314 314 313 313 314 313 313 313 312 314 314 314 314 314 314 314 313 313 313 312
315 314 314 313 311 313 316 311 310 310 310 309 308 311 312 311 312 311 311 313 312 312 313 313 313 312 311 310 312 312 313 313 313 313 312 312 313 314 311 310 310 310 310 311 312
314 314 313 312 313 313 315 311 311 313 311 310 309 309 312 311 312 310 311 312 312 312 312 312 309 310 311 311 312 312 311 312 313 314 312 312 311 314 312 312 312 313 313 313 313
314 313 312 311 312 314 313 314 314 314 313 311 309 308 311 310 311 311 309 310 312 312 310 310 309 310 312 312 312 312 311 312 313 313 313 312 311 312 310 312 314 314 314 314 314
311 312 311 314 315 314 314 313 315 314 314 313 309 310 311 310 311 310 311 310 310 311 311 311 308 310 311 309 311 310 312 312 313 312 311 311 312 312 312 312 314 314 314 313 312
307 313 313 314 316 314 314 317 318 320 311 315 310 310 310 311 312 312 311 311 311 310 311 312 310 310 309 310 310 312 311 312 312 314 312 309 313 312 310 311 314 314 313 312 312
305 310 311 313 314 314 315 317 318 312 311 313 310 310 311 311 312 312 312 311 311 311 311 311 311 311 310 311 311 312 311 315 321 316 314 308 312 312 309 310 314 313 312 312 312
304 307 307 308 312 314 317 317 316 311 312 314 311 311 311 311 312 312 312 312 312 311 311 311 311 310 310 310 311 312 311 311 311 308 315 312 311 310 310 311 313 313 312 312 312
303 304 304 305 309 312 317 316 312 313 313 311 311 310 311 311 312 312 312 312 312 311 310 311 313 310 309 310 309 311 310 310 311 321 318 312 312 312 311 311 312 312 312 313 312
303 303 303 305 307 314 316 315 312 315 313 312 312 310 310 311 311 312 312 312 312 311 309 310 313 311 310 311 311 309 310 310 310 313 327 317 311 311 313 312 313 313 313 312 312
302 305 302 302 306 304 314 315 311 315 315 315 314 311 310 311 310 312 312 311 311 310 309 310 313 314 312 309 308 311 311 311 312 314 311 315 315 309 312 312 314 313 313 312 312
302 303 301 301 308 307 306 312 313 314 317 316 316 314 311 310 311 311 311 310 308 309 310 310 316 318 313 311 309 311 311 312 312 315 321 318 312 308 310 313 313 313 312 311 310
301 304 303 304 301 304 307 310 314 314 315 316 317 315 312 311 311 312 312 313 310 309 309 310 315 312 313 312 312 312 312 310 312 314 313 313 312 311 312 314 313 313 311 311 309
301 300 300 307 306 306 305 306 310 314 315 316 316 316 314 316 313 313 313 313 312 310 310 310 314 312 311 311 312 313 312 312 311 311 312 312 311 312 312 313 313 312 311 311 310
301 300 299 301 302 304 305 309 308 307 308 315 316 315 316 317 315 316 314 313 313 312 311 311 318 312 316 312 312 313 313 312 311 311 311 311 311 312 312 312 312 311 311 311 309
297 298 300 300 303 305 305 306 307 306 305 304 311 313 314 314 313 313 313 313 314 314 312 314 316 317 318 314 315 316 313 313 312 311 311 311 311 311 312 312 312 311 311 310 309

GFSSW_925_thetae_096.txt.gz
Theta_e
315 315 315 316 317 319 319 320 320 321 321 322 322 323 323 323 317 313 315 313 314 314 311 314 320 314 316 318 319 320 323 325 324 323 320 319 319 318 317 318 321 321 326 330 334
315 315 315 315 317 318 319 319 320 320 320 320 318 318 313 313 312 315 312 312 312 313 311 312 313 315 316 318 318 319 323 325 322 321 319 318 317 316 316 317 320 321 329 333 334
316 315 315 315 317 317 318 319 320 319 318 317 314 314 312 313 315 313 316 312 311 310 313 313 316 315 316 318 319 318 323 322 318 316 318 318 318 316 316 317 316 319 329 332 334
316 315 315 315 317 317 318 319 319 318 316 315 315 314 314 312 317 313 311 311 310 311 313 314 314 316 317 318 317 319 318 318 317 315 318 318 317 317 317 316 315 317 326 332 332
317 316 315 316 316 317 317 318 318 317 315 314 315 312 313 313 315 313 312 312 311 311 313 314 315 316 317 317 317 317 315 315 314 315 315 316 317 317 317 313 312 315 324 329 330
316 316 315 315 316 316 317 318 317 316 314 313 313 310 316 312 311 312 313 312 312 312 313 314 314 315 315 316 317 316 316 314 314 314 314 316 315 314 315 312 312 315 318 324 327
316 315 315 315 316 317 317 317 316 314 312 311 310 311 312 313 310 313 315 313 313 312 314 314 314 314 315 316 314 315 315 314 314 314 314 314 314 313 311 312 312 312 313 317 323
316 316 315 315 316 317 317 316 314 312 311 309 310 314 311 312 311 312 312 312 312 313 313 314 313 314 315 313 314 315 316 316 314 314 313 314 318 314 310 310 311 310 311 315 319
316 316 315 315 316 316 316 314 313 311 311 310 312 315 311 310 310 311 311 311 311 311 311 311 312 314 313 313 313 314 315 316 313 313 313 313 316 310 312 312 310 310 310 312 313
317 316 314 315 315 316 315 313 312 312 313 313 312 313 310 312 311 310 311 311 312 312 311 313 314 314 312 312 314 315 314 315 313 311 313 312 314 312 310 312 313 310 311 310 311
316 316 314 314 314 315 314 315 316 314 312 310 310 310 311 311 310 310 311 311 312 313 313 313 313 313 312 312 313 315 314 313 313 312 313 313 314 312 310 310 311 312 310 311 311
316 316 314 314 314 314 314 312 311 311 312 311 308 311 311 311 311 311 310 311 313 312 313 313 313 313 313 312 312 313 313 313 312 312 313 313 312 312 311 311 311 311 312 311 310
317 315 314 314 314 313 315 312 310 309 310 311 309 311 312 312 312 312 310 311 312 312 313 313 313 312 312 311 312 312 313 312 314 312 312 312 311 313 312 311 309 309 309 310 312
315 315 314 314 313 313 315 313 311 311 311 310 309 310 312 312 313 310 310 311 311 312 313 313 310 311 311 311 311 312 311 313 313 311 310 310 306 311 308 308 309 310 308 308 310
316 315 314 313 311 313 313 314 312 315 317 311 309 310 312 311 311 311 309 310 311 311 311 311 309 311 312 312 312 312 311 312 314 313 312 311 309 310 308 309 310 311 311 311 310
315 314 314 312 313 312 313 314 315 318 318 311 309 312 312 311 311 310 310 309 310 310 310 310 308 310 311 310 311 310 311 312 312 310 310 309 307 309 308 309 311 312 311 311 310
313 314 313 311 314 312 314 315 315 316 312 313 309 311 310 311 312 311 310 310 311 310 311 310 309 309 309 309 310 311 310 311 310 311 311 306 310 309 309 312 311 311 310 309 309
308 313 311 312 314 313 314 314 313 310 311 312 310 311 310 311 312 311 310 310 309 309 310 311 312 309 308 310 310 310 309 314 313 315 311 306 309 309 308 310 310 310 309 309 309
307 308 310 308 312 314 315 313 311 311 311 312 310 311 311 310 311 312 310 310 309 309 309 310 312 309 309 310 310 310 310 310 309 304 313 308 308 309 308 310 311 310 309 309 309
303 305 304 306 311 313 314 312 311 312 312 311 311 311 311 311 312 311 311 310 310 310 309 310 312 310 309 309 309 309 308 308 310 308 311 311 310 308 309 309 311 310 309 310 309
301 302 301 304 308 312 314 312 311 313 312 311 311 310 311 311 311 311 311 310 310 310 308 310 312 311 309 310 310 308 309 309 308 313 314 313 308 308 309 309 311 310 310 310 308
302 304 301 302 309 309 311 312 311 314 315 313 314 310 310 310 310 311 310 311 309 309 309 310 312 312 311 309 308 308 310 309 310 310 308 314 311 309 309 308 310 310 310 309 308
303 302 301 301 309 308 309 311 312 316 316 315 315 312 311 310 311 311 310 309 309 309 309 309 313 312 312 310 309 310 309 309 309 311 311 310 308 307 308 308 310 310 309 310 308
303 305 302 301 298 304 309 312 312 313 314 315 316 314 311 310 310 310 313 312 309 309 309 311 314 312 310 310 310 310 310 309 309 311 310 309 308 309 308 309 310 310 309 310 308
302 302 301 305 304 305 305 308 312 313 314 315 317 316 313 313 310 312 311 312 311 310 309 310 312 311 309 308 310 310 310 310 309 310 309 309 309 308 308 310 310 310 309 309 308
302 300 299 301 303 305 304 308 310 311 311 316 317 316 314 314 311 313 312 313 312 311 310 309 311 310 309 310 311 311 310 310 310 309 309 309 307 307 308 309 309 310 309 310 308
298 299 301 302 304 304 304 307 307 306 304 305 310 315 316 316 312 312 312 311 312 310 310 310 311 312 311 312 311 310 310 310 310 309 309 309 309 309 308 310 310 309 309 309 308

GFSSW_925_thetae_099.txt.gz
Theta_e
316 316 315 316 317 319 320 321 322 323 321 321 321 322 319 321 314 312 313 312 316 313 317 315 321 324 322 314 316 316 319 322 323 318 318 315 317 315 315 317 318 322 326 328 334
316 315 315 315 316 318 319 320 320 321 322 322 321 319 318 322 319 315 312 312 314 312 319 324 323 323 316 314 315 315 319 322 318 315 316 315 315 314 315 317 318 330 331 332 333
317 315 315 315 316 318 319 320 320 320 321 321 321 315 316 322 316 316 315 311 312 315 316 324 324 320 316 314 315 315 318 319 316 315 315 314 314 314 312 316 317 332 332 331 332
317 315 315 315 316 317 318 319 319 320 320 320 318 314 313 318 327 316 323 318 312 311 312 314 317 322 315 315 315 317 317 316 315 314 315 315 313 313 314 314 313 328 330 331 330
317 316 315 315 315 317 318 318 319 319 319 317 317 315 312 313 316 313 321 321 311 312 313 313 318 324 316 315 315 316 315 314 313 313 313 313 314 314 312 311 313 325 330 329 330
317 316 315 315 316 317 317 318 318 318 316 316 316 313 314 311 311 312 313 316 311 311 313 313 315 317 314 314 314 313 314 313 313 313 313 313 313 314 312 309 314 325 327 327 329
317 316 315 315 316 316 317 318 317 317 316 315 316 312 312 312 311 312 314 311 311 312 312 313 313 313 313 314 313 312 313 313 313 313 314 311 313 313 311 309 311 313 318 325 326
316 316 315 315 316 316 317 317 316 315 315 314 314 312 311 311 311 312 315 314 313 313 312 313 313 312 313 312 313 314 312 313 313 313 312 313 315 312 307 308 309 308 308 314 319
316 316 315 315 316 316 317 317 315 313 314 312 313 314 310 311 310 311 312 311 312 312 311 313 313 312 312 310 310 312 312 313 312 312 311 312 313 311 307 308 307 306 307 310 313
315 316 315 315 316 317 316 314 313 313 314 313 312 311 310 311 310 311 311 311 310 309 310 311 311 311 308 308 311 311 312 313 311 311 312 311 312 309 309 309 308 306 305 309 310
315 316 315 315 315 316 315 314 314 314 314 311 311 309 310 311 310 310 311 310 311 310 310 311 311 312 310 309 310 311 311 312 310 310 311 309 310 309 308 308 309 306 306 306 306
316 316 315 315 315 315 313 311 310 311 313 311 309 310 310 310 310 309 311 310 310 311 310 311 312 310 310 310 310 310 311 311 311 311 310 310 311 309 308 308 308 308 306 307 306
316 316 315 314 314 315 313 310 309 308 308 310 309 310 310 311 310 310 309 309 310 310 310 311 312 311 311 310 310 310 310 309 310 311 310 310 308 311 310 308 308 308 306 306 305
316 316 315 314 314 314 313 311 310 311 308 310 308 310 311 311 311 310 309 309 309 310 310 311 310 311 310 309 309 310 310 310 311 308 307 306 305 306 307 308 307 307 305 306 308
314 315 314 314 314 313 311 314 313 313 312 308 308 309 310 310 309 309 309 309 309 310 310 311 309 310 310 310 309 310 310 311 310 310 308 309 305 304 306 308 307 306 306 304 306
316 315 314 313 313 313 312 314 312 315 315 309 308 312 312 309 310 308 309 308 309 309 308 309 307 309 310 308 309 309 309 308 308 307 308 306 304 304 306 307 307 307 307 308 306
312 315 314 312 312 311 313 313 312 315 310 309 309 312 310 310 310 309 309 308 308 309 310 308 309 308 308 309 308 309 307 308 307 309 308 305 306 305 307 306 307 308 308 307 306
311 315 314 312 311 311 314 311 312 311 310 309 309 310 309 310 310 309 308 308 307 307 309 309 310 308 307 308 309 307 307 308 309 311 308 305 307 307 307 308 308 309 308 306 306
311 311 310 309 312 312 313 312 310 310 310 309 309 310 308 309 309 309 308 309 308 306 309 309 311 308 308 309 308 308 309 308 307 297 308 306 305 306 307 310 309 308 308 307 306
303 306 304 307 312 312 312 311 309 309 309 308 310 308 308 309 310 308 308 308 308 307 307 308 311 309 308 308 308 308 306 309 308 309 308 307 306 305 308 306 309 309 308 307 306
300 304 301 306 312 311 313 310 308 312 309 309 309 309 307 308 308 308 308 308 307 307 308 309 311 310 308 309 308 307 307 307 309 308 307 306 306 303 306 306 310 309 308 308 307
299 303 299 305 311 310 311 309 308 312 313 312 308 308 308 307 309 308 309 308 307 308 308 309 310 311 309 308 307 308 308 307 309 308 308 309 308 307 306 305 309 308 308 307 306
298 299 299 302 308 308 309 310 310 314 314 314 313 310 308 308 309 308 308 308 307 308 308 310 310 310 311 309 309 309 308 307 307 307 307 306 306 306 305 304 307 308 307 308 306
301 304 300 299 299 307 309 310 310 312 314 314 313 311 309 309 309 309 310 310 309 308 310 311 312 310 310 309 309 310 309 307 307 309 308 307 306 307 306 307 307 307 308 308 306
299 301 301 303 303 304 308 309 309 313 312 313 315 312 310 309 310 309 312 311 309 309 308 310 310 309 309 308 309 309 309 308 308 309 308 308 308 305 305 306 308 308 308 308 307
299 298 299 301 302 304 305 307 309 309 312 314 315 314 312 310 309 310 311 310 309 310 308 308 309 309 308 307 309 310 308 309 309 308 308 309 307 305 305 306 307 308 309 309 308
297 298 300 303 302 303 304 306 309 309 305 306 308 313 315 314 311 310 309 309 309 309 308 309 310 309 313 309 309 311 310 308 308 308 308 308 309 305 306 308 308 308 309 309 308

GFSSW_925_thetae_102.txt.gz
Theta_e
316 316 315 315 315 319 321 325 322 324 321 317 321 321 319 314 311 311 313 314 313 324 322 318 316 322 317 312 314 314 317 320 321 315 317 315 315 314 314 317 322 324 327 330 333
317 316 315 314 316 319 320 323 323 321 321 319 320 323 322 320 315 315 312 314 314 322 323 319 324 321 317 313 313 313 317 320 318 314 315 314 314 313 317 318 328 330 328 332 330
318 316 316 315 316 318 319 322 322 323 322 319 321 321 320 321 322 320 313 314 314 314 320 323 324 320 321 317 313 314 316 319 317 314 314 313 313 312 314 316 325 332 332 331 330
318 316 315 314 315 317 319 320 321 321 322 321 321 321 317 319 323 321 315 316 313 314 325 325 324 324 322 319 314 315 314 314 315 314 314 313 311 312 313 312 317 330 331 331 330
317 317 315 315 315 316 319 320 320 320 320 320 321 317 314 314 320 313 319 313 313 312 319 322 326 323 324 318 315 314 314 313 313 314 314 311 312 312 313 311 322 328 330 330 330
317 317 315 315 315 316 318 319 320 320 319 319 318 313 312 319 317 320 316 316 318 313 312 324 325 323 323 320 318 313 314 313 312 312 312 312 312 313 311 311 327 329 329 329 329
317 317 315 315 315 317 318 319 319 319 318 317 316 312 312 314 310 318 313 322 321 312 312 316 324 325 322 317 319 312 313 312 312 313 313 310 313 312 309 313 327 328 328 328 328
318 317 315 315 315 317 317 318 318 318 316 316 315 311 308 309 311 311 316 316 318 311 312 312 320 321 313 312 312 312 310 312 312 312 311 311 312 311 307 312 322 322 322 326 326
317 317 316 315 316 316 317 317 317 316 315 316 315 312 309 310 311 311 314 313 312 312 312 312 315 311 312 310 312 311 312 312 312 310 311 312 312 311 306 308 309 308 311 317 322
315 317 316 315 316 316 316 317 315 315 315 313 312 312 308 309 310 311 313 312 311 310 310 309 310 311 309 309 315 311 311 311 311 310 310 310 310 309 306 305 306 304 304 307 312
312 317 316 315 316 316 316 314 314 314 314 311 311 311 308 310 310 311 310 310 312 310 311 310 311 313 312 308 309 310 310 312 310 309 310 309 310 308 307 307 305 304 304 305 308
310 317 316 315 316 316 314 311 311 310 313 311 310 309 309 309 309 309 310 309 310 312 310 311 312 311 311 309 310 310 310 310 310 310 310 309 309 308 307 306 305 305 304 306 305
309 317 315 315 316 315 313 310 310 309 307 308 309 309 310 310 309 309 308 308 309 310 310 311 311 310 310 309 309 308 309 308 311 309 309 308 308 310 309 306 307 305 304 305 304
311 317 315 315 315 314 312 310 309 308 307 308 309 308 310 310 310 309 309 308 308 311 309 310 310 310 310 310 310 309 308 308 309 307 308 306 308 303 307 307 306 306 304 304 303
311 316 315 315 315 313 312 312 310 310 310 307 307 309 309 309 309 309 308 308 308 308 309 311 309 310 311 311 308 310 309 310 309 307 307 308 304 303 305 307 306 305 303 303 304
311 316 315 315 314 314 311 314 312 313 314 309 308 311 310 309 309 307 308 308 307 308 308 309 307 308 310 308 308 308 308 306 306 306 308 305 305 304 305 306 308 306 304 303 304
309 316 315 314 314 313 310 312 312 312 308 308 309 311 309 309 309 308 309 308 308 309 310 307 308 307 308 309 309 309 308 308 307 309 310 305 303 306 304 304 305 306 305 305 305
307 314 315 313 313 311 312 310 311 309 309 306 309 309 309 309 309 308 308 310 306 307 307 309 309 308 307 309 309 306 308 308 307 308 306 305 307 307 304 304 304 304 305 305 305
307 313 311 311 312 312 311 312 310 310 309 308 310 310 309 309 309 308 308 311 308 305 309 308 309 308 307 308 308 308 308 306 307 298 308 305 304 304 306 306 308 307 307 306 304
303 310 304 310 312 312 311 310 308 309 308 308 309 308 309 310 309 307 307 309 308 305 306 307 310 309 308 307 308 308 306 310 307 309 309 307 306 304 306 305 307 307 307 305 304
300 305 302 310 311 313 313 311 308 308 307 308 309 308 307 309 308 307 308 307 307 306 306 308 310 309 308 308 308 307 307 306 307 308 310 306 306 302 305 306 307 307 306 306 305
297 304 300 309 311 312 312 309 308 312 309 311 308 308 307 308 308 308 307 307 306 305 307 309 309 310 308 308 307 307 307 306 309 308 306 308 307 305 303 304 305 307 307 305 305
297 298 299 307 310 310 310 310 309 312 312 311 308 308 306 308 309 307 306 306 306 306 308 308 310 310 311 308 308 308 307 306 306 306 309 308 307 303 304 305 304 307 306 306 304
300 304 298 299 300 309 310 311 310 312 314 313 311 308 308 308 308 308 307 309 308 307 310 310 310 310 310 309 308 309 308 306 307 308 306 307 306 305 306 306 306 306 306 306 305
300 301 298 304 304 309 309 309 310 313 312 313 314 309 309 309 309 309 310 309 308 310 308 309 308 309 308 307 308 308 309 308 307 308 308 308 305 305 303 305 306 306 306 307 306
298 300 299 301 301 309 310 309 310 309 311 313 312 312 311 309 309 308 310 308 308 308 307 307 305 307 307 307 308 309 307 308 308 308 306 306 305 304 303 304 306 306 308 308 307
297 298 300 302 302 304 307 308 309 308 306 308 310 313 313 312 310 309 308 307 308 308 307 308 308 307 310 308 310 310 309 307 308 307 307 308 308 303 304 305 306 306 308 309 308

GFSSW_925_thetae_105.txt.gz
Theta_e
319 317 317 315 314 316 320 323 326 326 325 315 316 315 314 313 313 313 314 314 314 319 317 318 316 318 315 313 312 312 316 319 320 314 316 313 315 313 314 317 321 323 328 330 334
318 317 316 315 314 315 321 323 326 325 324 316 318 316 315 311 312 313 314 315 315 322 318 318 322 318 318 314 313 312 316 319 317 312 315 313 313 312 318 323 329 329 327 331 333
318 316 316 316 314 316 321 324 325 325 323 317 320 320 320 316 319 317 313 319 320 322 321 320 319 320 320 319 314 313 315 317 318 312 313 313 311 311 315 319 325 328 330 329 333
318 317 316 316 315 316 320 323 322 324 321 318 318 323 320 318 316 317 312 315 317 323 323 324 323 322 323 321 317 314 313 313 315 314 312 312 310 313 313 314 318 327 330 329 333
318 317 316 316 315 316 319 321 322 321 322 320 319 320 318 318 321 316 313 316 315 319 322 325 324 323 325 321 320 314 313 312 311 312 312 311 312 312 312 311 324 328 330 329 331
318 318 316 315 315 316 318 320 322 323 322 319 319 320 315 322 319 317 315 314 313 315 323 324 325 323 322 322 322 317 317 311 311 311 311 312 312 312 311 315 327 329 329 329 328
316 318 317 315 315 316 317 319 321 321 321 321 320 317 313 321 314 317 315 317 315 313 320 320 321 325 320 322 320 319 321 316 311 312 312 310 313 311 309 321 328 329 328 327 328
315 317 317 315 315 316 318 319 320 320 320 319 318 312 316 317 311 314 313 320 318 313 312 316 319 322 320 317 316 319 312 313 311 311 311 311 313 311 307 324 328 327 324 326 325
311 317 317 315 315 316 318 319 319 319 318 317 315 310 309 310 310 314 315 319 319 315 311 313 320 318 317 314 318 314 317 310 311 309 310 311 311 310 305 318 326 324 323 325 326
308 316 316 315 315 317 318 318 318 317 317 315 313 308 308 309 310 311 315 318 315 312 312 309 315 318 317 314 320 317 311 311 311 310 310 310 310 309 305 310 318 318 317 320 324
308 312 316 315 316 317 318 317 316 317 313 311 311 309 307 308 309 311 312 312 315 316 313 309 311 315 319 319 311 310 311 312 310 309 310 308 310 309 305 305 305 306 305 308 315
310 312 316 315 316 317 316 315 312 312 314 311 310 309 308 309 309 308 310 310 312 317 311 310 311 312 312 310 311 309 311 311 310 309 309 308 309 308 305 304 305 304 303 302 305
312 310 316 315 316 316 315 310 311 311 308 309 309 309 308 308 308 308 307 308 310 311 311 311 310 310 311 311 311 309 311 309 312 309 308 308 309 309 308 305 306 304 303 302 304
308 311 315 315 316 315 313 311 311 307 306 308 310 308 309 307 308 308 308 307 308 311 310 311 310 311 311 313 312 312 307 309 309 308 310 307 310 305 306 307 305 304 303 303 302
306 309 313 315 316 314 312 310 310 308 309 307 307 308 308 308 308 308 308 307 307 308 307 310 310 312 313 313 311 312 307 309 309 308 307 307 306 305 304 306 306 304 304 303 302
305 310 310 315 315 314 311 310 309 311 309 309 308 309 310 308 308 306 308 307 305 307 308 308 307 311 313 310 310 307 308 306 306 306 308 307 307 306 304 305 306 308 304 303 302
304 307 310 315 315 313 311 310 311 308 306 308 309 309 308 308 308 308 309 308 307 308 310 306 307 307 307 309 307 308 309 311 311 310 311 304 304 310 304 302 303 304 305 303 301
304 306 311 315 314 312 312 310 303 307 307 306 309 308 309 308 308 307 309 310 306 306 307 310 311 306 306 309 309 308 309 310 310 310 308 304 306 306 303 302 301 301 301 301 302
304 308 312 314 313 311 312 312 309 307 307 309 309 309 308 308 308 307 309 310 307 303 308 309 309 307 306 306 309 307 307 307 307 298 307 305 303 303 304 303 304 305 303 303 304
303 307 310 313 312 311 312 312 308 307 307 309 309 308 309 309 308 307 308 309 309 304 304 306 309 308 307 307 307 308 306 309 307 308 308 306 305 305 304 306 304 305 305 304 304
299 307 304 306 312 313 314 310 307 307 307 307 307 308 306 308 307 308 308 306 308 305 305 306 308 309 307 308 308 306 307 306 308 309 309 306 305 302 304 306 305 305 305 305 304
297 304 303 302 312 311 312 308 308 308 307 307 306 305 306 307 307 307 306 307 306 304 306 307 307 308 308 307 307 307 307 308 311 309 304 307 306 303 302 302 303 305 306 304 304
298 298 301 300 311 311 311 309 308 309 309 307 307 307 305 308 309 307 306 305 306 307 307 308 308 308 310 308 307 307 306 306 306 307 309 308 309 301 304 304 304 305 305 305 303
300 304 299 300 301 311 312 311 309 310 311 309 307 306 307 308 307 308 307 307 305 307 309 309 309 309 309 308 307 309 307 305 307 309 307 307 307 305 304 305 306 306 305 305 304
299 300 297 305 304 310 311 310 309 311 311 311 310 307 308 308 308 308 309 309 307 309 308 308 309 307 307 307 307 308 309 307 307 308 308 309 305 306 304 304 304 305 305 305 305
298 301 299 301 302 308 310 310 310 308 311 313 309 307 308 308 308 308 309 308 309 308 308 306 305 306 307 307 307 308 308 308 308 308 308 307 306 303 302 303 305 305 306 307 306
296 298 298 301 303 308 309 309 309 307 307 308 309 309 309 311 308 307 307 307 307 308 307 308 304 303 305 306 307 309 307 307 307 308 308 307 308 302 302 303 304 305 306 307 307

GFSSW_925_thetae_108.txt.gz
Theta_e
315 320 320 316 315 315 317 320 320 326 326 318 316 314 313 314 315 316 315 315 316 315 323 319 321 322 317 314 312 311 318 319 319 313 317 312 314 312 313 321 320 324 327 329 334
316 320 320 317 315 315 316 319 320 327 325 320 316 314 313 314 315 314 314 315 315 320 317 318 319 321 321 319 314 314 317 318 316 312 314 312 313 311 317 323 327 328 328 331 333
315 320 319 318 315 315 316 318 319 325 325 319 317 314 313 312 313 312 313 317 319 321 318 319 318 319 323 319 315 312 317 315 317 313 312 312 312 312 316 322 323 327 330 332 331
316 319 319 318 316 315 317 317 321 326 325 318 316 315 313 315 319 315 312 316 319 322 322 320 319 321 322 321 317 315 313 311 312 310 312 311 309 312 315 315 314 323 329 332 331
313 319 318 318 317 315 317 318 323 325 324 319 318 319 317 318 317 315 313 318 320 322 323 324 321 323 323 321 320 317 313 315 311 309 312 309 311 312 312 311 321 326 330 331 331
312 319 317 317 316 316 317 319 325 324 324 318 321 319 317 317 318 315 313 317 322 323 322 324 323 322 323 322 322 319 319 318 314 309 311 312 311 312 312 321 326 329 329 330 331
311 319 317 317 316 317 317 321 324 322 322 317 320 318 316 317 317 314 316 315 319 322 323 321 321 324 320 323 320 319 322 320 317 311 312 310 312 311 309 323 327 328 327 326 329
310 311 318 317 316 316 317 321 322 322 321 319 320 316 320 318 311 315 315 316 315 315 322 319 318 321 322 316 320 324 317 324 320 310 311 311 314 311 310 323 327 326 325 325 324
310 309 315 317 316 316 318 319 322 323 321 319 316 313 317 310 315 315 316 317 315 314 316 317 319 322 316 322 324 322 328 323 322 310 310 311 312 309 308 321 324 324 323 324 324
308 309 312 316 315 316 318 320 321 321 319 315 312 314 309 310 314 316 317 317 312 311 311 312 314 322 319 324 331 325 325 316 323 311 309 310 310 308 306 318 322 323 322 322 323
308 308 310 316 315 316 319 321 320 318 313 313 313 309 307 308 312 312 314 316 316 311 313 311 314 322 321 317 314 317 319 320 310 309 310 309 309 310 306 305 312 317 318 319 321
310 307 310 315 315 317 319 319 318 315 314 309 311 308 307 309 310 309 314 315 319 315 311 312 313 313 316 316 316 312 312 315 311 309 308 309 309 307 305 304 305 310 310 313 313
308 308 310 316 315 317 318 315 314 313 312 310 311 309 307 307 309 308 308 310 319 317 313 314 311 311 313 312 315 315 312 310 312 309 308 308 309 308 306 304 304 303 303 304 307
306 307 309 314 316 318 316 313 313 310 311 310 312 309 308 307 309 307 309 309 309 317 314 311 310 310 311 311 311 314 310 309 310 315 316 308 312 308 306 307 304 304 302 302 300
305 307 307 309 317 316 312 313 309 307 317 309 309 308 308 307 308 308 306 307 307 309 309 312 311 310 312 312 311 312 308 309 309 309 307 308 307 308 304 305 305 304 303 303 303
304 306 308 309 316 315 311 309 309 310 311 310 308 309 310 308 307 306 307 304 305 308 308 308 306 308 310 311 311 309 312 308 306 307 311 311 308 308 305 305 306 307 304 304 302
304 305 309 309 316 312 310 310 312 315 306 308 308 309 309 308 308 310 308 306 309 309 310 307 306 306 309 310 311 311 315 316 311 310 313 302 305 310 306 302 304 306 306 304 301
303 304 307 307 314 310 310 310 306 308 307 306 308 309 309 308 308 308 309 308 305 306 309 312 312 305 305 310 311 312 314 315 315 312 310 303 307 307 304 304 301 300 300 300 300
302 305 307 308 311 310 310 312 310 307 305 308 308 310 307 308 307 308 310 310 307 303 309 310 309 306 304 305 308 306 314 310 308 299 307 306 304 303 303 304 302 301 302 301 300
302 305 310 309 310 310 310 312 307 305 307 308 308 308 309 309 308 308 310 309 309 304 304 306 309 306 306 306 306 306 307 309 308 311 309 306 305 307 306 305 306 304 304 305 301
300 308 305 309 311 311 313 311 306 306 308 307 306 307 307 309 306 308 310 307 308 304 304 304 306 308 306 306 305 305 307 307 308 309 311 307 308 302 305 305 305 305 303 304 303
299 305 301 306 312 309 312 307 307 306 306 305 305 304 307 307 305 308 307 307 308 305 305 304 305 307 306 306 305 305 306 307 310 309 304 308 310 302 302 302 302 302 303 304 303
299 299 298 303 308 309 312 309 308 306 306 306 306 305 305 307 308 306 305 304 306 306 306 306 307 303 308 307 306 306 305 306 306 307 309 310 311 302 303 304 302 303 302 304 303
299 301 300 298 298 307 312 310 309 308 308 306 305 305 306 306 306 306 305 305 305 307 309 308 308 307 308 308 306 309 306 305 306 308 309 308 308 307 305 304 304 305 305 304 303
299 300 298 305 304 306 311 310 308 311 309 307 306 306 306 306 307 306 306 307 305 309 308 308 310 308 306 306 307 308 308 306 307 308 309 310 308 306 305 305 303 304 305 305 304
297 299 299 301 301 305 311 310 309 309 310 310 306 305 305 306 307 306 307 307 307 307 307 305 304 306 306 306 306 307 308 307 307 308 308 308 308 306 304 302 303 304 304 306 305
296 298 300 301 302 305 309 310 309 308 307 308 306 306 306 306 305 305 306 307 307 307 308 307 304 303 304 306 306 307 307 307 306 307 308 308 309 303 303 302 303 302 304 305 305

GFSSW_925_thetae_111.txt.gz
Theta_e
309 310 314 321 321 319 318 320 320 321 324 325 322 317 315 315 316 318 316 315 316 315 321 321 324 320 316 315 312 312 318 319 319 315 318 312 315 312 314 326 322 324 327 329 332
310 311 313 314 321 319 317 317 320 320 324 325 322 316 314 314 317 316 314 314 315 316 322 320 322 322 321 319 314 315 319 319 316 311 314 312 313 313 319 323 325 327 328 331 333
311 312 313 314 321 318 316 317 319 319 322 324 320 316 315 315 313 313 314 314 315 319 319 320 322 322 323 319 317 313 319 313 312 313 311 312 312 312 318 323 322 326 329 331 331
312 313 313 314 321 318 316 318 318 319 322 324 318 315 314 313 319 312 313 315 318 318 319 318 318 322 323 323 318 317 312 313 313 310 311 312 309 313 317 317 313 321 329 330 331
313 314 313 314 321 317 316 316 318 319 324 324 317 314 314 315 314 316 313 317 321 319 321 320 321 322 324 320 319 318 313 316 315 310 310 309 311 312 313 310 319 326 330 331 331
310 310 314 311 320 318 316 317 318 318 324 324 316 314 314 313 316 313 314 319 322 322 323 321 322 322 321 320 321 319 318 319 315 314 310 311 310 311 311 320 324 328 331 331 332
310 311 312 317 320 318 316 317 318 318 323 322 317 316 316 312 316 313 316 319 320 323 323 321 322 325 322 324 320 319 321 320 319 311 311 310 311 311 309 323 326 327 328 330 330
311 310 311 320 319 319 316 317 318 320 324 317 318 318 320 315 316 315 318 319 320 323 322 322 322 321 322 318 322 324 321 325 321 311 309 311 315 312 309 323 326 326 325 327 329
310 311 309 315 319 318 317 318 318 323 322 318 317 319 319 313 317 317 316 314 316 320 321 320 320 321 319 324 327 324 329 323 324 313 312 311 314 310 310 319 323 324 324 326 326
309 309 309 309 317 317 316 318 320 322 320 318 316 318 311 310 314 316 315 314 312 316 314 313 320 322 320 327 334 326 328 321 326 314 309 310 311 310 307 317 318 323 323 324 326
308 307 307 310 317 317 317 321 323 320 317 317 318 312 312 310 314 314 316 312 312 311 313 311 318 327 323 323 321 323 326 326 312 318 311 309 309 311 308 307 312 319 323 323 324
308 307 309 310 316 316 318 321 319 313 313 311 314 306 307 313 312 309 315 316 312 314 310 312 314 320 320 318 315 317 319 320 318 308 308 308 309 309 305 306 305 311 317 322 320
306 306 309 309 316 316 318 319 316 313 313 310 312 308 307 310 314 312 315 315 314 313 313 314 314 312 317 318 319 316 313 311 311 309 307 308 311 309 306 304 303 303 307 312 318
306 307 306 307 316 317 319 315 316 314 315 312 314 310 307 308 311 307 314 314 317 315 313 313 312 312 314 318 320 321 312 313 310 313 316 309 314 310 308 307 304 305 302 304 307
305 307 307 306 311 318 317 314 313 312 320 310 312 308 307 312 309 309 306 308 314 314 313 316 313 311 312 314 313 312 307 307 310 310 308 307 310 307 305 306 305 305 303 303 304
304 305 305 306 306 315 315 311 310 317 320 311 310 310 308 307 308 306 308 304 307 309 311 311 306 309 310 309 311 310 313 314 307 307 312 311 310 309 309 305 307 306 305 305 305
304 305 306 306 311 315 312 310 315 322 309 310 310 311 308 307 308 311 309 307 311 312 312 308 307 307 309 311 310 312 316 319 319 317 315 303 308 314 308 303 305 307 307 306 304
303 304 306 305 307 310 310 314 320 312 310 306 310 310 309 308 307 308 310 310 305 308 310 314 314 306 307 311 313 314 316 314 316 313 311 303 309 308 305 308 303 301 302 301 300
302 304 305 305 307 308 312 317 316 312 305 308 310 310 307 307 308 308 309 310 307 305 311 311 311 304 306 306 312 312 317 308 307 297 307 306 305 304 302 303 303 302 302 303 302
303 306 308 305 305 308 314 315 306 305 306 309 312 309 309 308 308 309 310 308 308 303 304 306 309 305 305 305 306 311 310 315 310 307 307 307 305 309 305 305 306 305 304 303 302
301 308 303 309 305 309 314 315 306 305 307 306 306 307 308 308 307 309 310 307 307 303 303 304 307 307 305 306 307 305 311 308 310 308 309 308 308 302 306 305 306 305 303 303 303
299 305 300 306 305 303 310 307 306 306 305 304 304 304 308 308 307 309 309 308 307 305 304 304 305 307 306 305 303 305 307 309 311 308 304 307 309 304 302 304 304 303 303 301 302
300 299 299 304 308 308 311 308 306 306 305 306 305 305 305 308 308 307 306 306 307 306 306 304 307 305 308 306 305 305 303 309 306 305 308 308 311 304 301 303 302 303 303 302 303
300 304 300 301 297 306 310 311 308 306 306 304 304 304 306 306 305 306 305 304 306 307 309 308 307 308 309 308 306 307 304 303 307 307 309 307 308 306 306 304 303 303 304 304 304
300 298 298 303 302 304 310 310 307 308 306 304 305 306 306 307 306 305 305 305 304 308 307 306 307 305 305 305 306 306 306 304 306 308 309 310 309 306 305 305 304 303 305 306 305
299 301 299 300 301 305 305 309 309 306 307 306 305 305 304 305 307 304 306 305 306 305 305 304 304 306 305 304 305 307 306 306 307 308 307 309 308 306 303 302 303 303 304 304 304
296 298 298 300 302 306 308 307 309 308 307 305 304 305 305 304 304 304 305 305 305 307 307 307 304 301 309 304 304 305 306 306 306 307 308 308 308 304 304 302 302 302 301 302 303

GFSSW_925_thetae_114.txt.gz
Theta_e
313 313 312 312 313 315 321 322 320 320 322 325 326 325 323 319 317 319 318 318 318 315 320 323 321 318 316 318 316 316 325 326 325 321 322 322 322 319 320 328 329 329 330 333 333
313 313 312 311 312 314 319 321 320 319 322 324 325 323 319 317 319 318 317 317 317 316 321 326 328 322 320 318 317 320 327 326 320 317 319 322 323 320 325 328 328 330 331 334 333
312 313 312 311 311 312 313 320 319 319 321 324 325 320 316 317 317 317 316 315 315 316 322 324 326 324 324 319 317 317 329 321 315 316 315 318 318 321 324 327 325 328 333 331 333
310 312 312 311 312 313 313 321 319 319 320 323 324 318 315 315 322 314 315 315 315 317 320 322 323 326 326 323 319 323 314 314 317 313 314 316 317 319 322 322 321 325 332 332 332
309 313 312 312 312 314 315 320 319 320 320 322 324 317 317 314 317 316 313 315 317 318 319 323 325 326 328 323 320 322 318 316 316 315 314 313 315 319 320 316 318 326 332 333 332
308 313 313 314 313 315 318 320 319 319 319 320 322 316 315 318 315 314 315 319 319 321 322 320 323 324 324 323 322 320 316 319 317 317 312 315 314 314 318 319 324 330 333 333 334
309 312 311 311 314 313 314 320 318 318 319 320 320 316 314 317 315 319 314 321 319 321 323 323 323 325 323 323 322 320 322 321 318 311 312 312 314 315 315 320 325 329 332 333 334
310 310 311 311 311 314 313 319 317 319 319 321 318 314 314 313 319 318 318 321 322 323 322 322 322 322 324 322 324 326 326 326 318 313 310 314 322 317 314 321 323 327 331 332 333
307 311 310 310 311 315 317 318 317 319 319 321 315 316 317 313 318 317 317 320 321 322 322 322 321 322 323 328 330 327 332 330 328 315 313 314 319 313 313 320 321 326 329 332 332
306 309 310 310 310 317 319 318 317 319 320 318 316 316 310 317 317 317 317 321 321 319 317 318 323 326 328 332 337 330 332 328 331 320 314 320 319 318 312 316 319 322 327 329 331
308 308 308 309 308 314 319 319 320 321 320 319 319 319 314 315 316 316 314 318 319 317 319 315 327 333 330 330 327 327 331 331 323 324 320 320 323 323 322 312 317 319 324 327 328
307 307 306 307 308 315 319 318 319 319 321 314 318 310 314 316 317 316 313 317 318 318 314 318 325 326 327 325 326 329 331 332 327 313 314 320 321 321 319 314 314 316 319 324 326
305 307 307 307 308 312 318 318 318 317 317 312 314 312 315 316 318 317 314 314 317 316 316 323 319 320 323 318 322 323 330 325 323 313 312 315 324 320 316 315 313 311 314 318 324
304 306 306 308 308 311 317 317 314 314 317 311 313 310 311 315 317 314 314 315 314 317 316 317 312 319 322 319 319 318 313 314 314 315 325 318 332 326 321 319 311 313 312 313 317
304 305 307 308 307 317 317 315 314 315 323 308 311 309 313 317 313 312 309 314 318 315 316 318 314 318 321 321 320 318 316 317 315 314 314 314 318 323 315 317 318 312 312 312 312
304 304 307 307 307 308 316 314 314 321 322 308 309 310 315 312 314 309 308 308 312 315 316 315 311 314 318 315 311 312 315 316 311 312 322 320 317 323 320 316 316 316 313 312 312
304 304 306 306 307 306 311 315 317 324 309 309 308 311 313 315 315 316 314 314 316 318 319 313 313 310 311 315 313 315 319 322 322 320 325 308 315 320 317 314 315 316 315 313 312
304 305 305 305 306 306 312 316 323 313 313 310 310 311 314 313 316 317 314 318 313 315 316 318 317 310 311 315 317 317 321 321 326 323 322 305 315 317 312 315 312 310 312 311 310
303 304 305 305 306 306 301 317 318 314 310 312 311 313 312 310 315 315 316 316 314 312 320 320 314 308 310 312 314 316 319 311 312 305 312 313 312 311 312 308 308 308 307 309 309
303 305 305 303 305 304 305 316 310 311 312 312 314 312 314 313 315 318 317 316 313 309 310 313 311 308 307 312 311 315 315 317 317 320 318 315 310 314 313 311 310 308 308 309 307
304 305 302 303 302 300 310 313 308 309 312 314 313 313 312 312 315 317 316 312 310 308 307 309 310 308 308 313 314 314 317 315 317 314 319 318 317 311 310 311 311 310 308 308 308
303 305 301 301 304 303 310 309 307 311 311 307 312 311 312 311 312 313 314 311 309 308 310 309 309 311 312 306 308 313 315 315 319 318 313 311 316 309 308 308 307 308 307 307 306
301 301 301 302 308 308 307 309 309 310 309 309 310 309 311 310 312 312 311 310 309 310 311 308 310 313 310 308 307 312 311 315 312 311 318 319 319 311 305 306 307 307 309 308 307
301 304 301 303 300 306 308 310 309 308 306 306 308 310 311 310 309 311 310 307 309 310 309 309 309 312 313 311 310 309 311 313 315 315 316 314 316 313 311 311 308 307 306 308 309
300 302 300 305 304 306 308 308 310 309 307 307 308 310 311 311 310 310 308 306 309 310 308 310 314 309 308 308 309 310 310 310 313 314 313 313 312 311 311 311 312 310 308 308 309
300 301 300 302 304 307 305 308 310 309 308 308 309 310 310 311 311 310 309 309 310 308 310 307 314 309 308 306 309 310 310 310 310 311 311 311 311 311 310 310 310 310 308 308 308
297 298 301 302 304 307 307 307 311 309 309 308 308 309 308 309 309 308 308 307 308 309 310 309 311 312 314 308 310 313 310 310 309 310 311 311 311 311 310 309 309 309 308 307 307

GFSSW_925_thetae_117.txt.gz
Theta_e
313 313 315 314 314 313 314 313 314 319 324 322 321 325 326 324 321 319 321 323 321 320 327 326 318 319 316 319 320 322 328 331 330 329 328 325 326 324 324 329 329 331 330 335 335
312 312 314 314 314 312 314 312 311 314 323 321 322 326 325 323 322 322 322 321 320 318 324 326 327 320 321 319 320 329 330 330 327 326 324 324 325 324 325 329 329 331 333 336 334
312 313 313 314 314 312 313 314 311 317 323 321 321 325 324 321 323 323 322 319 318 317 324 328 330 324 327 319 320 324 332 328 320 320 318 323 324 324 325 328 326 329 335 334 335
311 312 312 312 314 313 313 313 312 316 321 321 322 325 323 320 328 320 321 320 316 320 323 327 330 326 329 329 322 326 319 319 318 315 316 319 323 322 324 324 323 325 333 334 334
310 310 311 312 312 313 313 313 314 313 321 321 322 324 318 321 323 317 318 320 316 320 322 327 330 327 331 330 325 328 323 315 318 317 316 316 318 322 323 323 320 326 333 335 335
309 309 309 311 312 312 313 314 313 312 321 321 322 321 318 322 319 317 316 318 319 319 322 326 330 327 330 325 329 326 323 323 318 317 314 317 319 317 320 322 321 328 333 335 335
309 308 309 311 312 311 313 313 312 312 319 321 322 318 318 321 317 318 317 319 319 319 322 324 324 327 325 323 322 322 321 321 321 314 313 314 317 317 319 321 323 327 330 333 335
310 310 310 312 312 313 312 314 315 318 320 321 322 317 319 317 317 317 319 320 321 322 322 323 323 323 325 323 324 325 323 324 321 318 314 314 328 321 319 320 322 325 328 331 333
309 310 309 309 312 311 313 314 312 318 320 321 319 316 318 315 319 318 319 322 322 322 322 322 321 324 323 329 332 330 333 329 327 317 315 318 325 321 315 319 322 324 326 330 331
307 305 309 309 311 312 311 313 313 320 320 320 318 315 312 317 319 317 319 322 322 322 321 323 323 327 329 332 341 333 334 334 333 324 320 323 325 323 317 316 319 321 324 327 330
307 306 305 307 310 311 312 314 315 322 320 321 318 317 316 317 317 317 317 321 321 322 326 319 328 332 333 332 333 333 334 335 332 322 324 327 327 326 325 318 319 318 320 324 326
307 308 307 307 309 310 310 317 317 320 322 318 317 317 315 318 319 319 320 321 323 324 318 321 328 329 331 332 332 333 334 335 331 319 324 330 330 327 326 326 322 320 318 320 324
305 307 307 307 306 308 309 314 319 319 321 319 317 317 318 318 319 321 322 322 325 317 322 328 329 326 331 332 332 333 334 334 333 326 319 323 328 326 325 325 324 321 318 317 319
304 306 306 307 306 308 308 316 317 318 321 317 318 315 316 318 319 319 320 319 321 321 320 324 320 327 328 330 331 330 319 326 318 322 331 323 335 332 330 328 325 324 322 319 317
303 303 305 303 308 308 308 318 317 317 325 313 312 309 315 319 318 318 316 316 320 321 319 320 322 328 327 325 327 322 316 317 316 317 317 321 323 326 324 325 325 325 322 322 317
303 303 304 307 307 307 311 316 315 321 326 310 311 314 318 318 319 315 311 312 316 318 317 318 319 325 325 320 317 316 316 314 313 314 322 323 323 327 326 322 321 322 323 321 318
302 303 303 306 308 307 306 316 319 324 308 307 309 314 318 318 318 317 315 316 317 321 320 316 317 314 320 317 313 315 322 326 327 324 329 313 326 324 323 323 320 320 321 321 320
303 303 303 306 307 305 303 316 322 316 315 309 311 313 315 319 318 318 318 319 318 321 322 321 320 314 319 321 317 318 324 327 331 329 326 309 320 321 316 312 315 316 314 316 318
303 304 304 304 305 304 300 314 320 315 312 313 313 315 313 318 318 318 320 320 319 319 322 322 319 313 315 316 317 318 323 319 315 311 316 318 317 316 315 314 311 314 313 312 312
304 304 304 304 305 298 304 314 314 315 312 313 318 316 316 314 320 320 320 320 319 318 318 320 314 314 312 315 316 319 317 320 320 329 325 322 317 317 317 315 314 312 314 313 312
303 305 302 304 301 299 310 312 310 313 313 316 317 317 315 318 320 319 320 320 318 315 314 319 313 312 312 315 318 316 319 318 320 321 325 325 322 314 312 311 313 313 312 311 311
305 305 301 303 305 303 310 307 309 314 313 316 315 316 317 319 320 320 321 320 317 313 313 312 312 313 315 308 313 316 318 318 322 322 320 319 320 311 311 310 310 310 310 310 310
304 303 301 302 306 308 306 308 310 315 315 315 315 315 316 319 321 321 320 316 315 312 314 310 313 317 314 313 310 315 315 318 317 315 324 322 321 314 312 311 310 310 311 311 310
303 306 300 303 303 306 308 309 311 313 314 313 314 314 316 316 316 319 318 313 313 313 312 311 312 315 317 314 312 312 314 314 317 318 319 319 319 316 313 312 311 310 310 310 310
303 305 302 306 305 307 305 309 313 314 309 312 312 313 314 314 313 313 310 309 312 313 310 311 315 312 312 311 311 311 313 314 317 317 317 316 317 316 316 315 314 312 312 311 310
303 302 301 303 304 306 305 309 311 310 310 312 313 313 313 313 313 313 311 311 312 311 310 311 317 312 312 310 311 312 312 314 314 316 316 315 314 313 313 312 312 312 311 311 311
299 299 303 304 305 307 308 307 310 311 309 310 313 313 314 313 311 310 310 310 311 311 311 312 316 317 319 311 311 314 312 312 313 313 315 315 314 312 312 311 311 311 311 311 310

GFSSW_925_thetae_120.txt.gz
Theta_e
313 313 314 315 315 314 315 315 313 313 312 324 324 322 324 326 324 322 323 325 326 322 324 327 323 319 321 319 318 322 329 331 330 330 329 324 325 324 324 327 328 329 333 335 335
312 313 313 314 315 315 315 315 316 312 312 316 321 323 322 326 323 323 324 324 323 323 327 325 321 319 320 320 321 321 332 331 328 326 324 324 324 324 325 327 330 331 336 335 335
311 312 313 313 314 314 315 314 314 314 312 312 313 324 322 324 324 324 324 323 323 321 322 327 325 320 321 320 321 324 333 330 323 318 317 323 324 323 324 327 327 330 337 334 335
311 311 312 313 313 314 314 314 313 313 311 311 312 323 322 323 329 324 324 322 322 321 320 326 329 327 329 327 323 330 325 318 319 316 317 319 322 323 323 322 320 327 334 332 333
310 310 311 310 312 313 313 314 314 312 312 310 314 324 323 323 324 319 323 323 320 319 321 326 333 329 330 328 327 330 324 315 318 318 316 316 318 322 321 320 320 332 332 332 332
309 310 310 309 309 311 311 313 313 313 312 311 312 317 322 325 321 317 321 322 319 320 322 325 331 326 329 329 328 328 325 318 318 317 314 317 318 317 318 318 320 332 333 332 333
308 308 308 309 309 311 311 312 311 313 313 311 312 318 323 322 321 319 321 321 319 319 321 324 328 329 327 326 323 328 326 323 321 318 314 313 317 316 316 318 320 331 331 333 333
308 307 307 308 307 309 311 311 311 312 314 312 315 323 323 321 321 320 318 319 318 319 321 324 324 325 325 322 323 325 324 327 323 315 314 314 329 321 316 318 320 323 327 332 333
306 307 309 310 309 309 312 312 311 314 314 312 313 319 322 319 318 318 318 319 322 322 322 322 323 325 323 326 329 326 329 324 324 320 315 314 324 322 315 317 318 319 322 328 330
309 310 310 310 310 312 313 313 312 313 313 315 314 319 314 319 318 317 320 322 322 322 323 324 324 327 328 329 338 332 333 326 328 320 318 317 319 316 313 315 317 317 320 324 327
308 308 306 307 309 308 310 313 315 316 314 316 322 320 315 317 318 319 321 322 322 323 326 324 329 331 330 328 332 329 333 332 330 322 321 320 322 321 321 315 314 315 315 320 326
307 308 305 305 306 307 309 313 312 314 314 312 318 319 316 318 320 320 322 324 325 326 320 323 328 328 328 328 332 333 333 335 327 323 325 327 326 323 323 324 319 316 315 315 320
307 308 307 306 307 306 309 312 312 313 318 320 318 319 317 320 320 320 322 321 324 325 325 329 328 327 330 332 334 335 334 334 331 319 318 320 325 324 324 324 323 322 317 315 314
307 306 307 307 306 306 307 308 310 313 315 319 320 319 318 319 320 318 320 321 321 323 324 326 326 329 331 334 333 336 325 326 321 325 330 322 332 329 327 324 324 324 320 316 313
304 305 306 307 308 309 308 309 310 313 321 318 319 315 319 320 320 320 319 316 323 321 321 324 323 331 333 333 331 327 318 316 317 316 321 318 321 323 322 327 325 323 322 319 315
304 303 304 306 306 307 307 308 313 318 322 313 314 318 322 320 321 321 320 314 318 321 318 318 322 327 328 320 320 314 316 316 314 318 326 325 321 323 324 322 322 322 322 321 318
305 302 304 305 306 307 307 301 317 321 307 308 316 319 321 321 322 322 318 318 320 321 321 319 326 316 319 320 318 318 324 326 328 326 329 317 323 324 322 320 318 318 317 317 317
303 301 304 304 304 304 298 303 315 316 313 310 317 319 321 319 318 320 319 320 318 319 319 320 321 320 319 320 319 319 324 325 328 326 323 310 320 320 316 313 310 310 314 312 309
302 303 303 303 304 303 299 308 313 314 310 314 318 320 315 319 315 319 320 319 318 319 322 322 319 314 320 317 317 319 326 316 313 306 315 315 315 315 314 313 311 309 313 311 311
303 303 303 303 303 300 303 309 310 311 311 315 321 320 318 317 319 320 320 318 318 318 317 318 318 314 318 317 317 320 317 322 319 319 319 319 318 316 313 312 312 310 310 310 310
303 304 303 302 301 300 306 309 308 308 312 318 319 319 318 316 319 320 320 318 317 318 317 316 315 314 315 318 318 316 320 319 320 321 322 322 320 312 313 310 311 310 310 309 308
303 304 302 303 302 302 307 309 307 310 313 316 316 317 317 316 319 320 320 319 317 318 318 314 314 315 315 310 315 316 319 319 322 321 319 318 317 308 308 308 308 308 308 308 308
303 301 301 302 304 303 306 308 308 309 314 317 316 316 316 319 320 319 319 318 317 317 314 312 313 316 316 313 310 316 317 318 316 314 317 318 318 309 309 310 308 307 309 307 308
303 303 300 301 302 304 306 307 310 308 314 316 316 315 318 320 318 319 318 318 317 316 313 312 313 314 317 315 311 314 317 317 318 315 316 316 318 315 310 309 308 308 308 307 306
303 304 301 304 303 304 304 307 311 311 311 315 316 317 318 321 320 320 318 318 315 314 311 311 312 313 312 312 312 314 316 316 318 318 318 317 316 315 311 309 308 308 310 309 308
302 303 301 302 303 304 305 307 309 307 311 316 316 318 318 319 318 320 319 318 316 311 310 310 310 311 309 311 312 313 314 315 315 317 316 315 314 313 311 311 310 310 310 309 309
299 300 303 304 304 305 305 305 309 310 310 312 314 317 318 316 314 314 315 313 314 314 313 311 312 311 312 309 309 309 311 313 314 313 315 316 314 312 310 309 309 309 308 307 308

GFSSW_925_thetae_126.txt.gz
Theta_e
313 315 316 316 316 315 315 314 318 317 315 317 325 326 324 323 326 326 325 326 325 325 327 327 324 320 325 322 323 321 325 329 329 326 325 321 323 321 322 326 331 332 330 329 332
313 314 314 315 315 316 315 314 314 316 316 315 320 324 324 324 326 325 325 325 326 324 326 325 317 322 322 323 323 330 328 327 324 317 317 319 322 321 326 328 331 333 331 331 333
311 312 311 312 313 313 315 315 313 315 316 315 321 323 324 323 326 326 324 324 324 325 324 325 319 317 319 325 325 326 332 325 325 317 315 315 321 320 324 327 328 331 331 332 332
311 312 310 309 311 311 312 314 314 313 314 315 314 321 324 324 333 323 323 323 324 324 324 323 318 320 321 322 323 333 331 330 323 317 313 316 313 321 320 322 321 329 331 332 332
311 311 312 309 309 311 311 310 313 313 313 313 315 314 323 325 324 320 321 322 324 323 325 323 320 323 327 323 323 327 331 324 325 319 314 312 315 318 318 318 326 331 331 332 332
312 310 311 309 309 308 310 310 312 313 313 313 315 314 316 325 322 319 322 322 324 322 321 322 323 322 324 326 328 328 329 327 323 320 317 313 314 315 316 328 331 332 332 331 331
312 311 310 309 309 309 309 310 311 312 313 313 312 314 314 316 322 322 322 322 324 322 318 321 325 326 324 326 324 326 331 323 325 325 323 314 324 314 315 329 332 331 329 330 330
311 311 310 309 309 309 309 309 310 312 312 312 312 314 313 313 319 322 322 323 322 321 320 321 323 323 325 321 323 328 325 329 324 320 320 324 333 323 313 329 331 329 326 329 328
311 310 310 309 309 308 309 308 308 310 311 312 313 313 313 313 316 317 322 322 319 319 321 321 325 324 322 322 323 324 328 330 328 319 315 319 331 327 319 319 329 328 328 329 328
311 310 309 308 308 308 308 308 307 309 312 311 312 313 311 314 316 319 321 321 318 321 322 324 324 324 327 326 327 325 330 326 329 322 313 312 315 317 315 312 315 327 328 329 329
311 309 308 308 308 307 307 310 310 311 310 310 312 312 312 314 318 320 321 320 319 321 326 324 328 329 327 326 324 323 326 326 323 321 320 320 321 317 314 311 311 313 321 327 329
310 309 308 308 307 304 308 308 308 310 312 310 309 312 312 313 319 320 319 323 323 325 321 326 329 325 323 325 326 323 326 327 324 320 322 321 322 318 314 315 310 310 311 315 325
309 309 308 306 303 308 309 308 309 310 311 311 310 313 313 313 316 321 320 322 323 323 323 324 322 321 325 327 328 328 328 327 329 319 320 320 323 319 318 316 315 310 310 310 313
308 308 304 307 309 309 309 309 310 310 310 310 313 311 314 312 314 316 320 322 323 323 322 321 320 323 326 328 327 330 328 327 323 323 328 322 331 323 322 322 319 318 316 311 309
308 306 307 308 306 307 307 308 309 308 305 309 314 311 313 315 314 314 320 321 324 322 321 322 320 324 326 326 326 328 328 330 324 324 321 322 329 323 318 323 323 321 319 317 312
307 307 307 306 306 306 306 308 307 310 306 312 314 315 314 314 317 318 319 320 321 321 320 319 318 322 324 323 325 316 320 321 321 324 330 325 327 324 320 320 319 320 321 319 314
306 307 306 306 307 307 306 307 308 309 306 314 315 315 315 315 316 317 322 324 324 324 324 322 324 322 323 324 320 321 327 329 331 329 333 320 322 329 320 317 316 317 317 316 315
307 307 306 305 307 307 304 305 302 301 306 310 312 315 314 315 315 318 323 325 322 322 323 323 327 325 324 324 324 326 329 329 336 331 330 314 322 322 318 319 315 314 313 311 312
306 304 304 305 305 304 301 307 307 299 309 310 313 316 316 315 315 315 322 324 322 321 324 321 323 322 323 317 321 325 330 319 311 301 315 316 314 313 313 312 311 308 306 306 306
304 304 304 303 304 302 299 302 301 307 306 308 313 316 318 316 318 315 323 320 322 319 315 318 321 322 320 319 318 322 320 325 320 320 320 317 315 319 314 314 312 310 308 306 304
302 301 302 302 302 299 296 295 300 305 306 306 308 313 318 316 318 319 319 320 320 318 313 316 318 318 319 323 323 322 326 322 319 317 320 318 317 310 315 311 313 310 307 305 304
298 301 301 301 300 289 296 299 304 307 306 307 307 307 309 313 318 319 314 321 318 317 317 312 315 321 323 312 312 318 325 324 330 322 315 316 315 311 309 308 307 307 305 304 303
297 301 301 302 298 299 297 303 305 306 307 307 307 307 309 314 319 321 317 316 317 317 315 311 316 320 318 316 314 321 321 324 316 314 316 317 317 307 305 305 305 304 303 303 303
298 301 301 302 296 293 293 297 301 305 305 305 306 308 308 309 318 320 320 316 317 317 312 312 314 318 322 322 320 323 322 323 321 323 320 319 316 308 305 304 303 304 303 303 303
296 298 296 301 301 300 296 299 302 303 306 307 308 308 308 313 316 321 319 316 317 316 311 312 313 313 313 316 318 320 321 322 323 322 322 321 315 309 305 305 303 303 302 302 303
299 299 298 288 296 300 300 294 300 300 305 308 309 309 310 310 313 316 319 318 319 313 314 311 309 309 307 314 318 320 318 320 318 318 318 317 316 312 306 304 302 302 302 302 302
296 297 296 301 300 300 300 297 302 304 304 306 307 310 311 311 311 315 316 316 317 317 317 313 308 313 308 310 314 316 318 318 320 319 318 319 317 310 310 306 304 301 302 304 302

GFSSW_925_thetae_129.txt.gz
Theta_e
312 312 314 316 316 314 317 318 318 316 321 325 326 324 325 325 325 327 325 325 326 324 327 327 323 325 326 324 324 321 325 330 329 325 324 318 323 321 322 326 332 332 327 328 332
312 310 314 314 316 316 314 313 317 317 315 315 321 326 326 325 326 326 325 325 325 324 327 324 318 323 323 325 327 328 326 327 325 319 317 314 320 323 327 328 332 333 330 330 334
311 310 312 313 314 315 315 314 311 315 317 316 315 320 325 323 325 326 324 324 325 325 326 325 320 318 321 326 327 328 331 326 326 317 314 314 319 318 324 327 326 329 329 330 334
310 311 312 313 313 313 314 314 313 312 315 316 318 321 323 324 329 323 324 324 324 325 324 322 316 320 320 328 326 332 330 330 324 318 315 314 311 318 322 322 320 325 329 330 331
311 311 311 313 313 311 312 313 313 313 313 316 315 315 322 325 323 320 322 323 325 324 324 319 318 320 324 322 324 328 329 328 328 325 322 312 313 314 315 316 324 328 329 330 331
312 311 311 312 312 312 312 312 312 313 312 313 314 314 316 324 322 321 321 323 324 324 323 322 318 321 324 323 324 324 328 328 328 328 319 318 317 312 314 326 329 330 329 330 330
312 310 310 310 309 310 312 312 311 312 312 312 313 315 313 316 321 321 321 322 324 324 322 324 323 323 322 325 323 326 329 325 326 330 326 315 319 320 312 328 330 330 329 329 330
312 310 310 310 309 309 311 311 311 312 312 312 312 314 315 313 315 320 322 323 324 323 321 323 324 323 324 321 324 328 325 329 326 326 328 326 333 328 314 327 328 328 326 329 328
312 312 310 310 309 309 310 310 310 311 311 311 312 313 313 312 312 315 323 323 322 322 321 321 322 323 321 321 324 325 329 328 329 324 321 330 334 331 321 326 326 327 326 328 328
312 312 311 310 309 308 310 309 309 310 310 311 311 313 311 313 313 314 321 322 318 319 322 323 324 326 325 325 325 325 328 327 329 323 315 315 329 325 317 314 323 325 327 327 327
311 311 311 311 309 309 309 308 307 308 310 310 312 311 311 311 313 318 319 319 319 321 326 324 327 330 326 326 321 321 325 325 324 320 318 321 320 319 318 312 310 311 324 327 328
310 311 311 310 310 309 308 306 305 306 309 308 309 311 310 312 316 317 318 321 323 324 324 326 329 324 322 323 326 321 324 326 323 320 321 322 322 321 318 316 316 311 311 323 326
311 310 310 310 309 309 308 307 307 308 308 309 308 309 311 310 314 315 317 319 323 324 325 326 324 322 323 324 327 324 324 324 327 319 319 319 323 319 317 318 315 312 310 311 320
310 310 310 310 309 308 307 306 307 309 306 308 311 310 311 312 313 314 318 319 321 325 322 323 322 323 324 326 325 327 323 325 324 323 329 320 330 324 321 319 316 317 314 310 308
310 310 310 309 306 307 306 308 308 307 306 304 311 309 309 312 312 312 317 319 320 323 323 323 321 323 325 325 324 323 324 324 322 323 324 323 328 325 320 322 321 319 317 316 312
310 309 308 306 306 306 307 309 307 308 307 311 312 313 312 311 312 313 317 317 319 322 322 321 317 320 322 320 322 319 323 322 322 325 331 326 327 328 322 322 321 319 320 318 315
309 307 307 305 306 307 308 308 307 308 301 306 313 314 312 313 312 314 318 320 324 324 325 322 320 320 320 324 321 323 328 330 331 331 332 323 324 328 320 317 317 317 315 316 316
308 307 306 306 306 306 307 306 307 296 300 310 313 314 314 313 313 313 316 318 318 321 322 325 324 322 321 322 325 325 324 325 329 330 326 317 329 326 319 322 317 314 313 312 311
307 305 306 305 307 306 305 307 300 296 302 310 310 314 314 313 313 315 315 317 314 321 323 324 324 319 321 318 321 325 326 319 314 300 316 318 316 313 313 313 310 313 313 309 308
305 305 305 305 305 305 304 300 297 305 306 307 309 310 315 315 315 314 315 314 317 316 320 318 322 321 320 318 318 322 321 325 322 315 318 318 316 322 317 318 314 310 311 308 304
305 305 303 304 304 303 306 300 300 305 305 305 306 310 313 315 314 315 314 313 314 317 318 317 317 323 321 324 324 323 324 323 324 316 320 318 318 311 317 317 314 311 308 306 304
300 302 301 302 304 298 296 296 302 304 304 305 306 306 306 307 311 314 315 313 314 315 321 319 317 322 324 312 313 321 323 324 327 324 314 315 318 310 311 310 309 311 309 305 303
300 298 300 299 301 300 296 302 303 306 305 306 306 305 306 310 311 311 312 313 317 319 321 316 318 323 323 319 315 322 321 323 321 314 320 324 322 307 304 305 304 306 305 303 302
299 302 299 301 290 295 296 297 301 304 305 305 305 306 307 309 310 310 315 315 316 319 318 314 315 320 324 324 322 324 323 322 324 325 323 323 322 313 306 306 304 304 303 302 301
295 292 297 301 298 293 292 296 299 303 303 303 304 305 306 305 307 308 309 308 317 318 319 315 320 318 317 318 318 320 323 323 324 324 325 324 318 314 305 304 304 303 302 302 302
296 296 296 286 296 299 295 291 297 295 302 304 304 306 305 305 306 308 312 316 317 319 320 315 318 311 312 314 317 319 320 322 323 324 321 321 318 312 307 302 302 302 301 302 302
295 296 296 299 298 300 296 292 297 300 301 303 305 306 306 307 306 307 309 310 313 317 320 316 315 317 320 313 317 321 320 321 321 322 323 324 321 311 310 303 303 302 302 303 304